Wetterdaten: Freitag, 06.05.2022
Datum Zeit Temp. 2m Temp +5 cm Feuchte A. Luftdruck Regen Wind Richtung Richtung Sonnenschein UV Solar Taupunkt Windchill Windben
06.05.2022 00:00 5,1 C 2,8 C 89 % 1026,7 hPa 0,0 l/m 0,0 km/h (0 Bft) N 0 0 min 0,0 UV-I 0 W/m 3,4 C 5,1 C 0,0 km/h (0 Bft)
06.05.2022 00:01 5,1 C 2,8 C 89 % 1026,7 hPa 0,0 l/m 0,0 km/h (0 Bft) N 0 0 min 0,0 UV-I 0 W/m 3,4 C 5,1 C 0,0 km/h (0 Bft)
06.05.2022 00:02 5,1 C 3,3 C 89 % 1026,7 hPa 0,0 l/m 0,0 km/h (0 Bft) N 0 0 min 0,0 UV-I 0 W/m 3,4 C 5,1 C 0,0 km/h (0 Bft)
06.05.2022 00:03 5,2 C 2,8 C 89 % 1026,7 hPa 0,0 l/m 0,0 km/h (0 Bft) N 360 0 min 0,0 UV-I 0 W/m 3,5 C 5,2 C 1,6 km/h (1 Bft)
06.05.2022 00:04 5,3 C 2,8 C 89 % 1026,6 hPa 0,0 l/m 1,6 km/h (1 Bft) N 360 0 min 0,0 UV-I 0 W/m 3,6 C 5,3 C 1,6 km/h (1 Bft)
06.05.2022 00:05 5,3 C 2,8 C 89 % 1026,7 hPa 0,0 l/m 0,0 km/h (0 Bft) N 360 0 min 0,0 UV-I 0 W/m 3,6 C 5,3 C 1,6 km/h (1 Bft)
06.05.2022 00:06 5,3 C 2,8 C 89 % 1026,7 hPa 0,0 l/m 0,0 km/h (0 Bft) N 0 0 min 0,0 UV-I 0 W/m 3,6 C 5,3 C 0,0 km/h (0 Bft)
06.05.2022 00:07 5,4 C 3,3 C 89 % 1026,7 hPa 0,0 l/m 0,0 km/h (0 Bft) N 0 0 min 0,0 UV-I 0 W/m 3,7 C 5,4 C 0,0 km/h (0 Bft)
06.05.2022 00:08 5,6 C 2,8 C 89 % 1026,7 hPa 0,0 l/m 0,0 km/h (0 Bft) N 0 0 min 0,0 UV-I 0 W/m 3,9 C 5,6 C 0,0 km/h (0 Bft)
06.05.2022 00:09 5,6 C 3,3 C 89 % 1026,7 hPa 0,0 l/m 0,0 km/h (0 Bft) N 0 0 min 0,0 UV-I 0 W/m 3,9 C 5,6 C 0,0 km/h (0 Bft)
06.05.2022 00:10 5,7 C 3,3 C 90 % 1026,7 hPa 0,0 l/m 0,0 km/h (0 Bft) N 0 0 min 0,0 UV-I 0 W/m 4,2 C 5,7 C 0,0 km/h (0 Bft)
06.05.2022 00:11 5,7 C 3,3 C 90 % 1026,8 hPa 0,0 l/m 0,0 km/h (0 Bft) N 360 0 min 0,0 UV-I 0 W/m 4,2 C 5,7 C 1,6 km/h (1 Bft)
06.05.2022 00:12 5,8 C 3,9 C 90 % 1026,7 hPa 0,0 l/m 0,0 km/h (0 Bft) N 360 0 min 0,0 UV-I 0 W/m 4,3 C 5,8 C 1,6 km/h (1 Bft)
06.05.2022 00:13 5,9 C 3,9 C 90 % 1026,7 hPa 0,0 l/m 0,0 km/h (0 Bft) N 0 0 min 0,0 UV-I 0 W/m 4,4 C 5,9 C 0,0 km/h (0 Bft)
06.05.2022 00:14 6,1 C 3,9 C 90 % 1026,7 hPa 0,0 l/m 0,0 km/h (0 Bft) N 0 0 min 0,0 UV-I 0 W/m 4,6 C 6,1 C 0,0 km/h (0 Bft)
06.05.2022 00:15 6,1 C 3,3 C 90 % 1026,7 hPa 0,0 l/m 0,0 km/h (0 Bft) N 0 0 min 0,0 UV-I 0 W/m 4,6 C 6,1 C 0,0 km/h (0 Bft)
06.05.2022 00:16 6,1 C 3,3 C 89 % 1026,7 hPa 0,0 l/m 0,0 km/h (0 Bft) N 0 0 min 0,0 UV-I 0 W/m 4,4 C 6,1 C 0,0 km/h (0 Bft)
06.05.2022 00:17 6,2 C 3,3 C 89 % 1026,7 hPa 0,0 l/m 0,0 km/h (0 Bft) N 0 0 min 0,0 UV-I 0 W/m 4,5 C 6,2 C 0,0 km/h (0 Bft)
06.05.2022 00:18 6,2 C 3,3 C 89 % 1026,7 hPa 0,0 l/m 0,0 km/h (0 Bft) N 0 0 min 0,0 UV-I 0 W/m 4,5 C 6,2 C 0,0 km/h (0 Bft)
06.05.2022 00:19 6,1 C 3,3 C 89 % 1026,8 hPa 0,0 l/m 0,0 km/h (0 Bft) N 0 0 min 0,0 UV-I 0 W/m 4,4 C 6,1 C 0,0 km/h (0 Bft)
06.05.2022 00:20 6,1 C 3,3 C 89 % 1026,7 hPa 0,0 l/m 0,0 km/h (0 Bft) N 0 0 min 0,0 UV-I 0 W/m 4,4 C 6,1 C 0,0 km/h (0 Bft)
06.05.2022 00:21 5,9 C 3,3 C 89 % 1026,8 hPa 0,0 l/m 0,0 km/h (0 Bft) N 0 0 min 0,0 UV-I 0 W/m 4,2 C 5,9 C 0,0 km/h (0 Bft)
06.05.2022 00:22 5,8 C 3,3 C 89 % 1026,7 hPa 0,0 l/m 0,0 km/h (0 Bft) N 0 0 min 0,0 UV-I 0 W/m 4,1 C 5,8 C 0,0 km/h (0 Bft)
06.05.2022 00:23 5,8 C 3,3 C 89 % 1026,8 hPa 0,0 l/m 0,0 km/h (0 Bft) N 0 0 min 0,0 UV-I 0 W/m 4,1 C 5,8 C 0,0 km/h (0 Bft)
06.05.2022 00:24 5,7 C 3,3 C 88 % 1026,7 hPa 0,0 l/m 0,0 km/h (0 Bft) N 0 0 min 0,0 UV-I 0 W/m 3,9 C 5,7 C 0,0 km/h (0 Bft)
06.05.2022 00:25 5,5 C 3,3 C 88 % 1026,8 hPa 0,0 l/m 0,0 km/h (0 Bft) N 0 0 min 0,0 UV-I 0 W/m 3,7 C 5,5 C 0,0 km/h (0 Bft)
06.05.2022 00:26 5,4 C 3,3 C 88 % 1026,8 hPa 0,0 l/m 0,0 km/h (0 Bft) N 0 0 min 0,0 UV-I 0 W/m 3,6 C 5,4 C 0,0 km/h (0 Bft)
06.05.2022 00:27 5,3 C 2,8 C 88 % 1026,8 hPa 0,0 l/m 0,0 km/h (0 Bft) N 0 0 min 0,0 UV-I 0 W/m 3,5 C 5,3 C 0,0 km/h (0 Bft)
06.05.2022 00:28 5,2 C 2,8 C 88 % 1026,7 hPa 0,0 l/m 0,0 km/h (0 Bft) N 0 0 min 0,0 UV-I 0 W/m 3,4 C 5,2 C 0,0 km/h (0 Bft)
06.05.2022 00:29 5,2 C 2,8 C 89 % 1026,8 hPa 0,0 l/m 0,0 km/h (0 Bft) N 0 0 min 0,0 UV-I 0 W/m 3,5 C 5,2 C 0,0 km/h (0 Bft)
06.05.2022 00:30 5,2 C 2,8 C 89 % 1026,7 hPa 0,0 l/m 0,0 km/h (0 Bft) N 0 0 min 0,0 UV-I 0 W/m 3,5 C 5,2 C 0,0 km/h (0 Bft)
06.05.2022 00:31 5,2 C 2,8 C 89 % 1026,8 hPa 0,0 l/m 0,0 km/h (0 Bft) N 0 0 min 0,0 UV-I 0 W/m 3,5 C 5,2 C 0,0 km/h (0 Bft)
06.05.2022 00:32 5,2 C 2,8 C 89 % 1026,8 hPa 0,0 l/m 0,0 km/h (0 Bft) N 0 0 min 0,0 UV-I 0 W/m 3,5 C 5,2 C 0,0 km/h (0 Bft)
06.05.2022 00:33 5,2 C 2,8 C 89 % 1026,7 hPa 0,0 l/m 0,0 km/h (0 Bft) N 0 0 min 0,0 UV-I 0 W/m 3,5 C 5,2 C 0,0 km/h (0 Bft)
06.05.2022 00:34 5,3 C 3,3 C 89 % 1026,7 hPa 0,0 l/m 0,0 km/h (0 Bft) N 0 0 min 0,0 UV-I 0 W/m 3,6 C 5,3 C 0,0 km/h (0 Bft)
06.05.2022 00:35 5,3 C 3,3 C 89 % 1026,8 hPa 0,0 l/m 0,0 km/h (0 Bft) N 0 0 min 0,0 UV-I 0 W/m 3,6 C 5,3 C 0,0 km/h (0 Bft)
06.05.2022 00:36 5,3 C 2,8 C 89 % 1026,8 hPa 0,0 l/m 0,0 km/h (0 Bft) N 0 0 min 0,0 UV-I 0 W/m 3,6 C 5,3 C 0,0 km/h (0 Bft)
06.05.2022 00:37 5,2 C 2,8 C 89 % 1026,8 hPa 0,0 l/m 0,0 km/h (0 Bft) N 0 0 min 0,0 UV-I 0 W/m 3,5 C 5,2 C 0,0 km/h (0 Bft)
06.05.2022 00:38 5,2 C 2,8 C 89 % 1026,8 hPa 0,0 l/m 0,0 km/h (0 Bft) N 0 0 min 0,0 UV-I 0 W/m 3,5 C 5,2 C 0,0 km/h (0 Bft)
06.05.2022 00:39 5,2 C 2,8 C 89 % 1026,7 hPa 0,0 l/m 0,0 km/h (0 Bft) N 0 0 min 0,0 UV-I 0 W/m 3,5 C 5,2 C 0,0 km/h (0 Bft)
06.05.2022 00:40 5,2 C 2,8 C 89 % 1026,7 hPa 0,0 l/m 0,0 km/h (0 Bft) N 0 0 min 0,0 UV-I 0 W/m 3,5 C 5,2 C 0,0 km/h (0 Bft)
06.05.2022 00:41 5,1 C 2,8 C 89 % 1026,8 hPa 0,0 l/m 0,0 km/h (0 Bft) N 0 0 min 0,0 UV-I 0 W/m 3,4 C 5,1 C 0,0 km/h (0 Bft)
06.05.2022 00:42 5,2 C 3,3 C 89 % 1026,8 hPa 0,0 l/m 0,0 km/h (0 Bft) N 0 0 min 0,0 UV-I 0 W/m 3,5 C 5,2 C 0,0 km/h (0 Bft)
06.05.2022 00:43 5,2 C 3,3 C 90 % 1026,6 hPa 0,0 l/m 0,0 km/h (0 Bft) N 0 0 min 0,0 UV-I 0 W/m 3,7 C 5,2 C 0,0 km/h (0 Bft)
06.05.2022 00:44 5,2 C 3,3 C 90 % 1026,8 hPa 0,0 l/m 0,0 km/h (0 Bft) N 0 0 min 0,0 UV-I 0 W/m 3,7 C 5,2 C 0,0 km/h (0 Bft)
06.05.2022 00:45 5,3 C 3,3 C 90 % 1026,7 hPa 0,0 l/m 0,0 km/h (0 Bft) N 0 0 min 0,0 UV-I 0 W/m 3,8 C 5,3 C 0,0 km/h (0 Bft)
06.05.2022 00:46 5,3 C 3,3 C 90 % 1026,7 hPa 0,0 l/m 0,0 km/h (0 Bft) N 0 0 min 0,0 UV-I 0 W/m 3,8 C 5,3 C 0,0 km/h (0 Bft)
06.05.2022 00:47 5,3 C 3,3 C 90 % 1026,7 hPa 0,0 l/m 0,0 km/h (0 Bft) N 0 0 min 0,0 UV-I 0 W/m 3,8 C 5,3 C 0,0 km/h (0 Bft)
06.05.2022 00:48 5,3 C 3,3 C 90 % 1026,7 hPa 0,0 l/m 0,0 km/h (0 Bft) N 0 0 min 0,0 UV-I 0 W/m 3,8 C 5,3 C 0,0 km/h (0 Bft)
06.05.2022 00:49 5,2 C 2,8 C 90 % 1026,7 hPa 0,0 l/m 0,0 km/h (0 Bft) N 0 0 min 0,0 UV-I 0 W/m 3,7 C 5,2 C 0,0 km/h (0 Bft)
06.05.2022 00:50 5,2 C 3,3 C 90 % 1026,7 hPa 0,0 l/m 0,0 km/h (0 Bft) N 0 0 min 0,0 UV-I 0 W/m 3,7 C 5,2 C 0,0 km/h (0 Bft)
06.05.2022 00:51 5,2 C 2,8 C 90 % 1026,8 hPa 0,0 l/m 0,0 km/h (0 Bft) N 0 0 min 0,0 UV-I 0 W/m 3,7 C 5,2 C 0,0 km/h (0 Bft)
06.05.2022 00:52 5,2 C 2,8 C 90 % 1026,8 hPa 0,0 l/m 0,0 km/h (0 Bft) N 0 0 min 0,0 UV-I 0 W/m 3,7 C 5,2 C 0,0 km/h (0 Bft)
06.05.2022 00:53 5,1 C 2,8 C 90 % 1026,7 hPa 0,0 l/m 0,0 km/h (0 Bft) N 0 0 min 0,0 UV-I 0 W/m 3,6 C 5,1 C 0,0 km/h (0 Bft)
06.05.2022 00:54 5,1 C 2,8 C 90 % 1026,9 hPa 0,0 l/m 1,6 km/h (1 Bft) N 360 0 min 0,0 UV-I 0 W/m 3,6 C 5,1 C 3,2 km/h (1 Bft)
06.05.2022 00:55 5,0 C 2,8 C 90 % 1026,8 hPa 0,0 l/m 1,6 km/h (1 Bft) N 360 0 min 0,0 UV-I 0 W/m 3,5 C 5,0 C 3,2 km/h (1 Bft)
06.05.2022 00:56 5,0 C 2,8 C 90 % 1026,8 hPa 0,0 l/m 1,6 km/h (1 Bft) N 360 0 min 0,0 UV-I 0 W/m 3,5 C 5,0 C 3,2 km/h (1 Bft)
06.05.2022 00:57 4,9 C 2,2 C 90 % 1026,9 hPa 0,0 l/m 0,0 km/h (0 Bft) N 360 0 min 0,0 UV-I 0 W/m 3,4 C 4,9 C 1,6 km/h (1 Bft)
06.05.2022 00:58 4,9 C 2,2 C 90 % 1026,9 hPa 0,0 l/m 0,0 km/h (0 Bft) N 360 0 min 0,0 UV-I 0 W/m 3,4 C 4,9 C 1,6 km/h (1 Bft)
06.05.2022 00:59 4,8 C 2,2 C 89 % 1026,9 hPa 0,0 l/m 0,0 km/h (0 Bft) N 360 0 min 0,0 UV-I 0 W/m 3,1 C 4,8 C 1,6 km/h (1 Bft)
06.05.2022 01:00 4,7 C 2,2 C 89 % 1026,9 hPa 0,0 l/m 1,6 km/h (1 Bft) N 360 0 min 0,0 UV-I 0 W/m 3,0 C 4,7 C 1,6 km/h (1 Bft)
06.05.2022 01:01 4,7 C 2,2 C 90 % 1027,0 hPa 0,0 l/m 1,6 km/h (1 Bft) N 360 0 min 0,0 UV-I 0 W/m 3,2 C 4,7 C 1,6 km/h (1 Bft)
06.05.2022 01:02 4,7 C 2,2 C 90 % 1026,9 hPa 0,0 l/m 1,6 km/h (1 Bft) N 360 0 min 0,0 UV-I 0 W/m 3,2 C 4,7 C 1,6 km/h (1 Bft)
06.05.2022 01:03 4,7 C 2,2 C 90 % 1026,9 hPa 0,0 l/m 1,6 km/h (1 Bft) N 360 0 min 0,0 UV-I 0 W/m 3,2 C 4,7 C 1,6 km/h (1 Bft)
06.05.2022 01:04 4,7 C 2,2 C 90 % 1026,8 hPa 0,0 l/m 1,6 km/h (1 Bft) N 360 0 min 0,0 UV-I 0 W/m 3,2 C 4,7 C 3,2 km/h (1 Bft)
06.05.2022 01:05 4,8 C 2,2 C 90 % 1026,9 hPa 0,0 l/m 1,6 km/h (1 Bft) N 360 0 min 0,0 UV-I 0 W/m 3,3 C 4,8 C 3,2 km/h (1 Bft)
06.05.2022 01:06 4,8 C 2,2 C 90 % 1026,9 hPa 0,0 l/m 1,6 km/h (1 Bft) N 360 0 min 0,0 UV-I 0 W/m 3,3 C 4,8 C 1,6 km/h (1 Bft)
06.05.2022 01:07 4,9 C 2,2 C 90 % 1026,9 hPa 0,0 l/m 1,6 km/h (1 Bft) N 360 0 min 0,0 UV-I 0 W/m 3,4 C 4,9 C 1,6 km/h (1 Bft)
06.05.2022 01:08 4,9 C 2,2 C 90 % 1026,9 hPa 0,0 l/m 0,0 km/h (0 Bft) N 360 0 min 0,0 UV-I 0 W/m 3,4 C 4,9 C 1,6 km/h (1 Bft)
06.05.2022 01:09 5,0 C 2,2 C 90 % 1026,8 hPa 0,0 l/m 0,0 km/h (0 Bft) N 360 0 min 0,0 UV-I 0 W/m 3,5 C 5,0 C 1,6 km/h (1 Bft)
06.05.2022 01:10 5,0 C 2,2 C 90 % 1026,8 hPa 0,0 l/m 0,0 km/h (0 Bft) N 0 0 min 0,0 UV-I 0 W/m 3,5 C 5,0 C 0,0 km/h (0 Bft)
06.05.2022 01:11 5,0 C 2,8 C 90 % 1026,8 hPa 0,0 l/m 0,0 km/h (0 Bft) N 0 0 min 0,0 UV-I 0 W/m 3,5 C 5,0 C 0,0 km/h (0 Bft)
06.05.2022 01:12 5,0 C 2,8 C 90 % 1026,8 hPa 0,0 l/m 0,0 km/h (0 Bft) N 0 0 min 0,0 UV-I 0 W/m 3,5 C 5,0 C 0,0 km/h (0 Bft)
06.05.2022 01:13 4,9 C 2,8 C 90 % 1026,8 hPa 0,0 l/m 0,0 km/h (0 Bft) N 0 0 min 0,0 UV-I 0 W/m 3,4 C 4,9 C 0,0 km/h (0 Bft)
06.05.2022 01:14 4,9 C 2,8 C 90 % 1026,9 hPa 0,0 l/m 0,0 km/h (0 Bft) N 0 0 min 0,0 UV-I 0 W/m 3,4 C 4,9 C 0,0 km/h (0 Bft)
06.05.2022 01:15 4,8 C 2,2 C 90 % 1026,9 hPa 0,0 l/m 0,0 km/h (0 Bft) N 0 0 min 0,0 UV-I 0 W/m 3,3 C 4,8 C 0,0 km/h (0 Bft)
06.05.2022 01:16 4,9 C 2,2 C 90 % 1026,9 hPa 0,0 l/m 0,0 km/h (0 Bft) N 0 0 min 0,0 UV-I 0 W/m 3,4 C 4,9 C 0,0 km/h (0 Bft)
06.05.2022 01:17 4,8 C 2,2 C 90 % 1026,9 hPa 0,0 l/m 0,0 km/h (0 Bft) N 0 0 min 0,0 UV-I 0 W/m 3,3 C 4,8 C 0,0 km/h (0 Bft)
06.05.2022 01:18 4,8 C 2,2 C 90 % 1026,8 hPa 0,0 l/m 0,0 km/h (0 Bft) N 0 0 min 0,0 UV-I 0 W/m 3,3 C 4,8 C 0,0 km/h (0 Bft)
06.05.2022 01:19 4,7 C 2,2 C 90 % 1026,9 hPa 0,0 l/m 0,0 km/h (0 Bft) N 0 0 min 0,0 UV-I 0 W/m 3,2 C 4,7 C 0,0 km/h (0 Bft)
06.05.2022 01:20 4,6 C 2,2 C 90 % 1026,9 hPa 0,0 l/m 0,0 km/h (0 Bft) N 0 0 min 0,0 UV-I 0 W/m 3,1 C 4,6 C 0,0 km/h (0 Bft)
06.05.2022 01:21 4,6 C 2,2 C 90 % 1026,9 hPa 0,0 l/m 0,0 km/h (0 Bft) N 0 0 min 0,0 UV-I 0 W/m 3,1 C 4,6 C 0,0 km/h (0 Bft)
06.05.2022 01:22 4,6 C 2,2 C 90 % 1026,9 hPa 0,0 l/m 0,0 km/h (0 Bft) N 0 0 min 0,0 UV-I 0 W/m 3,1 C 4,6 C 0,0 km/h (0 Bft)
06.05.2022 01:23 4,6 C 2,2 C 90 % 1026,8 hPa 0,0 l/m 0,0 km/h (0 Bft) N 0 0 min 0,0 UV-I 0 W/m 3,1 C 4,6 C 0,0 km/h (0 Bft)
06.05.2022 01:24 4,6 C 2,2 C 90 % 1026,8 hPa 0,0 l/m 0,0 km/h (0 Bft) N 360 0 min 0,0 UV-I 0 W/m 3,1 C 4,6 C 1,6 km/h (1 Bft)
06.05.2022 01:25 4,6 C 2,2 C 90 % 1026,9 hPa 0,0 l/m 0,0 km/h (0 Bft) N 0 0 min 0,0 UV-I 0 W/m 3,1 C 4,6 C 0,0 km/h (0 Bft)
06.05.2022 01:26 4,6 C 2,2 C 90 % 1026,9 hPa 0,0 l/m 0,0 km/h (0 Bft) N 0 0 min 0,0 UV-I 0 W/m 3,1 C 4,6 C 0,0 km/h (0 Bft)
06.05.2022 01:27 4,6 C 2,2 C 90 % 1026,8 hPa 0,0 l/m 0,0 km/h (0 Bft) N 0 0 min 0,0 UV-I 0 W/m 3,1 C 4,6 C 0,0 km/h (0 Bft)
06.05.2022 01:28 4,6 C 2,2 C 90 % 1026,9 hPa 0,0 l/m 0,0 km/h (0 Bft) N 0 0 min 0,0 UV-I 0 W/m 3,1 C 4,6 C 0,0 km/h (0 Bft)
06.05.2022 01:29 4,6 C 2,2 C 90 % 1026,8 hPa 0,0 l/m 0,0 km/h (0 Bft) N 0 0 min 0,0 UV-I 0 W/m 3,1 C 4,6 C 0,0 km/h (0 Bft)
06.05.2022 01:30 4,5 C 2,2 C 90 % 1026,8 hPa 0,0 l/m 0,0 km/h (0 Bft) N 0 0 min 0,0 UV-I 0 W/m 3,0 C 4,5 C 0,0 km/h (0 Bft)
06.05.2022 01:31 4,5 C 2,2 C 90 % 1026,8 hPa 0,0 l/m 0,0 km/h (0 Bft) N 0 0 min 0,0 UV-I 0 W/m 3,0 C 4,5 C 0,0 km/h (0 Bft)
06.05.2022 01:32 4,4 C 2,2 C 90 % 1026,8 hPa 0,0 l/m 0,0 km/h (0 Bft) N 0 0 min 0,0 UV-I 0 W/m 2,9 C 4,4 C 0,0 km/h (0 Bft)
06.05.2022 01:33 4,4 C 2,2 C 90 % 1026,8 hPa 0,0 l/m 0,0 km/h (0 Bft) N 0 0 min 0,0 UV-I 0 W/m 2,9 C 4,4 C 0,0 km/h (0 Bft)
06.05.2022 01:34 4,4 C 2,2 C 90 % 1026,7 hPa 0,0 l/m 0,0 km/h (0 Bft) N 0 0 min 0,0 UV-I 0 W/m 2,9 C 4,4 C 0,0 km/h (0 Bft)
06.05.2022 01:35 4,4 C 1,7 C 90 % 1026,9 hPa 0,0 l/m 0,0 km/h (0 Bft) N 0 0 min 0,0 UV-I 0 W/m 2,9 C 4,4 C 0,0 km/h (0 Bft)
06.05.2022 01:36 4,4 C 1,7 C 90 % 1026,8 hPa 0,0 l/m 0,0 km/h (0 Bft) N 0 0 min 0,0 UV-I 0 W/m 2,9 C 4,4 C 0,0 km/h (0 Bft)
06.05.2022 01:37 4,4 C 1,7 C 90 % 1026,8 hPa 0,0 l/m 0,0 km/h (0 Bft) N 0 0 min 0,0 UV-I 0 W/m 2,9 C 4,4 C 0,0 km/h (0 Bft)
06.05.2022 01:38 4,4 C 1,7 C 90 % 1026,8 hPa 0,0 l/m 0,0 km/h (0 Bft) N 0 0 min 0,0 UV-I 0 W/m 2,9 C 4,4 C 0,0 km/h (0 Bft)
06.05.2022 01:39 4,4 C 1,7 C 90 % 1026,8 hPa 0,0 l/m 0,0 km/h (0 Bft) N 0 0 min 0,0 UV-I 0 W/m 2,9 C 4,4 C 0,0 km/h (0 Bft)
06.05.2022 01:40 4,4 C 1,7 C 90 % 1026,8 hPa 0,0 l/m 0,0 km/h (0 Bft) N 0 0 min 0,0 UV-I 0 W/m 2,9 C 4,4 C 0,0 km/h (0 Bft)
06.05.2022 01:41 4,4 C 2,2 C 90 % 1026,8 hPa 0,0 l/m 0,0 km/h (0 Bft) N 0 0 min 0,0 UV-I 0 W/m 2,9 C 4,4 C 0,0 km/h (0 Bft)
06.05.2022 01:42 4,3 C 2,2 C 90 % 1026,8 hPa 0,0 l/m 0,0 km/h (0 Bft) N 0 0 min 0,0 UV-I 0 W/m 2,8 C 4,3 C 0,0 km/h (0 Bft)
06.05.2022 01:43 4,3 C 1,7 C 90 % 1026,8 hPa 0,0 l/m 0,0 km/h (0 Bft) N 0 0 min 0,0 UV-I 0 W/m 2,8 C 4,3 C 0,0 km/h (0 Bft)
06.05.2022 01:44 4,3 C 1,7 C 90 % 1026,8 hPa 0,0 l/m 0,0 km/h (0 Bft) N 0 0 min 0,0 UV-I 0 W/m 2,8 C 4,3 C 0,0 km/h (0 Bft)
06.05.2022 01:45 4,3 C 2,2 C 91 % 1026,8 hPa 0,0 l/m 0,0 km/h (0 Bft) N 0 0 min 0,0 UV-I 0 W/m 3,0 C 4,3 C 0,0 km/h (0 Bft)
06.05.2022 01:46 4,3 C 2,2 C 91 % 1026,8 hPa 0,0 l/m 0,0 km/h (0 Bft) N 0 0 min 0,0 UV-I 0 W/m 3,0 C 4,3 C 0,0 km/h (0 Bft)
06.05.2022 01:47 4,3 C 1,7 C 91 % 1026,8 hPa 0,0 l/m 0,0 km/h (0 Bft) N 0 0 min 0,0 UV-I 0 W/m 3,0 C 4,3 C 0,0 km/h (0 Bft)
06.05.2022 01:48 4,3 C 1,7 C 91 % 1027,4 hPa 0,0 l/m 0,0 km/h (0 Bft) N 0 0 min 0,0 UV-I 0 W/m 3,0 C 4,3 C 0,0 km/h (0 Bft)
06.05.2022 01:49 4,3 C 1,7 C 91 % 1026,8 hPa 0,0 l/m 0,0 km/h (0 Bft) N 0 0 min 0,0 UV-I 0 W/m 3,0 C 4,3 C 0,0 km/h (0 Bft)
06.05.2022 01:50 4,2 C 1,7 C 91 % 1026,9 hPa 0,0 l/m 0,0 km/h (0 Bft) N 0 0 min 0,0 UV-I 0 W/m 2,9 C 4,2 C 0,0 km/h (0 Bft)
06.05.2022 01:51 4,1 C 1,7 C 90 % 1026,8 hPa 0,0 l/m 0,0 km/h (0 Bft) N 0 0 min 0,0 UV-I 0 W/m 2,6 C 4,1 C 0,0 km/h (0 Bft)
06.05.2022 01:52 4,0 C 1,7 C 90 % 1026,9 hPa 0,0 l/m 0,0 km/h (0 Bft) N 0 0 min 0,0 UV-I 0 W/m 2,5 C 4,0 C 0,0 km/h (0 Bft)
06.05.2022 01:53 3,9 C 1,7 C 90 % 1026,8 hPa 0,0 l/m 0,0 km/h (0 Bft) N 0 0 min 0,0 UV-I 0 W/m 2,4 C 3,9 C 0,0 km/h (0 Bft)
06.05.2022 01:54 4,0 C 2,2 C 91 % 1026,8 hPa 0,0 l/m 0,0 km/h (0 Bft) N 0 0 min 0,0 UV-I 0 W/m 2,7 C 4,0 C 0,0 km/h (0 Bft)
06.05.2022 01:55 3,9 C 1,7 C 91 % 1026,8 hPa 0,0 l/m 0,0 km/h (0 Bft) N 0 0 min 0,0 UV-I 0 W/m 2,6 C 3,9 C 0,0 km/h (0 Bft)
06.05.2022 01:56 3,9 C 1,7 C 91 % 1026,8 hPa 0,0 l/m 0,0 km/h (0 Bft) N 0 0 min 0,0 UV-I 0 W/m 2,6 C 3,9 C 0,0 km/h (0 Bft)
06.05.2022 01:57 3,8 C 1,7 C 90 % 1026,9 hPa 0,0 l/m 0,0 km/h (0 Bft) N 0 0 min 0,0 UV-I 0 W/m 2,3 C 3,8 C 0,0 km/h (0 Bft)
06.05.2022 01:58 3,8 C 1,7 C 90 % 1026,9 hPa 0,0 l/m 0,0 km/h (0 Bft) N 0 0 min 0,0 UV-I 0 W/m 2,3 C 3,8 C 0,0 km/h (0 Bft)
06.05.2022 01:59 3,8 C 1,7 C 91 % 1026,9 hPa 0,0 l/m 0,0 km/h (0 Bft) N 0 0 min 0,0 UV-I 0 W/m 2,5 C 3,8 C 0,0 km/h (0 Bft)
06.05.2022 02:00 3,7 C 1,7 C 90 % 1026,8 hPa 0,0 l/m 0,0 km/h (0 Bft) N 0 0 min 0,0 UV-I 0 W/m 2,2 C 3,7 C 0,0 km/h (0 Bft)
06.05.2022 02:01 3,7 C 1,7 C 90 % 1026,9 hPa 0,0 l/m 0,0 km/h (0 Bft) N 0 0 min 0,0 UV-I 0 W/m 2,2 C 3,7 C 0,0 km/h (0 Bft)
06.05.2022 02:02 3,6 C 1,1 C 91 % 1026,8 hPa 0,0 l/m 0,0 km/h (0 Bft) N 0 0 min 0,0 UV-I 0 W/m 2,3 C 3,6 C 0,0 km/h (0 Bft)
06.05.2022 02:03 3,6 C 1,1 C 91 % 1026,8 hPa 0,0 l/m 0,0 km/h (0 Bft) N 0 0 min 0,0 UV-I 0 W/m 2,3 C 3,6 C 0,0 km/h (0 Bft)
06.05.2022 02:04 3,6 C 1,7 C 91 % 1026,8 hPa 0,0 l/m 0,0 km/h (0 Bft) N 0 0 min 0,0 UV-I 0 W/m 2,3 C 3,6 C 0,0 km/h (0 Bft)
06.05.2022 02:05 3,6 C 1,7 C 91 % 1026,9 hPa 0,0 l/m 0,0 km/h (0 Bft) N 0 0 min 0,0 UV-I 0 W/m 2,3 C 3,6 C 0,0 km/h (0 Bft)
06.05.2022 02:06 3,7 C 1,7 C 91 % 1026,8 hPa 0,0 l/m 0,0 km/h (0 Bft) N 0 0 min 0,0 UV-I 0 W/m 2,4 C 3,7 C 0,0 km/h (0 Bft)
06.05.2022 02:07 3,7 C 1,7 C 91 % 1026,8 hPa 0,0 l/m 0,0 km/h (0 Bft) N 360 0 min 0,0 UV-I 0 W/m 2,4 C 3,7 C 1,6 km/h (1 Bft)
06.05.2022 02:08 3,7 C 1,7 C 91 % 1026,7 hPa 0,0 l/m 0,0 km/h (0 Bft) N 360 0 min 0,0 UV-I 0 W/m 2,4 C 3,7 C 1,6 km/h (1 Bft)
06.05.2022 02:09 3,7 C 1,7 C 91 % 1026,8 hPa 0,0 l/m 0,0 km/h (0 Bft) N 360 0 min 0,0 UV-I 0 W/m 2,4 C 3,7 C 1,6 km/h (1 Bft)
06.05.2022 02:10 3,6 C 1,7 C 91 % 1026,8 hPa 0,0 l/m 1,6 km/h (1 Bft) N 360 0 min 0,0 UV-I 0 W/m 2,3 C 3,6 C 1,6 km/h (1 Bft)
06.05.2022 02:11 3,7 C 1,7 C 91 % 1026,8 hPa 0,0 l/m 1,6 km/h (1 Bft) N 360 0 min 0,0 UV-I 0 W/m 2,4 C 3,7 C 1,6 km/h (1 Bft)
06.05.2022 02:12 3,7 C 1,7 C 91 % 1026,8 hPa 0,0 l/m 1,6 km/h (1 Bft) N 360 0 min 0,0 UV-I 0 W/m 2,4 C 3,7 C 3,2 km/h (1 Bft)
06.05.2022 02:13 3,8 C 1,7 C 91 % 1026,8 hPa 0,0 l/m 1,6 km/h (1 Bft) N 360 0 min 0,0 UV-I 0 W/m 2,5 C 3,8 C 3,2 km/h (1 Bft)
06.05.2022 02:14 3,8 C 1,7 C 91 % 1026,8 hPa 0,0 l/m 0,0 km/h (0 Bft) N 360 0 min 0,0 UV-I 0 W/m 2,5 C 3,8 C 1,6 km/h (1 Bft)
06.05.2022 02:15 3,9 C 1,7 C 91 % 1026,7 hPa 0,0 l/m 0,0 km/h (0 Bft) N 360 0 min 0,0 UV-I 0 W/m 2,6 C 3,9 C 1,6 km/h (1 Bft)
06.05.2022 02:16 3,9 C 1,7 C 91 % 1026,8 hPa 0,0 l/m 1,6 km/h (1 Bft) N 360 0 min 0,0 UV-I 0 W/m 2,6 C 3,9 C 1,6 km/h (1 Bft)
06.05.2022 02:17 4,1 C 1,7 C 92 % 1026,7 hPa 0,0 l/m 0,0 km/h (0 Bft) N 360 0 min 0,0 UV-I 0 W/m 2,9 C 4,1 C 1,6 km/h (1 Bft)
06.05.2022 02:18 4,1 C 1,7 C 91 % 1026,8 hPa 0,0 l/m 1,6 km/h (1 Bft) N 360 0 min 0,0 UV-I 0 W/m 2,8 C 4,1 C 1,6 km/h (1 Bft)
06.05.2022 02:19 4,1 C 1,7 C 92 % 1026,7 hPa 0,0 l/m 0,0 km/h (0 Bft) N 360 0 min 0,0 UV-I 0 W/m 2,9 C 4,1 C 1,6 km/h (1 Bft)
06.05.2022 02:20 4,1 C 1,7 C 91 % 1026,8 hPa 0,0 l/m 0,0 km/h (0 Bft) N 0 0 min 0,0 UV-I 0 W/m 2,8 C 4,1 C 0,0 km/h (0 Bft)
06.05.2022 02:21 4,0 C 1,7 C 91 % 1026,8 hPa 0,0 l/m 0,0 km/h (0 Bft) N 0 0 min 0,0 UV-I 0 W/m 2,7 C 4,0 C 0,0 km/h (0 Bft)
06.05.2022 02:22 3,8 C 1,7 C 91 % 1026,8 hPa 0,0 l/m 0,0 km/h (0 Bft) N 0 0 min 0,0 UV-I 0 W/m 2,5 C 3,8 C 0,0 km/h (0 Bft)
06.05.2022 02:23 3,7 C 1,7 C 91 % 1026,8 hPa 0,0 l/m 0,0 km/h (0 Bft) N 0 0 min 0,0 UV-I 0 W/m 2,4 C 3,7 C 0,0 km/h (0 Bft)
06.05.2022 02:24 3,7 C 1,1 C 91 % 1026,7 hPa 0,0 l/m 0,0 km/h (0 Bft) N 0 0 min 0,0 UV-I 0 W/m 2,4 C 3,7 C 0,0 km/h (0 Bft)
06.05.2022 02:25 3,6 C 1,1 C 91 % 1026,9 hPa 0,0 l/m 0,0 km/h (0 Bft) N 0 0 min 0,0 UV-I 0 W/m 2,3 C 3,6 C 0,0 km/h (0 Bft)
06.05.2022 02:26 3,5 C 1,1 C 91 % 1026,9 hPa 0,0 l/m 0,0 km/h (0 Bft) N 0 0 min 0,0 UV-I 0 W/m 2,2 C 3,5 C 0,0 km/h (0 Bft)
06.05.2022 02:27 3,5 C 1,1 C 91 % 1026,8 hPa 0,0 l/m 0,0 km/h (0 Bft) N 0 0 min 0,0 UV-I 0 W/m 2,2 C 3,5 C 0,0 km/h (0 Bft)
06.05.2022 02:28 3,4 C 1,1 C 91 % 1026,8 hPa 0,0 l/m 0,0 km/h (0 Bft) N 0 0 min 0,0 UV-I 0 W/m 2,1 C 3,4 C 0,0 km/h (0 Bft)
06.05.2022 02:29 3,4 C 1,1 C 91 % 1026,8 hPa 0,0 l/m 0,0 km/h (0 Bft) N 0 0 min 0,0 UV-I 0 W/m 2,1 C 3,4 C 0,0 km/h (0 Bft)
06.05.2022 02:30 3,4 C 1,1 C 91 % 1026,8 hPa 0,0 l/m 0,0 km/h (0 Bft) N 0 0 min 0,0 UV-I 0 W/m 2,1 C 3,4 C 0,0 km/h (0 Bft)
06.05.2022 02:31 3,6 C 1,1 C 91 % 1026,9 hPa 0,0 l/m 0,0 km/h (0 Bft) N 0 0 min 0,0 UV-I 0 W/m 2,3 C 3,6 C 0,0 km/h (0 Bft)
06.05.2022 02:32 3,6 C 1,1 C 91 % 1026,9 hPa 0,0 l/m 0,0 km/h (0 Bft) N 0 0 min 0,0 UV-I 0 W/m 2,3 C 3,6 C 0,0 km/h (0 Bft)
06.05.2022 02:33 3,6 C 1,1 C 91 % 1026,8 hPa 0,0 l/m 0,0 km/h (0 Bft) N 0 0 min 0,0 UV-I 0 W/m 2,3 C 3,6 C 0,0 km/h (0 Bft)
06.05.2022 02:34 3,4 C 1,1 C 91 % 1026,9 hPa 0,0 l/m 0,0 km/h (0 Bft) N 0 0 min 0,0 UV-I 0 W/m 2,1 C 3,4 C 0,0 km/h (0 Bft)
06.05.2022 02:35 3,5 C 1,1 C 91 % 1026,8 hPa 0,0 l/m 0,0 km/h (0 Bft) N 0 0 min 0,0 UV-I 0 W/m 2,2 C 3,5 C 0,0 km/h (0 Bft)
06.05.2022 02:36 3,5 C 1,1 C 91 % 1026,8 hPa 0,0 l/m 0,0 km/h (0 Bft) N 360 0 min 0,0 UV-I 0 W/m 2,2 C 3,5 C 1,6 km/h (1 Bft)
06.05.2022 02:37 3,6 C 1,7 C 91 % 1026,8 hPa 0,0 l/m 1,6 km/h (1 Bft) N 360 0 min 0,0 UV-I 0 W/m 2,3 C 3,6 C 1,6 km/h (1 Bft)
06.05.2022 02:38 3,7 C 1,7 C 92 % 1026,8 hPa 0,0 l/m 0,0 km/h (0 Bft) N 360 0 min 0,0 UV-I 0 W/m 2,5 C 3,7 C 1,6 km/h (1 Bft)
06.05.2022 02:39 3,7 C 1,7 C 92 % 1026,8 hPa 0,0 l/m 0,0 km/h (0 Bft) N 0 0 min 0,0 UV-I 0 W/m 2,5 C 3,7 C 0,0 km/h (0 Bft)
06.05.2022 02:40 3,7 C 1,7 C 92 % 1026,8 hPa 0,0 l/m 0,0 km/h (0 Bft) N 0 0 min 0,0 UV-I 0 W/m 2,5 C 3,7 C 0,0 km/h (0 Bft)
06.05.2022 02:41 3,7 C 1,7 C 91 % 1026,8 hPa 0,0 l/m 0,0 km/h (0 Bft) N 360 0 min 0,0 UV-I 0 W/m 2,4 C 3,7 C 1,6 km/h (1 Bft)
06.05.2022 02:42 3,7 C 1,7 C 92 % 1026,8 hPa 0,0 l/m 0,0 km/h (0 Bft) N 0 0 min 0,0 UV-I 0 W/m 2,5 C 3,7 C 0,0 km/h (0 Bft)
06.05.2022 02:43 3,8 C 1,7 C 92 % 1026,9 hPa 0,0 l/m 0,0 km/h (0 Bft) N 0 0 min 0,0 UV-I 0 W/m 2,6 C 3,8 C 0,0 km/h (0 Bft)
06.05.2022 02:44 3,8 C 1,7 C 92 % 1026,9 hPa 0,0 l/m 0,0 km/h (0 Bft) N 0 0 min 0,0 UV-I 0 W/m 2,6 C 3,8 C 0,0 km/h (0 Bft)
06.05.2022 02:45 3,8 C 1,7 C 92 % 1026,8 hPa 0,0 l/m 0,0 km/h (0 Bft) N 0 0 min 0,0 UV-I 0 W/m 2,6 C 3,8 C 0,0 km/h (0 Bft)
06.05.2022 02:46 3,8 C 1,1 C 92 % 1026,7 hPa 0,0 l/m 0,0 km/h (0 Bft) N 0 0 min 0,0 UV-I 0 W/m 2,6 C 3,8 C 0,0 km/h (0 Bft)
06.05.2022 02:47 3,9 C 1,1 C 92 % 1026,8 hPa 0,0 l/m 0,0 km/h (0 Bft) N 0 0 min 0,0 UV-I 0 W/m 2,7 C 3,9 C 0,0 km/h (0 Bft)
06.05.2022 02:48 3,9 C 1,7 C 92 % 1026,8 hPa 0,0 l/m 0,0 km/h (0 Bft) N 0 0 min 0,0 UV-I 0 W/m 2,7 C 3,9 C 0,0 km/h (0 Bft)
06.05.2022 02:49 4,0 C 1,7 C 92 % 1026,9 hPa 0,0 l/m 0,0 km/h (0 Bft) N 0 0 min 0,0 UV-I 0 W/m 2,8 C 4,0 C 0,0 km/h (0 Bft)
06.05.2022 02:50 4,0 C 1,7 C 92 % 1026,9 hPa 0,0 l/m 0,0 km/h (0 Bft) N 0 0 min 0,0 UV-I 0 W/m 2,8 C 4,0 C 0,0 km/h (0 Bft)
06.05.2022 02:51 4,0 C 1,7 C 92 % 1026,8 hPa 0,0 l/m 0,0 km/h (0 Bft) N 0 0 min 0,0 UV-I 0 W/m 2,8 C 4,0 C 0,0 km/h (0 Bft)
06.05.2022 02:52 3,9 C 1,7 C 92 % 1026,8 hPa 0,0 l/m 0,0 km/h (0 Bft) N 0 0 min 0,0 UV-I 0 W/m 2,7 C 3,9 C 0,0 km/h (0 Bft)
06.05.2022 02:53 3,9 C 1,7 C 91 % 1026,9 hPa 0,0 l/m 0,0 km/h (0 Bft) N 0 0 min 0,0 UV-I 0 W/m 2,6 C 3,9 C 0,0 km/h (0 Bft)
06.05.2022 02:54 3,8 C 1,7 C 91 % 1026,9 hPa 0,0 l/m 0,0 km/h (0 Bft) N 0 0 min 0,0 UV-I 0 W/m 2,5 C 3,8 C 0,0 km/h (0 Bft)
06.05.2022 02:55 3,8 C 1,1 C 91 % 1027,0 hPa 0,0 l/m 0,0 km/h (0 Bft) N 0 0 min 0,0 UV-I 0 W/m 2,5 C 3,8 C 0,0 km/h (0 Bft)
06.05.2022 02:56 3,8 C 1,1 C 91 % 1026,8 hPa 0,0 l/m 0,0 km/h (0 Bft) N 0 0 min 0,0 UV-I 0 W/m 2,5 C 3,8 C 0,0 km/h (0 Bft)
06.05.2022 02:57 3,7 C 1,1 C 92 % 1026,8 hPa 0,0 l/m 0,0 km/h (0 Bft) N 0 0 min 0,0 UV-I 0 W/m 2,5 C 3,7 C 0,0 km/h (0 Bft)
06.05.2022 02:58 3,7 C 1,1 C 92 % 1026,8 hPa 0,0 l/m 0,0 km/h (0 Bft) N 0 0 min 0,0 UV-I 0 W/m 2,5 C 3,7 C 0,0 km/h (0 Bft)
06.05.2022 02:59 3,6 C 1,1 C 91 % 1026,8 hPa 0,0 l/m 0,0 km/h (0 Bft) N 0 0 min 0,0 UV-I 0 W/m 2,3 C 3,6 C 0,0 km/h (0 Bft)
06.05.2022 03:00 3,5 C 1,1 C 91 % 1026,9 hPa 0,0 l/m 0,0 km/h (0 Bft) N 0 0 min 0,0 UV-I 0 W/m 2,2 C 3,5 C 0,0 km/h (0 Bft)
06.05.2022 03:01 3,5 C 1,1 C 91 % 1026,8 hPa 0,0 l/m 0,0 km/h (0 Bft) N 0 0 min 0,0 UV-I 0 W/m 2,2 C 3,5 C 0,0 km/h (0 Bft)
06.05.2022 03:02 3,5 C 1,1 C 91 % 1026,8 hPa 0,0 l/m 0,0 km/h (0 Bft) N 0 0 min 0,0 UV-I 0 W/m 2,2 C 3,5 C 0,0 km/h (0 Bft)
06.05.2022 03:03 3,5 C 1,1 C 92 % 1026,9 hPa 0,0 l/m 0,0 km/h (0 Bft) N 0 0 min 0,0 UV-I 0 W/m 2,3 C 3,5 C 0,0 km/h (0 Bft)
06.05.2022 03:04 3,6 C 1,1 C 92 % 1026,9 hPa 0,0 l/m 0,0 km/h (0 Bft) N 0 0 min 0,0 UV-I 0 W/m 2,4 C 3,6 C 0,0 km/h (0 Bft)
06.05.2022 03:05 3,6 C 1,1 C 92 % 1026,9 hPa 0,0 l/m 0,0 km/h (0 Bft) N 0 0 min 0,0 UV-I 0 W/m 2,4 C 3,6 C 0,0 km/h (0 Bft)
06.05.2022 03:06 3,8 C 1,7 C 92 % 1026,9 hPa 0,0 l/m 0,0 km/h (0 Bft) N 360 0 min 0,0 UV-I 0 W/m 2,6 C 3,8 C 1,6 km/h (1 Bft)
06.05.2022 03:07 3,8 C 1,1 C 92 % 1026,9 hPa 0,0 l/m 0,0 km/h (0 Bft) N 0 0 min 0,0 UV-I 0 W/m 2,6 C 3,8 C 0,0 km/h (0 Bft)
06.05.2022 03:08 3,8 C 1,7 C 92 % 1026,8 hPa 0,0 l/m 1,6 km/h (1 Bft) N 360 0 min 0,0 UV-I 0 W/m 2,6 C 3,8 C 1,6 km/h (1 Bft)
06.05.2022 03:09 3,8 C 1,7 C 92 % 1026,9 hPa 0,0 l/m 0,0 km/h (0 Bft) N 360 0 min 0,0 UV-I 0 W/m 2,6 C 3,8 C 1,6 km/h (1 Bft)
06.05.2022 03:10 3,8 C 1,7 C 92 % 1026,9 hPa 0,0 l/m 0,0 km/h (0 Bft) N 0 0 min 0,0 UV-I 0 W/m 2,6 C 3,8 C 0,0 km/h (0 Bft)
06.05.2022 03:11 3,8 C 1,1 C 92 % 1026,8 hPa 0,0 l/m 0,0 km/h (0 Bft) N 0 0 min 0,0 UV-I 0 W/m 2,6 C 3,8 C 0,0 km/h (0 Bft)
06.05.2022 03:12 3,9 C 1,1 C 92 % 1026,9 hPa 0,0 l/m 0,0 km/h (0 Bft) N 0 0 min 0,0 UV-I 0 W/m 2,7 C 3,9 C 0,0 km/h (0 Bft)
06.05.2022 03:13 3,8 C 1,7 C 92 % 1026,9 hPa 0,0 l/m 0,0 km/h (0 Bft) N 0 0 min 0,0 UV-I 0 W/m 2,6 C 3,8 C 0,0 km/h (0 Bft)
06.05.2022 03:14 3,7 C 1,1 C 92 % 1026,9 hPa 0,0 l/m 0,0 km/h (0 Bft) N 0 0 min 0,0 UV-I 0 W/m 2,5 C 3,7 C 0,0 km/h (0 Bft)
06.05.2022 03:15 3,7 C 1,7 C 92 % 1026,9 hPa 0,0 l/m 0,0 km/h (0 Bft) N 0 0 min 0,0 UV-I 0 W/m 2,5 C 3,7 C 0,0 km/h (0 Bft)
06.05.2022 03:16 3,8 C 1,7 C 92 % 1026,9 hPa 0,0 l/m 0,0 km/h (0 Bft) N 0 0 min 0,0 UV-I 0 W/m 2,6 C 3,8 C 0,0 km/h (0 Bft)
06.05.2022 03:17 3,7 C 1,7 C 92 % 1026,9 hPa 0,0 l/m 0,0 km/h (0 Bft) N 0 0 min 0,0 UV-I 0 W/m 2,5 C 3,7 C 0,0 km/h (0 Bft)
06.05.2022 03:18 3,6 C 1,7 C 92 % 1026,8 hPa 0,0 l/m 0,0 km/h (0 Bft) N 0 0 min 0,0 UV-I 0 W/m 2,4 C 3,6 C 0,0 km/h (0 Bft)
06.05.2022 03:19 3,6 C 1,7 C 92 % 1026,9 hPa 0,0 l/m 0,0 km/h (0 Bft) N 0 0 min 0,0 UV-I 0 W/m 2,4 C 3,6 C 0,0 km/h (0 Bft)
06.05.2022 03:20 3,7 C 1,7 C 92 % 1026,8 hPa 0,0 l/m 0,0 km/h (0 Bft) N 0 0 min 0,0 UV-I 0 W/m 2,5 C 3,7 C 0,0 km/h (0 Bft)
06.05.2022 03:21 3,7 C 1,7 C 92 % 1026,9 hPa 0,0 l/m 0,0 km/h (0 Bft) N 0 0 min 0,0 UV-I 0 W/m 2,5 C 3,7 C 0,0 km/h (0 Bft)
06.05.2022 03:22 3,7 C 1,1 C 92 % 1026,8 hPa 0,0 l/m 0,0 km/h (0 Bft) N 0 0 min 0,0 UV-I 0 W/m 2,5 C 3,7 C 0,0 km/h (0 Bft)
06.05.2022 03:23 3,7 C 1,1 C 92 % 1026,8 hPa 0,0 l/m 0,0 km/h (0 Bft) N 0 0 min 0,0 UV-I 0 W/m 2,5 C 3,7 C 0,0 km/h (0 Bft)
06.05.2022 03:24 3,6 C 1,1 C 92 % 1026,8 hPa 0,0 l/m 0,0 km/h (0 Bft) N 0 0 min 0,0 UV-I 0 W/m 2,4 C 3,6 C 0,0 km/h (0 Bft)
06.05.2022 03:25 3,4 C 1,1 C 91 % 1026,8 hPa 0,0 l/m 0,0 km/h (0 Bft) N 0 0 min 0,0 UV-I 0 W/m 2,1 C 3,4 C 0,0 km/h (0 Bft)
06.05.2022 03:26 3,3 C 1,1 C 91 % 1026,8 hPa 0,0 l/m 0,0 km/h (0 Bft) N 0 0 min 0,0 UV-I 0 W/m 2,0 C 3,3 C 0,0 km/h (0 Bft)
06.05.2022 03:27 3,2 C 1,1 C 91 % 1026,8 hPa 0,0 l/m 0,0 km/h (0 Bft) N 0 0 min 0,0 UV-I 0 W/m 1,9 C 3,2 C 0,0 km/h (0 Bft)
06.05.2022 03:28 3,2 C 1,1 C 91 % 1026,9 hPa 0,0 l/m 0,0 km/h (0 Bft) N 0 0 min 0,0 UV-I 0 W/m 1,9 C 3,2 C 0,0 km/h (0 Bft)
06.05.2022 03:29 3,2 C 1,1 C 92 % 1026,8 hPa 0,0 l/m 0,0 km/h (0 Bft) N 0 0 min 0,0 UV-I 0 W/m 2,0 C 3,2 C 0,0 km/h (0 Bft)
06.05.2022 03:30 3,2 C 1,1 C 92 % 1026,8 hPa 0,0 l/m 0,0 km/h (0 Bft) N 0 0 min 0,0 UV-I 0 W/m 2,0 C 3,2 C 0,0 km/h (0 Bft)
06.05.2022 03:31 3,3 C 1,1 C 92 % 1026,9 hPa 0,0 l/m 0,0 km/h (0 Bft) N 0 0 min 0,0 UV-I 0 W/m 2,1 C 3,3 C 0,0 km/h (0 Bft)
06.05.2022 03:32 3,3 C 1,1 C 92 % 1026,8 hPa 0,0 l/m 0,0 km/h (0 Bft) N 0 0 min 0,0 UV-I 0 W/m 2,1 C 3,3 C 0,0 km/h (0 Bft)
06.05.2022 03:33 3,4 C 1,1 C 92 % 1026,8 hPa 0,0 l/m 0,0 km/h (0 Bft) N 0 0 min 0,0 UV-I 0 W/m 2,2 C 3,4 C 0,0 km/h (0 Bft)
06.05.2022 03:34 3,4 C 1,1 C 92 % 1026,8 hPa 0,0 l/m 0,0 km/h (0 Bft) N 0 0 min 0,0 UV-I 0 W/m 2,2 C 3,4 C 0,0 km/h (0 Bft)
06.05.2022 03:35 3,4 C 1,1 C 92 % 1026,8 hPa 0,0 l/m 0,0 km/h (0 Bft) N 0 0 min 0,0 UV-I 0 W/m 2,2 C 3,4 C 0,0 km/h (0 Bft)
06.05.2022 03:36 3,5 C 1,1 C 92 % 1026,8 hPa 0,0 l/m 0,0 km/h (0 Bft) N 0 0 min 0,0 UV-I 0 W/m 2,3 C 3,5 C 0,0 km/h (0 Bft)
06.05.2022 03:37 3,4 C 1,1 C 92 % 1026,9 hPa 0,0 l/m 0,0 km/h (0 Bft) N 0 0 min 0,0 UV-I 0 W/m 2,2 C 3,4 C 0,0 km/h (0 Bft)
06.05.2022 03:38 3,4 C 1,1 C 92 % 1026,9 hPa 0,0 l/m 0,0 km/h (0 Bft) N 0 0 min 0,0 UV-I 0 W/m 2,2 C 3,4 C 0,0 km/h (0 Bft)
06.05.2022 03:39 3,3 C 1,1 C 92 % 1026,9 hPa 0,0 l/m 0,0 km/h (0 Bft) N 0 0 min 0,0 UV-I 0 W/m 2,1 C 3,3 C 0,0 km/h (0 Bft)
06.05.2022 03:40 3,3 C 1,1 C 92 % 1026,9 hPa 0,0 l/m 0,0 km/h (0 Bft) N 0 0 min 0,0 UV-I 0 W/m 2,1 C 3,3 C 0,0 km/h (0 Bft)
06.05.2022 03:41 3,3 C 1,1 C 92 % 1026,8 hPa 0,0 l/m 0,0 km/h (0 Bft) N 0 0 min 0,0 UV-I 0 W/m 2,1 C 3,3 C 0,0 km/h (0 Bft)
06.05.2022 03:42 3,3 C 1,1 C 92 % 1026,8 hPa 0,0 l/m 0,0 km/h (0 Bft) N 360 0 min 0,0 UV-I 0 W/m 2,1 C 3,3 C 1,6 km/h (1 Bft)
06.05.2022 03:43 3,4 C 1,1 C 92 % 1026,9 hPa 0,0 l/m 0,0 km/h (0 Bft) N 360 0 min 0,0 UV-I 0 W/m 2,2 C 3,4 C 1,6 km/h (1 Bft)
06.05.2022 03:44 3,4 C 1,1 C 92 % 1026,9 hPa 0,0 l/m 1,6 km/h (1 Bft) N 360 0 min 0,0 UV-I 0 W/m 2,2 C 3,4 C 1,6 km/h (1 Bft)
06.05.2022 03:45 3,3 C 1,1 C 92 % 1026,9 hPa 0,0 l/m 1,6 km/h (1 Bft) N 360 0 min 0,0 UV-I 0 W/m 2,1 C 3,3 C 1,6 km/h (1 Bft)
06.05.2022 03:46 3,3 C 1,1 C 92 % 1026,9 hPa 0,0 l/m 0,0 km/h (0 Bft) N 360 0 min 0,0 UV-I 0 W/m 2,1 C 3,3 C 1,6 km/h (1 Bft)
06.05.2022 03:47 3,3 C 1,1 C 92 % 1026,9 hPa 0,0 l/m 1,6 km/h (1 Bft) N 360 0 min 0,0 UV-I 0 W/m 2,1 C 3,3 C 1,6 km/h (1 Bft)
06.05.2022 03:48 3,3 C 1,1 C 92 % 1026,9 hPa 0,0 l/m 1,6 km/h (1 Bft) N 360 0 min 0,0 UV-I 0 W/m 2,1 C 3,3 C 1,6 km/h (1 Bft)
06.05.2022 03:49 3,3 C 0,6 C 92 % 1027,0 hPa 0,0 l/m 1,6 km/h (1 Bft) N 360 0 min 0,0 UV-I 0 W/m 2,1 C 3,3 C 1,6 km/h (1 Bft)
06.05.2022 03:50 3,3 C 0,6 C 92 % 1026,9 hPa 0,0 l/m 0,0 km/h (0 Bft) N 0 0 min 0,0 UV-I 0 W/m 2,1 C 3,3 C 0,0 km/h (0 Bft)
06.05.2022 03:51 3,2 C 0,6 C 92 % 1026,9 hPa 0,0 l/m 0,0 km/h (0 Bft) N 0 0 min 0,0 UV-I 0 W/m 2,0 C 3,2 C 0,0 km/h (0 Bft)
06.05.2022 03:52 3,1 C 0,6 C 92 % 1026,9 hPa 0,0 l/m 0,0 km/h (0 Bft) N 0 0 min 0,0 UV-I 0 W/m 1,9 C 3,1 C 0,0 km/h (0 Bft)
06.05.2022 03:53 3,1 C 0,6 C 92 % 1026,9 hPa 0,0 l/m 0,0 km/h (0 Bft) N 0 0 min 0,0 UV-I 0 W/m 1,9 C 3,1 C 0,0 km/h (0 Bft)
06.05.2022 03:54 3,1 C 0,6 C 92 % 1026,8 hPa 0,0 l/m 0,0 km/h (0 Bft) N 0 0 min 0,0 UV-I 0 W/m 1,9 C 3,1 C 0,0 km/h (0 Bft)
06.05.2022 03:55 3,0 C 0,0 C 92 % 1026,9 hPa 0,0 l/m 0,0 km/h (0 Bft) N 0 0 min 0,0 UV-I 0 W/m 1,8 C 3,0 C 0,0 km/h (0 Bft)
06.05.2022 03:56 3,0 C 0,6 C 92 % 1026,9 hPa 0,0 l/m 0,0 km/h (0 Bft) N 0 0 min 0,0 UV-I 0 W/m 1,8 C 3,0 C 0,0 km/h (0 Bft)
06.05.2022 03:57 3,0 C 0,6 C 92 % 1026,9 hPa 0,0 l/m 0,0 km/h (0 Bft) N 0 0 min 0,0 UV-I 0 W/m 1,8 C 3,0 C 0,0 km/h (0 Bft)
06.05.2022 03:58 2,9 C 0,6 C 92 % 1026,9 hPa 0,0 l/m 0,0 km/h (0 Bft) N 0 0 min 0,0 UV-I 0 W/m 1,7 C 2,9 C 0,0 km/h (0 Bft)
06.05.2022 03:59 2,9 C 0,6 C 92 % 1026,9 hPa 0,0 l/m 0,0 km/h (0 Bft) N 0 0 min 0,0 UV-I 0 W/m 1,7 C 2,9 C 0,0 km/h (0 Bft)
06.05.2022 04:00 2,8 C 0,6 C 92 % 1026,8 hPa 0,0 l/m 0,0 km/h (0 Bft) N 0 0 min 0,0 UV-I 0 W/m 1,6 C 2,8 C 0,0 km/h (0 Bft)
06.05.2022 04:01 2,8 C 0,6 C 92 % 1026,9 hPa 0,0 l/m 0,0 km/h (0 Bft) N 0 0 min 0,0 UV-I 0 W/m 1,6 C 2,8 C 0,0 km/h (0 Bft)
06.05.2022 04:02 2,9 C 0,6 C 92 % 1026,8 hPa 0,0 l/m 0,0 km/h (0 Bft) N 0 0 min 0,0 UV-I 0 W/m 1,7 C 2,9 C 0,0 km/h (0 Bft)
06.05.2022 04:03 2,9 C 0,6 C 92 % 1026,8 hPa 0,0 l/m 0,0 km/h (0 Bft) N 0 0 min 0,0 UV-I 0 W/m 1,7 C 2,9 C 0,0 km/h (0 Bft)
06.05.2022 04:04 2,9 C 0,6 C 92 % 1026,8 hPa 0,0 l/m 0,0 km/h (0 Bft) N 0 0 min 0,0 UV-I 0 W/m 1,7 C 2,9 C 0,0 km/h (0 Bft)
06.05.2022 04:05 3,0 C 0,6 C 92 % 1026,8 hPa 0,0 l/m 0,0 km/h (0 Bft) N 0 0 min 0,0 UV-I 0 W/m 1,8 C 3,0 C 0,0 km/h (0 Bft)
06.05.2022 04:06 3,1 C 0,6 C 92 % 1026,8 hPa 0,0 l/m 0,0 km/h (0 Bft) N 0 0 min 0,0 UV-I 0 W/m 1,9 C 3,1 C 0,0 km/h (0 Bft)
06.05.2022 04:07 3,1 C 0,6 C 92 % 1026,8 hPa 0,0 l/m 0,0 km/h (0 Bft) N 0 0 min 0,0 UV-I 0 W/m 1,9 C 3,1 C 0,0 km/h (0 Bft)
06.05.2022 04:08 3,1 C 0,6 C 92 % 1026,9 hPa 0,0 l/m 0,0 km/h (0 Bft) N 0 0 min 0,0 UV-I 0 W/m 1,9 C 3,1 C 0,0 km/h (0 Bft)
06.05.2022 04:09 3,1 C 0,6 C 92 % 1026,8 hPa 0,0 l/m 0,0 km/h (0 Bft) N 0 0 min 0,0 UV-I 0 W/m 1,9 C 3,1 C 0,0 km/h (0 Bft)
06.05.2022 04:10 3,1 C 0,6 C 92 % 1026,8 hPa 0,0 l/m 0,0 km/h (0 Bft) N 0 0 min 0,0 UV-I 0 W/m 1,9 C 3,1 C 0,0 km/h (0 Bft)
06.05.2022 04:11 3,1 C 0,6 C 92 % 1026,8 hPa 0,0 l/m 0,0 km/h (0 Bft) N 0 0 min 0,0 UV-I 0 W/m 1,9 C 3,1 C 0,0 km/h (0 Bft)
06.05.2022 04:12 3,1 C 0,6 C 92 % 1026,8 hPa 0,0 l/m 0,0 km/h (0 Bft) N 0 0 min 0,0 UV-I 0 W/m 1,9 C 3,1 C 0,0 km/h (0 Bft)
06.05.2022 04:13 3,1 C 0,6 C 92 % 1026,8 hPa 0,0 l/m 0,0 km/h (0 Bft) N 0 0 min 0,0 UV-I 0 W/m 1,9 C 3,1 C 0,0 km/h (0 Bft)
06.05.2022 04:14 3,1 C 1,1 C 92 % 1026,8 hPa 0,0 l/m 0,0 km/h (0 Bft) N 0 0 min 0,0 UV-I 0 W/m 1,9 C 3,1 C 0,0 km/h (0 Bft)
06.05.2022 04:15 3,1 C 1,1 C 92 % 1026,9 hPa 0,0 l/m 0,0 km/h (0 Bft) N 0 0 min 0,0 UV-I 0 W/m 1,9 C 3,1 C 0,0 km/h (0 Bft)
06.05.2022 04:16 3,1 C 1,1 C 92 % 1026,9 hPa 0,0 l/m 0,0 km/h (0 Bft) N 0 0 min 0,0 UV-I 0 W/m 1,9 C 3,1 C 0,0 km/h (0 Bft)
06.05.2022 04:17 2,9 C 1,1 C 92 % 1026,8 hPa 0,0 l/m 0,0 km/h (0 Bft) N 0 0 min 0,0 UV-I 0 W/m 1,7 C 2,9 C 0,0 km/h (0 Bft)
06.05.2022 04:18 2,9 C 0,6 C 92 % 1026,8 hPa 0,0 l/m 0,0 km/h (0 Bft) N 0 0 min 0,0 UV-I 0 W/m 1,7 C 2,9 C 0,0 km/h (0 Bft)
06.05.2022 04:19 2,8 C 0,6 C 92 % 1026,8 hPa 0,0 l/m 0,0 km/h (0 Bft) N 0 0 min 0,0 UV-I 0 W/m 1,6 C 2,8 C 0,0 km/h (0 Bft)
06.05.2022 04:20 2,9 C 0,6 C 92 % 1026,8 hPa 0,0 l/m 0,0 km/h (0 Bft) N 0 0 min 0,0 UV-I 0 W/m 1,7 C 2,9 C 0,0 km/h (0 Bft)
06.05.2022 04:21 2,9 C 0,6 C 92 % 1026,8 hPa 0,0 l/m 0,0 km/h (0 Bft) N 0 0 min 0,0 UV-I 0 W/m 1,7 C 2,9 C 0,0 km/h (0 Bft)
06.05.2022 04:22 2,9 C 0,6 C 92 % 1026,8 hPa 0,0 l/m 0,0 km/h (0 Bft) N 0 0 min 0,0 UV-I 0 W/m 1,7 C 2,9 C 0,0 km/h (0 Bft)
06.05.2022 04:23 2,8 C 0,6 C 92 % 1026,7 hPa 0,0 l/m 0,0 km/h (0 Bft) N 0 0 min 0,0 UV-I 0 W/m 1,6 C 2,8 C 0,0 km/h (0 Bft)
06.05.2022 04:24 2,8 C 0,6 C 92 % 1026,8 hPa 0,0 l/m 0,0 km/h (0 Bft) N 0 0 min 0,0 UV-I 0 W/m 1,6 C 2,8 C 0,0 km/h (0 Bft)
06.05.2022 04:25 2,8 C 0,6 C 92 % 1026,8 hPa 0,0 l/m 0,0 km/h (0 Bft) N 0 0 min 0,0 UV-I 0 W/m 1,6 C 2,8 C 0,0 km/h (0 Bft)
06.05.2022 04:26 2,7 C 0,6 C 92 % 1026,7 hPa 0,0 l/m 0,0 km/h (0 Bft) N 360 0 min 0,0 UV-I 0 W/m 1,5 C 2,7 C 1,6 km/h (1 Bft)
06.05.2022 04:27 2,6 C 0,6 C 92 % 1026,7 hPa 0,0 l/m 0,0 km/h (0 Bft) N 0 0 min 0,0 UV-I 0 W/m 1,4 C 2,6 C 0,0 km/h (0 Bft)
06.05.2022 04:28 2,5 C 0,6 C 92 % 1026,7 hPa 0,0 l/m 0,0 km/h (0 Bft) N 0 0 min 0,0 UV-I 0 W/m 1,3 C 2,5 C 0,0 km/h (0 Bft)
06.05.2022 04:29 2,4 C 0,6 C 92 % 1026,7 hPa 0,0 l/m 0,0 km/h (0 Bft) N 0 0 min 0,0 UV-I 0 W/m 1,2 C 2,4 C 0,0 km/h (0 Bft)
06.05.2022 04:30 2,5 C 0,0 C 92 % 1026,7 hPa 0,0 l/m 0,0 km/h (0 Bft) N 0 0 min 0,0 UV-I 0 W/m 1,3 C 2,5 C 0,0 km/h (0 Bft)
06.05.2022 04:31 2,5 C 0,0 C 92 % 1026,8 hPa 0,0 l/m 0,0 km/h (0 Bft) N 0 0 min 0,0 UV-I 0 W/m 1,3 C 2,5 C 0,0 km/h (0 Bft)
06.05.2022 04:32 2,6 C 0,0 C 92 % 1026,7 hPa 0,0 l/m 0,0 km/h (0 Bft) N 0 0 min 0,0 UV-I 0 W/m 1,4 C 2,6 C 0,0 km/h (0 Bft)
06.05.2022 04:33 2,5 C 0,0 C 92 % 1026,7 hPa 0,0 l/m 0,0 km/h (0 Bft) N 0 0 min 0,0 UV-I 0 W/m 1,3 C 2,5 C 0,0 km/h (0 Bft)
06.05.2022 04:34 2,5 C 0,0 C 92 % 1026,7 hPa 0,0 l/m 0,0 km/h (0 Bft) N 0 0 min 0,0 UV-I 0 W/m 1,3 C 2,5 C 0,0 km/h (0 Bft)
06.05.2022 04:35 2,5 C 0,0 C 92 % 1026,7 hPa 0,0 l/m 0,0 km/h (0 Bft) N 0 0 min 0,0 UV-I 0 W/m 1,3 C 2,5 C 0,0 km/h (0 Bft)
06.05.2022 04:36 2,5 C 0,0 C 92 % 1026,7 hPa 0,0 l/m 0,0 km/h (0 Bft) N 360 0 min 0,0 UV-I 0 W/m 1,3 C 2,5 C 1,6 km/h (1 Bft)
06.05.2022 04:37 2,5 C 0,6 C 92 % 1026,7 hPa 0,0 l/m 0,0 km/h (0 Bft) N 360 0 min 0,0 UV-I 0 W/m 1,3 C 2,5 C 1,6 km/h (1 Bft)
06.05.2022 04:38 2,5 C 0,6 C 92 % 1026,7 hPa 0,0 l/m 0,0 km/h (0 Bft) N 360 0 min 0,0 UV-I 0 W/m 1,3 C 2,5 C 1,6 km/h (1 Bft)
06.05.2022 04:39 2,4 C 0,6 C 92 % 1026,7 hPa 0,0 l/m 0,0 km/h (0 Bft) N 360 0 min 0,0 UV-I 0 W/m 1,2 C 2,4 C 1,6 km/h (1 Bft)
06.05.2022 04:40 2,4 C 0,6 C 92 % 1026,7 hPa 0,0 l/m 0,0 km/h (0 Bft) N 0 0 min 0,0 UV-I 0 W/m 1,2 C 2,4 C 0,0 km/h (0 Bft)
06.05.2022 04:41 2,4 C 0,0 C 92 % 1026,7 hPa 0,0 l/m 0,0 km/h (0 Bft) N 0 0 min 0,0 UV-I 0 W/m 1,2 C 2,4 C 0,0 km/h (0 Bft)
06.05.2022 04:42 2,4 C 0,0 C 92 % 1026,7 hPa 0,0 l/m 0,0 km/h (0 Bft) N 0 0 min 0,0 UV-I 0 W/m 1,2 C 2,4 C 0,0 km/h (0 Bft)
06.05.2022 04:43 2,5 C 0,6 C 92 % 1026,7 hPa 0,0 l/m 0,0 km/h (0 Bft) N 0 0 min 0,0 UV-I 0 W/m 1,3 C 2,5 C 0,0 km/h (0 Bft)
06.05.2022 04:44 2,6 C 0,6 C 93 % 1026,8 hPa 0,0 l/m 0,0 km/h (0 Bft) N 0 0 min 0,0 UV-I 0 W/m 1,6 C 2,6 C 0,0 km/h (0 Bft)
06.05.2022 04:45 2,7 C 0,6 C 93 % 1026,7 hPa 0,0 l/m 0,0 km/h (0 Bft) N 0 0 min 0,0 UV-I 0 W/m 1,7 C 2,7 C 0,0 km/h (0 Bft)
06.05.2022 04:46 2,9 C 0,6 C 93 % 1026,8 hPa 0,0 l/m 0,0 km/h (0 Bft) N 0 0 min 0,0 UV-I 0 W/m 1,9 C 2,9 C 0,0 km/h (0 Bft)
06.05.2022 04:47 2,9 C 0,6 C 93 % 1026,7 hPa 0,0 l/m 0,0 km/h (0 Bft) N 0 0 min 0,0 UV-I 0 W/m 1,9 C 2,9 C 0,0 km/h (0 Bft)
06.05.2022 04:48 2,9 C 0,6 C 93 % 1026,7 hPa 0,0 l/m 0,0 km/h (0 Bft) N 0 0 min 0,0 UV-I 0 W/m 1,9 C 2,9 C 0,0 km/h (0 Bft)
06.05.2022 04:49 2,9 C 0,6 C 93 % 1026,6 hPa 0,0 l/m 0,0 km/h (0 Bft) N 0 0 min 0,0 UV-I 0 W/m 1,9 C 2,9 C 0,0 km/h (0 Bft)
06.05.2022 04:50 2,8 C 0,6 C 92 % 1026,7 hPa 0,0 l/m 0,0 km/h (0 Bft) N 0 0 min 0,0 UV-I 0 W/m 1,6 C 2,8 C 0,0 km/h (0 Bft)
06.05.2022 04:51 2,8 C 0,6 C 92 % 1026,6 hPa 0,0 l/m 0,0 km/h (0 Bft) N 0 0 min 0,0 UV-I 0 W/m 1,6 C 2,8 C 0,0 km/h (0 Bft)
06.05.2022 04:52 2,8 C 0,6 C 92 % 1026,7 hPa 0,0 l/m 0,0 km/h (0 Bft) N 0 0 min 0,0 UV-I 0 W/m 1,6 C 2,8 C 0,0 km/h (0 Bft)
06.05.2022 04:53 2,8 C 0,0 C 92 % 1026,6 hPa 0,0 l/m 0,0 km/h (0 Bft) N 0 0 min 0,0 UV-I 0 W/m 1,6 C 2,8 C 0,0 km/h (0 Bft)
06.05.2022 04:54 2,7 C 0,0 C 92 % 1026,6 hPa 0,0 l/m 0,0 km/h (0 Bft) N 0 0 min 0,0 UV-I 0 W/m 1,5 C 2,7 C 0,0 km/h (0 Bft)
06.05.2022 04:55 2,7 C 0,0 C 92 % 1026,6 hPa 0,0 l/m 0,0 km/h (0 Bft) N 0 0 min 0,0 UV-I 0 W/m 1,5 C 2,7 C 0,0 km/h (0 Bft)
06.05.2022 04:56 2,7 C 0,0 C 92 % 1026,7 hPa 0,0 l/m 0,0 km/h (0 Bft) N 0 0 min 0,0 UV-I 0 W/m 1,5 C 2,7 C 0,0 km/h (0 Bft)
06.05.2022 04:57 2,8 C 0,0 C 92 % 1026,6 hPa 0,0 l/m 0,0 km/h (0 Bft) N 0 0 min 0,0 UV-I 0 W/m 1,6 C 2,8 C 0,0 km/h (0 Bft)
06.05.2022 04:58 2,8 C 0,6 C 92 % 1026,6 hPa 0,0 l/m 0,0 km/h (0 Bft) N 0 0 min 0,0 UV-I 0 W/m 1,6 C 2,8 C 0,0 km/h (0 Bft)
06.05.2022 04:59 2,9 C 0,6 C 93 % 1026,6 hPa 0,0 l/m 0,0 km/h (0 Bft) N 0 0 min 0,0 UV-I 0 W/m 1,9 C 2,9 C 0,0 km/h (0 Bft)
06.05.2022 05:00 2,8 C 0,6 C 92 % 1026,5 hPa 0,0 l/m 0,0 km/h (0 Bft) N 0 0 min 0,0 UV-I 0 W/m 1,6 C 2,8 C 0,0 km/h (0 Bft)
06.05.2022 05:01 2,8 C 0,6 C 92 % 1026,6 hPa 0,0 l/m 0,0 km/h (0 Bft) N 0 0 min 0,0 UV-I 0 W/m 1,6 C 2,8 C 0,0 km/h (0 Bft)
06.05.2022 05:02 2,8 C 0,6 C 92 % 1026,6 hPa 0,0 l/m 0,0 km/h (0 Bft) N 0 0 min 0,0 UV-I 0 W/m 1,6 C 2,8 C 0,0 km/h (0 Bft)
06.05.2022 05:03 2,8 C 0,6 C 92 % 1026,6 hPa 0,0 l/m 0,0 km/h (0 Bft) N 0 0 min 0,0 UV-I 0 W/m 1,6 C 2,8 C 0,0 km/h (0 Bft)
06.05.2022 05:04 2,7 C 0,6 C 92 % 1026,6 hPa 0,0 l/m 0,0 km/h (0 Bft) N 0 0 min 0,0 UV-I 0 W/m 1,5 C 2,7 C 0,0 km/h (0 Bft)
06.05.2022 05:05 2,7 C 0,6 C 92 % 1026,5 hPa 0,0 l/m 0,0 km/h (0 Bft) N 0 0 min 0,0 UV-I 0 W/m 1,5 C 2,7 C 0,0 km/h (0 Bft)
06.05.2022 05:06 2,7 C 0,6 C 92 % 1026,5 hPa 0,0 l/m 0,0 km/h (0 Bft) N 0 0 min 0,0 UV-I 0 W/m 1,5 C 2,7 C 0,0 km/h (0 Bft)
06.05.2022 05:07 2,8 C 0,0 C 92 % 1026,6 hPa 0,0 l/m 0,0 km/h (0 Bft) N 0 0 min 0,0 UV-I 0 W/m 1,6 C 2,8 C 0,0 km/h (0 Bft)
06.05.2022 05:08 2,8 C 0,0 C 92 % 1026,6 hPa 0,0 l/m 0,0 km/h (0 Bft) N 0 0 min 0,0 UV-I 0 W/m 1,6 C 2,8 C 0,0 km/h (0 Bft)
06.05.2022 05:09 2,7 C 0,0 C 92 % 1026,5 hPa 0,0 l/m 0,0 km/h (0 Bft) N 0 0 min 0,0 UV-I 0 W/m 1,5 C 2,7 C 0,0 km/h (0 Bft)
06.05.2022 05:10 2,7 C 0,0 C 92 % 1026,5 hPa 0,0 l/m 0,0 km/h (0 Bft) N 0 0 min 0,0 UV-I 0 W/m 1,5 C 2,7 C 0,0 km/h (0 Bft)
06.05.2022 05:11 2,7 C 0,0 C 92 % 1026,5 hPa 0,0 l/m 0,0 km/h (0 Bft) N 0 0 min 0,0 UV-I 0 W/m 1,5 C 2,7 C 0,0 km/h (0 Bft)
06.05.2022 05:12 2,6 C 0,0 C 92 % 1026,5 hPa 0,0 l/m 0,0 km/h (0 Bft) N 0 0 min 0,0 UV-I 0 W/m 1,4 C 2,6 C 0,0 km/h (0 Bft)
06.05.2022 05:13 2,5 C 0,0 C 92 % 1026,5 hPa 0,0 l/m 0,0 km/h (0 Bft) N 0 0 min 0,0 UV-I 0 W/m 1,3 C 2,5 C 0,0 km/h (0 Bft)
06.05.2022 05:14 2,5 C 0,0 C 92 % 1026,5 hPa 0,0 l/m 0,0 km/h (0 Bft) N 0 0 min 0,0 UV-I 0 W/m 1,3 C 2,5 C 0,0 km/h (0 Bft)
06.05.2022 05:15 2,3 C 0,0 C 92 % 1026,4 hPa 0,0 l/m 0,0 km/h (0 Bft) N 0 0 min 0,0 UV-I 0 W/m 1,1 C 2,3 C 0,0 km/h (0 Bft)
06.05.2022 05:16 2,2 C 0,0 C 92 % 1026,5 hPa 0,0 l/m 0,0 km/h (0 Bft) N 0 0 min 0,0 UV-I 0 W/m 1,0 C 2,2 C 0,0 km/h (0 Bft)
06.05.2022 05:17 2,2 C 0,0 C 92 % 1026,5 hPa 0,0 l/m 0,0 km/h (0 Bft) N 0 0 min 0,0 UV-I 0 W/m 1,0 C 2,2 C 0,0 km/h (0 Bft)
06.05.2022 05:18 2,1 C 0,0 C 92 % 1026,5 hPa 0,0 l/m 0,0 km/h (0 Bft) N 0 0 min 0,0 UV-I 0 W/m 0,9 C 2,1 C 0,0 km/h (0 Bft)
06.05.2022 05:19 2,2 C 0,0 C 92 % 1026,5 hPa 0,0 l/m 0,0 km/h (0 Bft) N 0 0 min 0,0 UV-I 0 W/m 1,0 C 2,2 C 0,0 km/h (0 Bft)
06.05.2022 05:20 2,2 C 0,0 C 92 % 1026,5 hPa 0,0 l/m 0,0 km/h (0 Bft) N 0 0 min 0,0 UV-I 0 W/m 1,0 C 2,2 C 0,0 km/h (0 Bft)
06.05.2022 05:21 2,2 C 0,0 C 92 % 1026,5 hPa 0,0 l/m 0,0 km/h (0 Bft) N 0 0 min 0,0 UV-I 0 W/m 1,0 C 2,2 C 0,0 km/h (0 Bft)
06.05.2022 05:22 2,3 C 0,6 C 93 % 1026,5 hPa 0,0 l/m 0,0 km/h (0 Bft) N 0 0 min 0,0 UV-I 0 W/m 1,3 C 2,3 C 0,0 km/h (0 Bft)
06.05.2022 05:23 2,4 C 0,6 C 93 % 1026,5 hPa 0,0 l/m 0,0 km/h (0 Bft) N 0 0 min 0,0 UV-I 0 W/m 1,4 C 2,4 C 0,0 km/h (0 Bft)
06.05.2022 05:24 2,4 C 0,6 C 93 % 1026,5 hPa 0,0 l/m 0,0 km/h (0 Bft) N 0 0 min 0,0 UV-I 0 W/m 1,4 C 2,4 C 0,0 km/h (0 Bft)
06.05.2022 05:25 2,4 C 0,6 C 93 % 1026,4 hPa 0,0 l/m 0,0 km/h (0 Bft) N 0 0 min 0,0 UV-I 0 W/m 1,4 C 2,4 C 0,0 km/h (0 Bft)
06.05.2022 05:26 2,5 C 0,6 C 93 % 1026,5 hPa 0,0 l/m 0,0 km/h (0 Bft) N 0 0 min 0,0 UV-I 0 W/m 1,5 C 2,5 C 0,0 km/h (0 Bft)
06.05.2022 05:27 2,6 C 0,0 C 93 % 1026,5 hPa 0,0 l/m 0,0 km/h (0 Bft) N 0 0 min 0,0 UV-I 0 W/m 1,6 C 2,6 C 0,0 km/h (0 Bft)
06.05.2022 05:28 2,6 C 0,0 C 93 % 1026,5 hPa 0,0 l/m 0,0 km/h (0 Bft) N 0 0 min 0,0 UV-I 0 W/m 1,6 C 2,6 C 0,0 km/h (0 Bft)
06.05.2022 05:29 2,7 C 0,0 C 93 % 1026,5 hPa 0,0 l/m 0,0 km/h (0 Bft) N 0 0 min 0,0 UV-I 0 W/m 1,7 C 2,7 C 0,0 km/h (0 Bft)
06.05.2022 05:30 2,7 C 0,6 C 93 % 1026,5 hPa 0,0 l/m 0,0 km/h (0 Bft) N 0 0 min 0,0 UV-I 0 W/m 1,7 C 2,7 C 0,0 km/h (0 Bft)
06.05.2022 05:31 2,8 C 0,6 C 93 % 1026,4 hPa 0,0 l/m 0,0 km/h (0 Bft) N 0 0 min 0,0 UV-I 0 W/m 1,8 C 2,8 C 0,0 km/h (0 Bft)
06.05.2022 05:32 2,8 C 0,6 C 93 % 1026,5 hPa 0,0 l/m 0,0 km/h (0 Bft) N 0 0 min 0,0 UV-I 0 W/m 1,8 C 2,8 C 0,0 km/h (0 Bft)
06.05.2022 05:33 2,6 C 0,6 C 93 % 1026,5 hPa 0,0 l/m 0,0 km/h (0 Bft) N 0 0 min 0,0 UV-I 0 W/m 1,6 C 2,6 C 0,0 km/h (0 Bft)
06.05.2022 05:34 2,4 C 0,0 C 92 % 1026,4 hPa 0,0 l/m 0,0 km/h (0 Bft) N 0 0 min 0,0 UV-I 0 W/m 1,2 C 2,4 C 0,0 km/h (0 Bft)
06.05.2022 05:35 2,2 C 0,0 C 92 % 1026,4 hPa 0,0 l/m 0,0 km/h (0 Bft) N 0 0 min 0,0 UV-I 0 W/m 1,0 C 2,2 C 0,0 km/h (0 Bft)
06.05.2022 05:36 2,1 C 0,0 C 92 % 1026,4 hPa 0,0 l/m 0,0 km/h (0 Bft) N 0 0 min 0,0 UV-I 0 W/m 0,9 C 2,1 C 0,0 km/h (0 Bft)
06.05.2022 05:37 1,9 C -0,6 C 92 % 1026,5 hPa 0,0 l/m 0,0 km/h (0 Bft) N 0 0 min 0,0 UV-I 0 W/m 0,7 C 1,9 C 0,0 km/h (0 Bft)
06.05.2022 05:38 1,8 C -0,6 C 92 % 1026,5 hPa 0,0 l/m 0,0 km/h (0 Bft) N 0 0 min 0,0 UV-I 0 W/m 0,6 C 1,8 C 0,0 km/h (0 Bft)
06.05.2022 05:39 1,7 C -0,6 C 92 % 1026,5 hPa 0,0 l/m 0,0 km/h (0 Bft) N 0 0 min 0,0 UV-I 0 W/m 0,5 C 1,7 C 0,0 km/h (0 Bft)
06.05.2022 05:40 1,7 C -0,6 C 92 % 1026,5 hPa 0,0 l/m 0,0 km/h (0 Bft) N 0 0 min 0,0 UV-I 0 W/m 0,5 C 1,7 C 0,0 km/h (0 Bft)
06.05.2022 05:41 1,7 C -0,6 C 92 % 1026,5 hPa 0,0 l/m 0,0 km/h (0 Bft) N 0 0 min 0,0 UV-I 0 W/m 0,5 C 1,7 C 0,0 km/h (0 Bft)
06.05.2022 05:42 1,8 C -0,6 C 92 % 1026,5 hPa 0,0 l/m 0,0 km/h (0 Bft) N 0 0 min 0,0 UV-I 0 W/m 0,6 C 1,8 C 0,0 km/h (0 Bft)
06.05.2022 05:43 1,8 C 0,0 C 92 % 1026,5 hPa 0,0 l/m 0,0 km/h (0 Bft) N 0 0 min 0,0 UV-I 0 W/m 0,6 C 1,8 C 0,0 km/h (0 Bft)
06.05.2022 05:44 1,9 C -0,6 C 92 % 1026,4 hPa 0,0 l/m 0,0 km/h (0 Bft) N 0 0 min 0,0 UV-I 0 W/m 0,7 C 1,9 C 0,0 km/h (0 Bft)
06.05.2022 05:45 1,9 C -0,6 C 93 % 1026,5 hPa 0,0 l/m 0,0 km/h (0 Bft) N 0 0 min 0,0 UV-I 0 W/m 0,9 C 1,9 C 0,0 km/h (0 Bft)
06.05.2022 05:46 1,9 C 0,0 C 93 % 1026,6 hPa 0,0 l/m 0,0 km/h (0 Bft) N 0 0 min 0,0 UV-I 0 W/m 0,9 C 1,9 C 0,0 km/h (0 Bft)
06.05.2022 05:47 1,9 C 0,0 C 93 % 1026,5 hPa 0,0 l/m 0,0 km/h (0 Bft) N 0 0 min 0,0 UV-I 0 W/m 0,9 C 1,9 C 0,0 km/h (0 Bft)
06.05.2022 05:48 1,9 C 0,0 C 92 % 1026,5 hPa 0,0 l/m 0,0 km/h (0 Bft) N 0 0 min 0,0 UV-I 0 W/m 0,7 C 1,9 C 0,0 km/h (0 Bft)
06.05.2022 05:49 1,8 C -0,6 C 92 % 1026,5 hPa 0,0 l/m 0,0 km/h (0 Bft) N 0 0 min 0,0 UV-I 0 W/m 0,6 C 1,8 C 0,0 km/h (0 Bft)
06.05.2022 05:50 1,8 C -0,6 C 92 % 1026,5 hPa 0,0 l/m 0,0 km/h (0 Bft) N 0 0 min 0,0 UV-I 0 W/m 0,6 C 1,8 C 0,0 km/h (0 Bft)
06.05.2022 05:51 1,8 C -0,6 C 92 % 1026,4 hPa 0,0 l/m 0,0 km/h (0 Bft) N 0 0 min 0,0 UV-I 0 W/m 0,6 C 1,8 C 0,0 km/h (0 Bft)
06.05.2022 05:52 1,7 C -0,6 C 92 % 1026,5 hPa 0,0 l/m 0,0 km/h (0 Bft) N 0 0 min 0,0 UV-I 0 W/m 0,5 C 1,7 C 0,0 km/h (0 Bft)
06.05.2022 05:53 1,8 C -0,6 C 92 % 1026,5 hPa 0,0 l/m 0,0 km/h (0 Bft) N 0 0 min 0,0 UV-I 0 W/m 0,6 C 1,8 C 0,0 km/h (0 Bft)
06.05.2022 05:54 1,8 C -0,6 C 92 % 1026,5 hPa 0,0 l/m 0,0 km/h (0 Bft) N 0 0 min 0,0 UV-I 0 W/m 0,6 C 1,8 C 0,0 km/h (0 Bft)
06.05.2022 05:55 1,8 C -0,6 C 92 % 1026,6 hPa 0,0 l/m 0,0 km/h (0 Bft) N 0 0 min 0,0 UV-I 0 W/m 0,6 C 1,8 C 0,0 km/h (0 Bft)
06.05.2022 05:56 1,8 C 0,0 C 92 % 1026,6 hPa 0,0 l/m 0,0 km/h (0 Bft) N 0 0 min 0,0 UV-I 0 W/m 0,6 C 1,8 C 0,0 km/h (0 Bft)
06.05.2022 05:57 1,8 C 0,0 C 92 % 1026,6 hPa 0,0 l/m 0,0 km/h (0 Bft) N 0 0 min 0,0 UV-I 0 W/m 0,6 C 1,8 C 0,0 km/h (0 Bft)
06.05.2022 05:58 1,8 C 0,0 C 92 % 1026,5 hPa 0,0 l/m 0,0 km/h (0 Bft) N 0 0 min 0,0 UV-I 0 W/m 0,6 C 1,8 C 0,0 km/h (0 Bft)
06.05.2022 05:59 2,0 C 0,0 C 93 % 1026,5 hPa 0,0 l/m 0,0 km/h (0 Bft) N 0 0 min 0,0 UV-I 0 W/m 1,0 C 2,0 C 0,0 km/h (0 Bft)
06.05.2022 06:00 2,2 C 0,0 C 93 % 1026,5 hPa 0,0 l/m 0,0 km/h (0 Bft) N 0 0 min 0,0 UV-I 0 W/m 1,2 C 2,2 C 0,0 km/h (0 Bft)
06.05.2022 06:01 2,3 C 0,0 C 93 % 1026,5 hPa 0,0 l/m 0,0 km/h (0 Bft) N 0 0 min 0,0 UV-I 0 W/m 1,3 C 2,3 C 0,0 km/h (0 Bft)
06.05.2022 06:02 2,3 C 0,0 C 93 % 1026,5 hPa 0,0 l/m 0,0 km/h (0 Bft) N 0 0 min 0,0 UV-I 0 W/m 1,3 C 2,3 C 0,0 km/h (0 Bft)
06.05.2022 06:03 2,3 C 0,0 C 93 % 1026,5 hPa 0,0 l/m 0,0 km/h (0 Bft) N 0 0 min 0,0 UV-I 0 W/m 1,3 C 2,3 C 0,0 km/h (0 Bft)
06.05.2022 06:04 2,3 C 0,0 C 93 % 1026,6 hPa 0,0 l/m 0,0 km/h (0 Bft) N 0 0 min 0,0 UV-I 5 W/m 1,3 C 2,3 C 0,0 km/h (0 Bft)
06.05.2022 06:05 2,2 C 0,0 C 92 % 1026,6 hPa 0,0 l/m 0,0 km/h (0 Bft) N 0 0 min 0,0 UV-I 5 W/m 1,0 C 2,2 C 0,0 km/h (0 Bft)
06.05.2022 06:06 2,3 C 0,0 C 93 % 1026,6 hPa 0,0 l/m 0,0 km/h (0 Bft) N 360 0 min 0,0 UV-I 5 W/m 1,3 C 2,3 C 1,6 km/h (1 Bft)
06.05.2022 06:07 2,2 C 0,0 C 93 % 1026,5 hPa 0,0 l/m 1,6 km/h (1 Bft) N 360 0 min 0,0 UV-I 5 W/m 1,2 C 2,2 C 1,6 km/h (1 Bft)
06.05.2022 06:08 2,3 C 0,0 C 93 % 1026,6 hPa 0,0 l/m 1,6 km/h (1 Bft) N 360 0 min 0,0 UV-I 5 W/m 1,3 C 2,3 C 1,6 km/h (1 Bft)
06.05.2022 06:09 2,3 C 0,0 C 93 % 1026,7 hPa 0,0 l/m 1,6 km/h (1 Bft) N 360 0 min 0,0 UV-I 7 W/m 1,3 C 2,3 C 3,2 km/h (1 Bft)
06.05.2022 06:10 2,3 C 0,0 C 93 % 1026,7 hPa 0,0 l/m 1,6 km/h (1 Bft) N 360 0 min 0,0 UV-I 7 W/m 1,3 C 2,3 C 1,6 km/h (1 Bft)
06.05.2022 06:11 2,4 C 0,0 C 93 % 1026,7 hPa 0,0 l/m 0,0 km/h (0 Bft) N 360 0 min 0,0 UV-I 7 W/m 1,4 C 2,4 C 1,6 km/h (1 Bft)
06.05.2022 06:12 2,5 C 0,0 C 93 % 1026,7 hPa 0,0 l/m 0,0 km/h (0 Bft) N 360 0 min 0,0 UV-I 9 W/m 1,5 C 2,5 C 1,6 km/h (1 Bft)
06.05.2022 06:13 2,4 C 0,0 C 93 % 1026,7 hPa 0,0 l/m 0,0 km/h (0 Bft) N 0 0 min 0,0 UV-I 9 W/m 1,4 C 2,4 C 0,0 km/h (0 Bft)
06.05.2022 06:14 2,1 C 0,0 C 92 % 1026,7 hPa 0,0 l/m 0,0 km/h (0 Bft) N 0 0 min 0,0 UV-I 9 W/m 0,9 C 2,1 C 0,0 km/h (0 Bft)
06.05.2022 06:15 1,8 C 0,0 C 91 % 1026,7 hPa 0,0 l/m 0,0 km/h (0 Bft) N 0 0 min 0,0 UV-I 11 W/m 0,5 C 1,8 C 0,0 km/h (0 Bft)
06.05.2022 06:16 1,6 C -0,6 C 92 % 1026,7 hPa 0,0 l/m 0,0 km/h (0 Bft) N 0 0 min 0,0 UV-I 11 W/m 0,4 C 1,6 C 0,0 km/h (0 Bft)
06.05.2022 06:17 1,6 C -0,6 C 92 % 1026,7 hPa 0,0 l/m 0,0 km/h (0 Bft) N 0 0 min 0,0 UV-I 11 W/m 0,4 C 1,6 C 0,0 km/h (0 Bft)
06.05.2022 06:18 1,4 C -0,6 C 92 % 1026,7 hPa 0,0 l/m 0,0 km/h (0 Bft) N 0 0 min 0,0 UV-I 12 W/m 0,2 C 1,4 C 0,0 km/h (0 Bft)
06.05.2022 06:19 1,4 C -0,6 C 92 % 1026,8 hPa 0,0 l/m 0,0 km/h (0 Bft) N 0 0 min 0,0 UV-I 12 W/m 0,2 C 1,4 C 0,0 km/h (0 Bft)
06.05.2022 06:20 1,4 C -0,6 C 92 % 1026,8 hPa 0,0 l/m 0,0 km/h (0 Bft) N 0 0 min 0,0 UV-I 12 W/m 0,2 C 1,4 C 0,0 km/h (0 Bft)
06.05.2022 06:21 1,4 C -0,6 C 92 % 1026,8 hPa 0,0 l/m 0,0 km/h (0 Bft) N 0 0 min 0,0 UV-I 14 W/m 0,2 C 1,4 C 0,0 km/h (0 Bft)
06.05.2022 06:22 1,4 C -0,6 C 92 % 1026,8 hPa 0,0 l/m 0,0 km/h (0 Bft) N 0 0 min 0,0 UV-I 14 W/m 0,2 C 1,4 C 0,0 km/h (0 Bft)
06.05.2022 06:23 1,4 C 0,0 C 92 % 1026,8 hPa 0,0 l/m 0,0 km/h (0 Bft) N 0 0 min 0,0 UV-I 15 W/m 0,2 C 1,4 C 0,0 km/h (0 Bft)
06.05.2022 06:24 1,5 C 0,0 C 92 % 1026,8 hPa 0,0 l/m 0,0 km/h (0 Bft) N 0 0 min 0,0 UV-I 16 W/m 0,3 C 1,5 C 0,0 km/h (0 Bft)
06.05.2022 06:25 1,6 C 0,0 C 93 % 1026,8 hPa 0,0 l/m 0,0 km/h (0 Bft) N 0 0 min 0,0 UV-I 16 W/m 0,6 C 1,6 C 0,0 km/h (0 Bft)
06.05.2022 06:26 1,6 C 0,0 C 93 % 1026,7 hPa 0,0 l/m 0,0 km/h (0 Bft) N 360 0 min 0,0 UV-I 16 W/m 0,6 C 1,6 C 1,6 km/h (1 Bft)
06.05.2022 06:27 1,6 C 0,0 C 93 % 1026,8 hPa 0,0 l/m 1,6 km/h (1 Bft) N 360 0 min 0,0 UV-I 18 W/m 0,6 C 1,6 C 1,6 km/h (1 Bft)
06.05.2022 06:28 1,6 C 0,0 C 93 % 1026,8 hPa 0,0 l/m 1,6 km/h (1 Bft) N 360 0 min 0,0 UV-I 18 W/m 0,6 C 1,6 C 1,6 km/h (1 Bft)
06.05.2022 06:29 1,6 C 0,0 C 93 % 1026,7 hPa 0,0 l/m 1,6 km/h (1 Bft) N 360 0 min 0,0 UV-I 19 W/m 0,6 C 1,6 C 3,2 km/h (1 Bft)
06.05.2022 06:30 1,7 C 0,0 C 93 % 1026,8 hPa 0,0 l/m 1,6 km/h (1 Bft) N 360 0 min 0,0 UV-I 19 W/m 0,7 C 1,7 C 3,2 km/h (1 Bft)
06.05.2022 06:31 1,8 C 0,0 C 93 % 1026,7 hPa 0,0 l/m 1,6 km/h (1 Bft) N 360 0 min 0,0 UV-I 19 W/m 0,8 C 1,8 C 3,2 km/h (1 Bft)
06.05.2022 06:32 1,9 C 0,0 C 93 % 1026,8 hPa 0,0 l/m 1,6 km/h (1 Bft) N 360 0 min 0,0 UV-I 21 W/m 0,9 C 1,9 C 1,6 km/h (1 Bft)
06.05.2022 06:33 2,0 C 0,0 C 93 % 1026,8 hPa 0,0 l/m 1,6 km/h (1 Bft) N 360 0 min 0,0 UV-I 21 W/m 1,0 C 2,0 C 3,2 km/h (1 Bft)
06.05.2022 06:34 1,9 C 0,0 C 93 % 1026,7 hPa 0,0 l/m 1,6 km/h (1 Bft) N 360 0 min 0,0 UV-I 21 W/m 0,9 C 1,9 C 3,2 km/h (1 Bft)
06.05.2022 06:35 1,9 C 0,0 C 93 % 1026,7 hPa 0,0 l/m 1,6 km/h (1 Bft) N 360 0 min 0,0 UV-I 23 W/m 0,9 C 1,9 C 3,2 km/h (1 Bft)
06.05.2022 06:36 1,8 C 0,0 C 93 % 1026,7 hPa 0,0 l/m 1,6 km/h (1 Bft) N 360 0 min 0,0 UV-I 25 W/m 0,8 C 1,8 C 3,2 km/h (1 Bft)
06.05.2022 06:37 1,7 C 0,0 C 92 % 1026,8 hPa 0,0 l/m 1,6 km/h (1 Bft) N 360 0 min 0,0 UV-I 25 W/m 0,5 C 1,7 C 1,6 km/h (1 Bft)
06.05.2022 06:38 1,7 C 0,0 C 92 % 1026,8 hPa 0,0 l/m 0,0 km/h (0 Bft) N 0 0 min 0,0 UV-I 25 W/m 0,5 C 1,7 C 0,0 km/h (0 Bft)
06.05.2022 06:39 1,6 C 0,0 C 92 % 1026,8 hPa 0,0 l/m 0,0 km/h (0 Bft) N 0 0 min 0,0 UV-I 26 W/m 0,4 C 1,6 C 0,0 km/h (0 Bft)
06.05.2022 06:40 1,6 C 0,0 C 92 % 1026,8 hPa 0,0 l/m 0,0 km/h (0 Bft) N 360 0 min 0,0 UV-I 26 W/m 0,4 C 1,6 C 1,6 km/h (1 Bft)
06.05.2022 06:41 1,5 C 0,0 C 92 % 1026,9 hPa 0,0 l/m 0,0 km/h (0 Bft) N 0 0 min 0,0 UV-I 28 W/m 0,3 C 1,5 C 0,0 km/h (0 Bft)
06.05.2022 06:42 1,4 C 0,0 C 92 % 1026,9 hPa 0,0 l/m 0,0 km/h (0 Bft) N 0 0 min 0,0 UV-I 28 W/m 0,2 C 1,4 C 0,0 km/h (0 Bft)
06.05.2022 06:43 1,4 C 0,0 C 92 % 1026,9 hPa 0,0 l/m 0,0 km/h (0 Bft) N 0 0 min 0,0 UV-I 30 W/m 0,2 C 1,4 C 0,0 km/h (0 Bft)
06.05.2022 06:44 1,4 C 0,0 C 92 % 1026,9 hPa 0,0 l/m 0,0 km/h (0 Bft) N 0 0 min 0,0 UV-I 30 W/m 0,2 C 1,4 C 0,0 km/h (0 Bft)
06.05.2022 06:45 1,4 C 0,6 C 92 % 1026,9 hPa 0,0 l/m 0,0 km/h (0 Bft) N 0 0 min 0,0 UV-I 32 W/m 0,2 C 1,4 C 0,0 km/h (0 Bft)
06.05.2022 06:46 1,4 C 0,0 C 92 % 1026,9 hPa 0,0 l/m 0,0 km/h (0 Bft) N 0 0 min 0,0 UV-I 33 W/m 0,2 C 1,4 C 0,0 km/h (0 Bft)
06.05.2022 06:47 1,4 C 0,0 C 92 % 1026,9 hPa 0,0 l/m 0,0 km/h (0 Bft) N 0 0 min 0,0 UV-I 33 W/m 0,2 C 1,4 C 0,0 km/h (0 Bft)
06.05.2022 06:48 1,5 C 0,6 C 92 % 1026,9 hPa 0,0 l/m 0,0 km/h (0 Bft) N 0 0 min 0,0 UV-I 33 W/m 0,3 C 1,5 C 0,0 km/h (0 Bft)
06.05.2022 06:49 1,6 C 0,6 C 93 % 1026,9 hPa 0,0 l/m 0,0 km/h (0 Bft) N 0 0 min 0,0 UV-I 33 W/m 0,6 C 1,6 C 0,0 km/h (0 Bft)
06.05.2022 06:50 1,8 C 0,6 C 93 % 1027,0 hPa 0,0 l/m 0,0 km/h (0 Bft) N 0 0 min 0,0 UV-I 37 W/m 0,8 C 1,8 C 0,0 km/h (0 Bft)
06.05.2022 06:51 1,8 C 0,6 C 93 % 1026,9 hPa 0,0 l/m 0,0 km/h (0 Bft) N 0 0 min 0,0 UV-I 37 W/m 0,8 C 1,8 C 0,0 km/h (0 Bft)
06.05.2022 06:52 1,9 C 0,6 C 93 % 1027,0 hPa 0,0 l/m 0,0 km/h (0 Bft) N 0 0 min 0,0 UV-I 40 W/m 0,9 C 1,9 C 0,0 km/h (0 Bft)
06.05.2022 06:53 2,0 C 0,6 C 93 % 1027,0 hPa 0,0 l/m 0,0 km/h (0 Bft) N 0 0 min 0,0 UV-I 42 W/m 1,0 C 2,0 C 0,0 km/h (0 Bft)
06.05.2022 06:54 2,1 C 0,6 C 93 % 1027,0 hPa 0,0 l/m 0,0 km/h (0 Bft) N 0 0 min 0,0 UV-I 42 W/m 1,1 C 2,1 C 0,0 km/h (0 Bft)
06.05.2022 06:55 2,1 C 0,6 C 93 % 1027,0 hPa 0,0 l/m 0,0 km/h (0 Bft) N 0 0 min 0,0 UV-I 44 W/m 1,1 C 2,1 C 0,0 km/h (0 Bft)
06.05.2022 06:56 2,2 C 1,1 C 93 % 1027,0 hPa 0,0 l/m 0,0 km/h (0 Bft) N 0 0 min 0,0 UV-I 46 W/m 1,2 C 2,2 C 0,0 km/h (0 Bft)
06.05.2022 06:57 2,2 C 1,1 C 93 % 1027,1 hPa 0,0 l/m 0,0 km/h (0 Bft) N 0 0 min 0,0 UV-I 47 W/m 1,2 C 2,2 C 0,0 km/h (0 Bft)
06.05.2022 06:58 2,2 C 1,1 C 93 % 1027,0 hPa 0,0 l/m 0,0 km/h (0 Bft) N 0 0 min 0,0 UV-I 49 W/m 1,2 C 2,2 C 0,0 km/h (0 Bft)
06.05.2022 06:59 2,2 C 1,1 C 93 % 1027,0 hPa 0,0 l/m 0,0 km/h (0 Bft) N 0 0 min 0,0 UV-I 51 W/m 1,2 C 2,2 C 0,0 km/h (0 Bft)
06.05.2022 07:00 2,1 C 1,1 C 93 % 1026,9 hPa 0,0 l/m 0,0 km/h (0 Bft) N 0 0 min 0,0 UV-I 53 W/m 1,1 C 2,1 C 0,0 km/h (0 Bft)
06.05.2022 07:01 2,2 C 1,1 C 93 % 1027,1 hPa 0,0 l/m 0,0 km/h (0 Bft) N 0 0 min 0,0 UV-I 54 W/m 1,2 C 2,2 C 0,0 km/h (0 Bft)
06.05.2022 07:02 2,2 C 1,1 C 93 % 1027,1 hPa 0,0 l/m 0,0 km/h (0 Bft) N 0 0 min 0,0 UV-I 56 W/m 1,2 C 2,2 C 0,0 km/h (0 Bft)
06.05.2022 07:03 2,2 C 1,1 C 93 % 1027,1 hPa 0,0 l/m 0,0 km/h (0 Bft) N 0 0 min 0,0 UV-I 56 W/m 1,2 C 2,2 C 0,0 km/h (0 Bft)
06.05.2022 07:04 2,2 C 1,1 C 93 % 1027,1 hPa 0,0 l/m 0,0 km/h (0 Bft) N 0 0 min 0,0 UV-I 59 W/m 1,2 C 2,2 C 0,0 km/h (0 Bft)
06.05.2022 07:05 2,3 C 1,1 C 93 % 1027,1 hPa 0,0 l/m 0,0 km/h (0 Bft) N 0 0 min 0,0 UV-I 62 W/m 1,3 C 2,3 C 0,0 km/h (0 Bft)
06.05.2022 07:06 2,3 C 1,1 C 93 % 1027,1 hPa 0,0 l/m 0,0 km/h (0 Bft) N 0 0 min 0,0 UV-I 63 W/m 1,3 C 2,3 C 0,0 km/h (0 Bft)
06.05.2022 07:07 2,4 C 1,7 C 93 % 1027,1 hPa 0,0 l/m 0,0 km/h (0 Bft) N 0 0 min 0,0 UV-I 63 W/m 1,4 C 2,4 C 0,0 km/h (0 Bft)
06.05.2022 07:08 2,5 C 1,7 C 93 % 1027,1 hPa 0,0 l/m 0,0 km/h (0 Bft) N 0 0 min 0,0 UV-I 65 W/m 1,5 C 2,5 C 0,0 km/h (0 Bft)
06.05.2022 07:09 2,6 C 1,7 C 93 % 1027,1 hPa 0,0 l/m 0,0 km/h (0 Bft) N 0 0 min 0,0 UV-I 67 W/m 1,6 C 2,6 C 0,0 km/h (0 Bft)
06.05.2022 07:10 2,6 C 1,7 C 93 % 1027,1 hPa 0,0 l/m 0,0 km/h (0 Bft) N 0 0 min 0,0 UV-I 70 W/m 1,6 C 2,6 C 0,0 km/h (0 Bft)
06.05.2022 07:11 2,7 C 1,7 C 93 % 1027,1 hPa 0,0 l/m 0,0 km/h (0 Bft) N 0 0 min 0,0 UV-I 72 W/m 1,7 C 2,7 C 0,0 km/h (0 Bft)
06.05.2022 07:12 2,6 C 1,7 C 93 % 1027,1 hPa 0,0 l/m 0,0 km/h (0 Bft) N 0 0 min 0,0 UV-I 72 W/m 1,6 C 2,6 C 0,0 km/h (0 Bft)
06.05.2022 07:13 2,6 C 1,7 C 92 % 1027,1 hPa 0,0 l/m 0,0 km/h (0 Bft) N 0 0 min 0,0 UV-I 74 W/m 1,4 C 2,6 C 0,0 km/h (0 Bft)
06.05.2022 07:14 2,5 C 1,7 C 92 % 1027,1 hPa 0,0 l/m 0,0 km/h (0 Bft) N 0 0 min 0,0 UV-I 76 W/m 1,3 C 2,5 C 0,0 km/h (0 Bft)
06.05.2022 07:15 2,5 C 1,7 C 92 % 1027,1 hPa 0,0 l/m 0,0 km/h (0 Bft) N 0 0 min 0,0 UV-I 77 W/m 1,3 C 2,5 C 0,0 km/h (0 Bft)
06.05.2022 07:16 2,6 C 1,7 C 93 % 1027,2 hPa 0,0 l/m 0,0 km/h (0 Bft) N 0 0 min 0,0 UV-I 79 W/m 1,6 C 2,6 C 0,0 km/h (0 Bft)
06.05.2022 07:17 2,6 C 1,7 C 93 % 1027,2 hPa 0,0 l/m 0,0 km/h (0 Bft) N 0 0 min 0,0 UV-I 76 W/m 1,6 C 2,6 C 0,0 km/h (0 Bft)
06.05.2022 07:18 2,7 C 1,7 C 93 % 1027,1 hPa 0,0 l/m 0,0 km/h (0 Bft) N 0 0 min 0,0 UV-I 74 W/m 1,7 C 2,7 C 0,0 km/h (0 Bft)
06.05.2022 07:19 2,7 C 1,7 C 93 % 1027,2 hPa 0,0 l/m 0,0 km/h (0 Bft) N 0 0 min 0,0 UV-I 76 W/m 1,7 C 2,7 C 0,0 km/h (0 Bft)
06.05.2022 07:20 2,8 C 2,2 C 93 % 1027,2 hPa 0,0 l/m 0,0 km/h (0 Bft) N 0 0 min 0,0 UV-I 76 W/m 1,8 C 2,8 C 0,0 km/h (0 Bft)
06.05.2022 07:21 2,8 C 2,2 C 93 % 1027,3 hPa 0,0 l/m 0,0 km/h (0 Bft) N 0 0 min 0,0 UV-I 76 W/m 1,8 C 2,8 C 0,0 km/h (0 Bft)
06.05.2022 07:22 2,9 C 2,2 C 93 % 1027,1 hPa 0,0 l/m 0,0 km/h (0 Bft) N 0 0 min 0,0 UV-I 82 W/m 1,9 C 2,9 C 0,0 km/h (0 Bft)
06.05.2022 07:23 3,1 C 2,2 C 93 % 1027,2 hPa 0,0 l/m 0,0 km/h (0 Bft) N 0 0 min 0,0 UV-I 90 W/m 2,1 C 3,1 C 0,0 km/h (0 Bft)
06.05.2022 07:24 3,2 C 2,2 C 93 % 1027,3 hPa 0,0 l/m 0,0 km/h (0 Bft) N 0 0 min 0,0 UV-I 97 W/m 2,2 C 3,2 C 0,0 km/h (0 Bft)
06.05.2022 07:25 3,1 C 2,2 C 93 % 1027,2 hPa 0,0 l/m 0,0 km/h (0 Bft) N 0 0 min 0,0 UV-I 100 W/m 2,1 C 3,1 C 0,0 km/h (0 Bft)
06.05.2022 07:26 3,1 C 2,2 C 93 % 1027,3 hPa 0,0 l/m 0,0 km/h (0 Bft) N 0 0 min 0,0 UV-I 104 W/m 2,1 C 3,1 C 0,0 km/h (0 Bft)
06.05.2022 07:27 3,1 C 2,2 C 93 % 1027,3 hPa 0,0 l/m 0,0 km/h (0 Bft) N 0 0 min 0,0 UV-I 106 W/m 2,1 C 3,1 C 0,0 km/h (0 Bft)
06.05.2022 07:28 3,1 C 2,8 C 93 % 1027,2 hPa 0,0 l/m 0,0 km/h (0 Bft) N 0 0 min 0,0 UV-I 109 W/m 2,1 C 3,1 C 0,0 km/h (0 Bft)
06.05.2022 07:29 3,1 C 2,8 C 93 % 1027,2 hPa 0,0 l/m 0,0 km/h (0 Bft) N 0 0 min 0,0 UV-I 111 W/m 2,1 C 3,1 C 0,0 km/h (0 Bft)
06.05.2022 07:30 3,2 C 2,8 C 93 % 1027,2 hPa 0,0 l/m 0,0 km/h (0 Bft) N 0 0 min 0,0 UV-I 113 W/m 2,2 C 3,2 C 0,0 km/h (0 Bft)
06.05.2022 07:31 3,2 C 2,8 C 93 % 1027,3 hPa 0,0 l/m 0,0 km/h (0 Bft) N 0 0 min 0,0 UV-I 114 W/m 2,2 C 3,2 C 0,0 km/h (0 Bft)
06.05.2022 07:32 3,3 C 2,8 C 93 % 1027,1 hPa 0,0 l/m 0,0 km/h (0 Bft) N 0 0 min 0,5 UV-I 118 W/m 2,3 C 3,3 C 0,0 km/h (0 Bft)
06.05.2022 07:33 3,3 C 2,8 C 93 % 1027,2 hPa 0,0 l/m 0,0 km/h (0 Bft) N 0 0 min 0,5 UV-I 118 W/m 2,3 C 3,3 C 0,0 km/h (0 Bft)
06.05.2022 07:34 3,4 C 2,8 C 93 % 1027,2 hPa 0,0 l/m 0,0 km/h (0 Bft) N 0 0 min 0,5 UV-I 123 W/m 2,4 C 3,4 C 0,0 km/h (0 Bft)
06.05.2022 07:35 3,4 C 3,3 C 93 % 1027,2 hPa 0,0 l/m 0,0 km/h (0 Bft) N 0 0 min 0,5 UV-I 125 W/m 2,4 C 3,4 C 0,0 km/h (0 Bft)
06.05.2022 07:36 3,4 C 3,3 C 93 % 1027,2 hPa 0,0 l/m 0,0 km/h (0 Bft) N 0 0 min 0,5 UV-I 128 W/m 2,4 C 3,4 C 0,0 km/h (0 Bft)
06.05.2022 07:37 3,6 C 3,3 C 93 % 1027,2 hPa 0,0 l/m 0,0 km/h (0 Bft) N 0 0 min 0,5 UV-I 130 W/m 2,6 C 3,6 C 0,0 km/h (0 Bft)
06.05.2022 07:38 3,6 C 3,3 C 93 % 1027,2 hPa 0,0 l/m 0,0 km/h (0 Bft) N 0 0 min 0,5 UV-I 132 W/m 2,6 C 3,6 C 0,0 km/h (0 Bft)
06.05.2022 07:39 3,6 C 3,3 C 93 % 1027,2 hPa 0,0 l/m 0,0 km/h (0 Bft) N 0 0 min 0,5 UV-I 136 W/m 2,6 C 3,6 C 0,0 km/h (0 Bft)
06.05.2022 07:40 3,7 C 3,9 C 93 % 1027,3 hPa 0,0 l/m 0,0 km/h (0 Bft) N 0 0 min 0,5 UV-I 139 W/m 2,7 C 3,7 C 0,0 km/h (0 Bft)
06.05.2022 07:41 3,7 C 3,9 C 93 % 1027,2 hPa 0,0 l/m 0,0 km/h (0 Bft) N 0 0 min 0,5 UV-I 141 W/m 2,7 C 3,7 C 0,0 km/h (0 Bft)
06.05.2022 07:42 3,8 C 3,9 C 93 % 1027,3 hPa 0,0 l/m 0,0 km/h (0 Bft) N 0 0 min 0,5 UV-I 142 W/m 2,8 C 3,8 C 0,0 km/h (0 Bft)
06.05.2022 07:43 3,8 C 3,9 C 92 % 1027,3 hPa 0,0 l/m 0,0 km/h (0 Bft) N 0 0 min 0,6 UV-I 142 W/m 2,6 C 3,8 C 0,0 km/h (0 Bft)
06.05.2022 07:44 3,9 C 3,9 C 93 % 1027,2 hPa 0,0 l/m 0,0 km/h (0 Bft) N 0 0 min 0,6 UV-I 142 W/m 2,9 C 3,9 C 0,0 km/h (0 Bft)
06.05.2022 07:45 4,0 C 3,9 C 92 % 1027,3 hPa 0,0 l/m 0,0 km/h (0 Bft) N 0 0 min 0,6 UV-I 143 W/m 2,8 C 4,0 C 0,0 km/h (0 Bft)
06.05.2022 07:46 4,1 C 3,9 C 93 % 1027,3 hPa 0,0 l/m 0,0 km/h (0 Bft) N 0 0 min 0,6 UV-I 142 W/m 3,1 C 4,1 C 0,0 km/h (0 Bft)
06.05.2022 07:48 4,4 C 4,4 C 93 % 1027,2 hPa 0,0 l/m 0,0 km/h (0 Bft) N 355 0 min 0,6 UV-I 142 W/m 3,4 C 4,4 C 0,0 km/h (0 Bft)
06.05.2022 07:50 4,7 C 5,0 C 93 % 1027,2 hPa 0,0 l/m 0,0 km/h (0 Bft) N 355 0 min 0,6 UV-I 143 W/m 3,7 C 4,7 C 0,0 km/h (0 Bft)
06.05.2022 07:52 4,8 C 5,6 C 93 % 1027,3 hPa 0,0 l/m 0,0 km/h (0 Bft) N 355 0 min 0,6 UV-I 146 W/m 3,8 C 4,8 C 0,0 km/h (0 Bft)
06.05.2022 07:54 4,9 C 5,6 C 92 % 1027,3 hPa 0,0 l/m 0,0 km/h (0 Bft) N 355 0 min 0,7 UV-I 151 W/m 3,7 C 4,9 C 0,0 km/h (0 Bft)
06.05.2022 07:56 5,1 C 6,1 C 92 % 1027,3 hPa 0,0 l/m 0,0 km/h (0 Bft) N 355 0 min 0,7 UV-I 158 W/m 3,9 C 5,1 C 0,0 km/h (0 Bft)
06.05.2022 07:58 5,2 C 6,7 C 92 % 1027,3 hPa 0,0 l/m 0,5 km/h (0 Bft) N 355 0 min 0,7 UV-I 169 W/m 4,0 C 5,2 C 1,6 km/h (1 Bft)
06.05.2022 08:00 5,3 C 7,2 C 92 % 1027,3 hPa 0,0 l/m 0,2 km/h (0 Bft) N 355 0 min 0,7 UV-I 181 W/m 4,1 C 5,3 C 1,6 km/h (1 Bft)
06.05.2022 08:02 5,5 C 7,2 C 92 % 1027,3 hPa 0,0 l/m 0,0 km/h (0 Bft) N 355 0 min 0,7 UV-I 193 W/m 4,3 C 5,5 C 0,0 km/h (0 Bft)
06.05.2022 08:04 5,7 C 7,2 C 91 % 1027,3 hPa 0,0 l/m 0,2 km/h (0 Bft) N 355 0 min 0,8 UV-I 199 W/m 4,3 C 5,7 C 1,6 km/h (1 Bft)
06.05.2022 08:06 5,8 C 7,8 C 91 % 1027,2 hPa 0,0 l/m 0,1 km/h (0 Bft) N 355 0 min 0,8 UV-I 206 W/m 4,4 C 5,8 C 1,6 km/h (1 Bft)
06.05.2022 08:08 5,9 C 7,8 C 91 % 1027,3 hPa 0,0 l/m 0,0 km/h (0 Bft) N 355 0 min 0,8 UV-I 210 W/m 4,5 C 5,9 C 0,0 km/h (0 Bft)
06.05.2022 08:10 6,2 C 7,8 C 91 % 1027,3 hPa 0,0 l/m 0,0 km/h (0 Bft) N 355 0 min 0,9 UV-I 215 W/m 4,8 C 6,2 C 0,0 km/h (0 Bft)
06.05.2022 08:12 6,4 C 7,8 C 90 % 1027,3 hPa 0,0 l/m 0,0 km/h (0 Bft) N 355 0 min 0,9 UV-I 220 W/m 4,9 C 6,4 C 0,0 km/h (0 Bft)
06.05.2022 08:14 6,7 C 8,3 C 90 % 1027,3 hPa 0,0 l/m 0,0 km/h (0 Bft) N 355 0 min 0,9 UV-I 223 W/m 5,2 C 6,7 C 1,6 km/h (1 Bft)
06.05.2022 08:16 6,9 C 8,3 C 90 % 1027,3 hPa 0,0 l/m 0,0 km/h (0 Bft) N 355 0 min 0,9 UV-I 228 W/m 5,4 C 6,9 C 0,0 km/h (0 Bft)
06.05.2022 08:18 7,2 C 8,3 C 90 % 1027,4 hPa 0,0 l/m 0,0 km/h (0 Bft) N 355 0 min 1,0 UV-I 235 W/m 5,7 C 7,2 C 0,0 km/h (0 Bft)
06.05.2022 08:20 7,4 C 8,3 C 89 % 1027,5 hPa 0,0 l/m 0,1 km/h (0 Bft) N 355 0 min 1,0 UV-I 241 W/m 5,7 C 7,4 C 1,6 km/h (1 Bft)
06.05.2022 08:22 7,6 C 8,9 C 89 % 1027,3 hPa 0,0 l/m 0,3 km/h (0 Bft) N 355 0 min 1,0 UV-I 246 W/m 5,9 C 7,6 C 1,6 km/h (1 Bft)
06.05.2022 08:24 7,7 C 8,9 C 88 % 1027,4 hPa 0,0 l/m 0,0 km/h (0 Bft) N 355 0 min 1,0 UV-I 252 W/m 5,8 C 7,7 C 1,6 km/h (1 Bft)
06.05.2022 08:26 7,9 C 8,9 C 88 % 1027,3 hPa 0,0 l/m 0,2 km/h (0 Bft) N 355 0 min 1,1 UV-I 257 W/m 6,0 C 7,9 C 1,6 km/h (1 Bft)
06.05.2022 08:28 8,2 C 8,9 C 88 % 1027,4 hPa 0,0 l/m 0,5 km/h (0 Bft) N 355 0 min 1,1 UV-I 261 W/m 6,3 C 8,2 C 1,6 km/h (1 Bft)
06.05.2022 08:30 8,4 C 9,4 C 87 % 1027,4 hPa 0,0 l/m 0,3 km/h (0 Bft) N 355 0 min 1,1 UV-I 266 W/m 6,4 C 8,4 C 1,6 km/h (1 Bft)
06.05.2022 08:32 8,6 C 9,4 C 86 % 1027,5 hPa 0,0 l/m 0,3 km/h (0 Bft) N 355 0 min 1,1 UV-I 273 W/m 6,4 C 8,6 C 1,6 km/h (1 Bft)
06.05.2022 08:34 8,7 C 9,4 C 86 % 1027,4 hPa 0,0 l/m 0,3 km/h (0 Bft) N 355 0 min 1,2 UV-I 278 W/m 6,5 C 8,7 C 1,6 km/h (1 Bft)
06.05.2022 08:36 8,9 C 9,4 C 85 % 1027,4 hPa 0,0 l/m 0,6 km/h (0 Bft) N 355 0 min 1,3 UV-I 284 W/m 6,5 C 8,9 C 1,6 km/h (1 Bft)
06.05.2022 08:38 9,1 C 9,4 C 85 % 1027,4 hPa 0,0 l/m 0,3 km/h (0 Bft) N 355 0 min 1,3 UV-I 290 W/m 6,7 C 9,1 C 1,6 km/h (1 Bft)
06.05.2022 08:40 9,3 C 10,0 C 84 % 1027,4 hPa 0,0 l/m 0,8 km/h (0 Bft) N 355 0 min 1,3 UV-I 294 W/m 6,7 C 9,3 C 1,6 km/h (1 Bft)
06.05.2022 08:42 9,4 C 10,6 C 83 % 1027,4 hPa 0,0 l/m 1,0 km/h (0 Bft) N 355 0 min 1,3 UV-I 299 W/m 6,7 C 9,4 C 1,6 km/h (1 Bft)
06.05.2022 08:44 9,7 C 11,1 C 83 % 1027,4 hPa 0,0 l/m 0,4 km/h (0 Bft) N 355 0 min 1,4 UV-I 306 W/m 7,0 C 9,7 C 1,6 km/h (1 Bft)
06.05.2022 08:46 10,0 C 11,1 C 83 % 1027,4 hPa 0,0 l/m 0,4 km/h (0 Bft) N 355 0 min 1,4 UV-I 310 W/m 7,2 C 10,0 C 1,6 km/h (1 Bft)
06.05.2022 08:48 10,2 C 11,7 C 82 % 1027,4 hPa 0,0 l/m 0,3 km/h (0 Bft) N 355 0 min 1,4 UV-I 315 W/m 7,3 C 10,2 C 1,6 km/h (1 Bft)
06.05.2022 08:50 10,5 C 11,7 C 82 % 1027,4 hPa 0,0 l/m 0,2 km/h (0 Bft) N 355 0 min 1,5 UV-I 320 W/m 7,6 C 10,5 C 1,6 km/h (1 Bft)
06.05.2022 08:52 10,7 C 12,2 C 81 % 1027,4 hPa 0,0 l/m 0,2 km/h (0 Bft) N 355 0 min 1,5 UV-I 323 W/m 7,6 C 10,7 C 1,6 km/h (1 Bft)
06.05.2022 08:54 10,9 C 12,2 C 80 % 1027,5 hPa 0,0 l/m 0,1 km/h (0 Bft) N 355 0 min 1,5 UV-I 329 W/m 7,6 C 10,9 C 1,6 km/h (1 Bft)
06.05.2022 08:56 11,1 C 12,2 C 79 % 1027,5 hPa 0,0 l/m 0,6 km/h (0 Bft) N 355 0 min 1,6 UV-I 333 W/m 7,6 C 11,1 C 3,2 km/h (1 Bft)
06.05.2022 08:58 11,3 C 12,8 C 79 % 1027,4 hPa 0,0 l/m 2,2 km/h (1 Bft) N 355 0 min 1,6 UV-I 341 W/m 7,8 C 11,3 C 3,2 km/h (1 Bft)
06.05.2022 09:00 11,6 C 13,3 C 79 % 1027,5 hPa 0,0 l/m 1,4 km/h (1 Bft) N 355 2 min 1,7 UV-I 347 W/m 8,1 C 11,6 C 3,2 km/h (1 Bft)
06.05.2022 09:02 11,8 C 13,3 C 78 % 1027,5 hPa 0,0 l/m 0,7 km/h (0 Bft) N 355 2 min 1,7 UV-I 349 W/m 8,1 C 11,8 C 3,2 km/h (1 Bft)
06.05.2022 09:04 12,0 C 13,3 C 76 % 1027,4 hPa 0,0 l/m 2,8 km/h (1 Bft) N 355 2 min 1,7 UV-I 356 W/m 7,9 C 12,0 C 4,8 km/h (1 Bft)
06.05.2022 09:06 12,2 C 13,3 C 76 % 1027,5 hPa 0,0 l/m 2,8 km/h (1 Bft) N 355 2 min 1,8 UV-I 369 W/m 8,1 C 12,2 C 4,8 km/h (1 Bft)
06.05.2022 09:08 12,3 C 13,9 C 75 % 1027,4 hPa 0,0 l/m 1,5 km/h (1 Bft) N 355 2 min 1,8 UV-I 375 W/m 8,0 C 12,3 C 3,2 km/h (1 Bft)
06.05.2022 09:10 12,5 C 13,9 C 75 % 1027,5 hPa 0,0 l/m 2,7 km/h (1 Bft) N 355 2 min 1,8 UV-I 379 W/m 8,2 C 12,5 C 3,2 km/h (1 Bft)
06.05.2022 09:12 12,4 C 13,9 C 76 % 1027,5 hPa 0,0 l/m 3,0 km/h (1 Bft) N 355 2 min 1,8 UV-I 380 W/m 8,3 C 12,4 C 4,8 km/h (1 Bft)
06.05.2022 09:14 12,5 C 13,9 C 77 % 1027,5 hPa 0,0 l/m 3,7 km/h (1 Bft) N 355 2 min 1,9 UV-I 384 W/m 8,6 C 12,5 C 4,8 km/h (1 Bft)
06.05.2022 09:16 12,8 C 13,9 C 75 % 1027,4 hPa 0,0 l/m 1,8 km/h (1 Bft) N 355 2 min 1,9 UV-I 391 W/m 8,5 C 12,8 C 4,8 km/h (1 Bft)
06.05.2022 09:18 12,9 C 14,4 C 74 % 1027,5 hPa 0,0 l/m 1,3 km/h (1 Bft) N 9 2 min 1,9 UV-I 395 W/m 8,4 C 12,9 C 4,8 km/h (1 Bft)
06.05.2022 09:20 13,2 C 14,4 C 72 % 1027,4 hPa 0,0 l/m 2,4 km/h (1 Bft) N 11 2 min 2,0 UV-I 398 W/m 8,3 C 13,2 C 4,8 km/h (1 Bft)
06.05.2022 09:22 13,3 C 15,0 C 73 % 1027,4 hPa 0,0 l/m 3,0 km/h (1 Bft) N 11 2 min 2,0 UV-I 401 W/m 8,6 C 13,3 C 4,8 km/h (1 Bft)
06.05.2022 09:24 13,4 C 15,0 C 70 % 1027,4 hPa 0,0 l/m 2,9 km/h (1 Bft) N 11 2 min 2,1 UV-I 403 W/m 8,0 C 13,4 C 4,8 km/h (1 Bft)
06.05.2022 09:26 13,6 C 15,6 C 70 % 1027,4 hPa 0,0 l/m 3,6 km/h (1 Bft) N-NO 19 2 min 2,1 UV-I 403 W/m 8,2 C 13,6 C 6,4 km/h (2 Bft)
06.05.2022 09:28 13,8 C 15,6 C 70 % 1027,4 hPa 0,0 l/m 4,0 km/h (1 Bft) N-NO 27 2 min 2,2 UV-I 402 W/m 8,4 C 13,8 C 6,4 km/h (2 Bft)
06.05.2022 09:30 13,8 C 15,6 C 69 % 1027,4 hPa 0,0 l/m 4,5 km/h (1 Bft) NO 37 2 min 2,2 UV-I 401 W/m 8,2 C 13,8 C 6,4 km/h (2 Bft)
06.05.2022 09:32 13,8 C 16,1 C 67 % 1027,4 hPa 0,0 l/m 3,1 km/h (1 Bft) NO 37 2 min 2,2 UV-I 401 W/m 7,8 C 13,8 C 6,4 km/h (2 Bft)
06.05.2022 09:34 13,7 C 15,6 C 67 % 1027,4 hPa 0,0 l/m 1,4 km/h (1 Bft) NO 37 2 min 2,3 UV-I 402 W/m 7,7 C 13,7 C 3,2 km/h (1 Bft)
06.05.2022 09:36 13,7 C 15,6 C 67 % 1027,5 hPa 0,0 l/m 5,3 km/h (1 Bft) NO 38 2 min 2,3 UV-I 402 W/m 7,7 C 13,7 C 8,0 km/h (2 Bft)
06.05.2022 09:38 13,8 C 16,1 C 68 % 1027,5 hPa 0,0 l/m 4,2 km/h (1 Bft) NO 44 2 min 2,3 UV-I 397 W/m 8,0 C 13,8 C 8,0 km/h (2 Bft)
06.05.2022 09:40 13,9 C 16,1 C 67 % 1027,4 hPa 0,0 l/m 6,3 km/h (2 Bft) NO 42 2 min 2,4 UV-I 399 W/m 7,9 C 13,9 C 8,0 km/h (2 Bft)
06.05.2022 09:42 14,1 C 16,7 C 66 % 1027,5 hPa 0,0 l/m 5,5 km/h (1 Bft) NO 50 2 min 2,4 UV-I 400 W/m 7,8 C 14,1 C 8,0 km/h (2 Bft)
06.05.2022 09:44 14,1 C 16,7 C 65 % 1027,4 hPa 0,0 l/m 6,4 km/h (2 Bft) NO 43 2 min 2,5 UV-I 404 W/m 7,6 C 14,1 C 9,7 km/h (2 Bft)
06.05.2022 09:46 14,1 C 16,1 C 66 % 1027,4 hPa 0,0 l/m 6,2 km/h (2 Bft) NO 43 2 min 2,5 UV-I 404 W/m 7,8 C 14,1 C 9,7 km/h (2 Bft)
06.05.2022 09:48 14,2 C 16,1 C 66 % 1027,4 hPa 0,0 l/m 4,2 km/h (1 Bft) O-NO 61 2 min 2,5 UV-I 404 W/m 7,9 C 14,2 C 9,7 km/h (2 Bft)
06.05.2022 09:50 14,4 C 16,1 C 66 % 1027,4 hPa 0,0 l/m 7,1 km/h (2 Bft) NO 41 2 min 2,6 UV-I 406 W/m 8,1 C 14,0 C 12,9 km/h (3 Bft)
06.05.2022 09:52 14,4 C 16,1 C 64 % 1027,4 hPa 0,0 l/m 6,9 km/h (2 Bft) N-NO 31 2 min 2,6 UV-I 416 W/m 7,7 C 14,1 C 9,7 km/h (2 Bft)
06.05.2022 09:54 14,6 C 16,7 C 65 % 1027,4 hPa 0,0 l/m 8,7 km/h (2 Bft) O-NO 58 2 min 2,6 UV-I 422 W/m 8,1 C 13,3 C 12,9 km/h (3 Bft)
06.05.2022 09:56 14,6 C 16,1 C 64 % 1027,4 hPa 0,0 l/m 7,1 km/h (2 Bft) N-NO 29 2 min 2,7 UV-I 439 W/m 7,9 C 14,2 C 9,7 km/h (2 Bft)
06.05.2022 09:58 14,6 C 16,7 C 62 % 1027,3 hPa 0,0 l/m 12,4 km/h (3 Bft) N 5 2 min 2,7 UV-I 443 W/m 7,4 C 11,7 C 17,7 km/h (3 Bft)
06.05.2022 10:00 14,8 C 16,7 C 64 % 1027,3 hPa 0,0 l/m 11,1 km/h (2 Bft) N 9 2 min 2,7 UV-I 452 W/m 8,1 C 12,4 C 17,7 km/h (3 Bft)
06.05.2022 10:02 15,1 C 16,7 C 62 % 1027,4 hPa 0,0 l/m 10,9 km/h (2 Bft) N 355 2 min 2,8 UV-I 453 W/m 7,9 C 12,8 C 16,1 km/h (3 Bft)
06.05.2022 10:04 15,1 C 16,7 C 64 % 1027,4 hPa 0,0 l/m 7,2 km/h (2 Bft) N 360 2 min 2,9 UV-I 478 W/m 8,3 C 14,6 C 16,1 km/h (3 Bft)
06.05.2022 10:06 15,1 C 16,7 C 60 % 1027,4 hPa 0,0 l/m 12,9 km/h (3 Bft) N-NO 22 2 min 2,9 UV-I 484 W/m 7,4 C 12,0 C 19,3 km/h (3 Bft)
06.05.2022 10:08 15,1 C 17,2 C 61 % 1027,3 hPa 0,0 l/m 12,1 km/h (2 Bft) N 360 2 min 2,9 UV-I 501 W/m 7,6 C 12,3 C 17,7 km/h (3 Bft)
06.05.2022 10:10 15,1 C 17,2 C 60 % 1027,3 hPa 0,0 l/m 15,1 km/h (3 Bft) N 351 2 min 3,0 UV-I 517 W/m 7,4 C 11,3 C 19,3 km/h (3 Bft)
06.05.2022 10:12 14,9 C 17,2 C 60 % 1027,3 hPa 0,0 l/m 10,9 km/h (2 Bft) N 360 2 min 3,0 UV-I 538 W/m 7,2 C 12,6 C 17,7 km/h (3 Bft)
06.05.2022 10:14 15,1 C 17,2 C 62 % 1027,3 hPa 0,0 l/m 11,6 km/h (2 Bft) N 355 2 min 3,0 UV-I 537 W/m 7,9 C 12,5 C 17,7 km/h (3 Bft)
06.05.2022 10:16 15,1 C 17,2 C 59 % 1027,4 hPa 0,0 l/m 17,5 km/h (3 Bft) N 355 2 min 2,9 UV-I 528 W/m 7,1 C 10,5 C 22,5 km/h (4 Bft)
06.05.2022 10:18 15,0 C 17,2 C 61 % 1027,3 hPa 0,0 l/m 10,2 km/h (2 Bft) N-NO 16 2 min 2,9 UV-I 519 W/m 7,5 C 13,0 C 16,1 km/h (3 Bft)
06.05.2022 10:20 15,1 C 17,8 C 62 % 1027,4 hPa 0,0 l/m 10,6 km/h (2 Bft) N 5 2 min 3,1 UV-I 557 W/m 7,9 C 13,0 C 14,5 km/h (3 Bft)
06.05.2022 10:22 14,9 C 17,2 C 59 % 1027,4 hPa 0,0 l/m 13,5 km/h (3 Bft) N-NO 16 2 min 2,6 UV-I 524 W/m 7,0 C 11,6 C 17,7 km/h (3 Bft)
06.05.2022 10:24 14,9 C 17,8 C 61 % 1027,4 hPa 0,0 l/m 11,4 km/h (2 Bft) N-NW 344 2 min 3,1 UV-I 560 W/m 7,4 C 12,4 C 16,1 km/h (3 Bft)
06.05.2022 10:26 15,2 C 18,3 C 61 % 1027,4 hPa 0,0 l/m 6,0 km/h (2 Bft) N-NW 338 2 min 3,1 UV-I 592 W/m 7,7 C 15,2 C 12,9 km/h (3 Bft)
06.05.2022 10:28 15,4 C 18,9 C 59 % 1027,4 hPa 0,0 l/m 7,4 km/h (2 Bft) N 360 2 min 3,1 UV-I 607 W/m 7,4 C 14,8 C 9,7 km/h (2 Bft)
06.05.2022 10:30 15,5 C 19,4 C 61 % 1027,4 hPa 0,0 l/m 7,3 km/h (2 Bft) N 5 2 min 3,3 UV-I 630 W/m 8,0 C 15,0 C 14,5 km/h (3 Bft)
06.05.2022 10:32 15,8 C 19,4 C 61 % 1027,4 hPa 0,0 l/m 10,4 km/h (2 Bft) N 5 2 min 3,3 UV-I 640 W/m 8,3 C 13,8 C 14,5 km/h (3 Bft)
06.05.2022 10:34 15,8 C 20,0 C 60 % 1027,4 hPa 0,0 l/m 9,6 km/h (2 Bft) N 350 2 min 3,2 UV-I 628 W/m 8,1 C 14,2 C 19,3 km/h (3 Bft)
06.05.2022 10:36 15,6 C 19,4 C 58 % 1027,4 hPa 0,0 l/m 11,9 km/h (2 Bft) N-NO 24 2 min 3,0 UV-I 591 W/m 7,4 C 13,0 C 19,3 km/h (3 Bft)
06.05.2022 10:38 15,3 C 19,4 C 59 % 1027,4 hPa 0,0 l/m 11,5 km/h (2 Bft) N-NO 14 2 min 3,0 UV-I 591 W/m 7,3 C 12,8 C 16,1 km/h (3 Bft)
06.05.2022 10:40 15,2 C 18,9 C 59 % 1027,4 hPa 0,0 l/m 11,2 km/h (2 Bft) N-NO 29 2 min 2,3 UV-I 396 W/m 7,2 C 12,8 C 14,5 km/h (3 Bft)
06.05.2022 10:42 14,7 C 18,3 C 59 % 1027,4 hPa 0,0 l/m 9,5 km/h (2 Bft) N-NO 22 0 min 2,7 UV-I 148 W/m 6,8 C 13,0 C 16,1 km/h (3 Bft)
06.05.2022 10:44 14,6 C 18,3 C 62 % 1027,4 hPa 0,0 l/m 13,0 km/h (3 Bft) NO 42 0 min 2,7 UV-I 148 W/m 7,4 C 11,4 C 16,1 km/h (3 Bft)
06.05.2022 10:46 14,7 C 18,9 C 61 % 1027,4 hPa 0,0 l/m 12,0 km/h (2 Bft) N-NW 340 2 min 3,3 UV-I 385 W/m 7,3 C 11,9 C 16,1 km/h (3 Bft)
06.05.2022 10:48 15,0 C 20,0 C 60 % 1027,4 hPa 0,0 l/m 11,7 km/h (2 Bft) N 355 2 min 3,6 UV-I 668 W/m 7,3 C 12,4 C 17,7 km/h (3 Bft)
06.05.2022 10:50 15,6 C 21,1 C 59 % 1027,4 hPa 0,0 l/m 8,5 km/h (2 Bft) N-NW 336 2 min 3,6 UV-I 697 W/m 7,6 C 14,5 C 14,5 km/h (3 Bft)
06.05.2022 10:52 15,6 C 22,2 C 57 % 1027,4 hPa 0,0 l/m 10,8 km/h (2 Bft) N 350 2 min 3,7 UV-I 714 W/m 7,1 C 13,4 C 16,1 km/h (3 Bft)
06.05.2022 10:54 15,5 C 21,1 C 58 % 1027,4 hPa 0,0 l/m 10,1 km/h (2 Bft) N 360 2 min 3,1 UV-I 717 W/m 7,3 C 13,6 C 14,5 km/h (3 Bft)
06.05.2022 10:56 15,3 C 21,1 C 57 % 1027,5 hPa 0,0 l/m 14,1 km/h (3 Bft) N 360 2 min 2,6 UV-I 717 W/m 6,8 C 11,9 C 17,7 km/h (3 Bft)
06.05.2022 10:58 15,0 C 19,4 C 56 % 1027,4 hPa 0,0 l/m 11,3 km/h (2 Bft) N 355 2 min 2,5 UV-I 694 W/m 6,3 C 12,6 C 14,5 km/h (3 Bft)
06.05.2022 11:00 14,8 C 18,9 C 60 % 1027,3 hPa 0,0 l/m 8,6 km/h (2 Bft) N-NO 24 0 min 2,2 UV-I 153 W/m 7,1 C 13,6 C 14,5 km/h (3 Bft)
06.05.2022 11:02 14,7 C 19,4 C 60 % 1027,4 hPa 0,0 l/m 13,1 km/h (3 Bft) N-NO 26 0 min 3,1 UV-I 309 W/m 7,0 C 11,5 C 19,3 km/h (3 Bft)
06.05.2022 11:04 14,8 C 20,0 C 59 % 1027,3 hPa 0,0 l/m 16,0 km/h (3 Bft) N 9 2 min 3,0 UV-I 668 W/m 6,9 C 10,6 C 20,9 km/h (4 Bft)
06.05.2022 11:06 14,6 C 18,3 C 59 % 1027,4 hPa 0,0 l/m 11,5 km/h (2 Bft) N 5 0 min 2,0 UV-I 123 W/m 6,7 C 12,0 C 16,1 km/h (3 Bft)
06.05.2022 11:08 14,3 C 17,2 C 59 % 1027,2 hPa 0,0 l/m 10,9 km/h (2 Bft) N 5 0 min 2,0 UV-I 118 W/m 6,4 C 11,9 C 16,1 km/h (3 Bft)
06.05.2022 11:10 14,1 C 16,1 C 59 % 1027,4 hPa 0,0 l/m 13,5 km/h (3 Bft) N 5 0 min 2,1 UV-I 135 W/m 6,2 C 10,6 C 19,3 km/h (3 Bft)
06.05.2022 11:12 14,2 C 17,2 C 59 % 1027,3 hPa 0,0 l/m 9,3 km/h (2 Bft) N 360 0 min 2,9 UV-I 200 W/m 6,3 C 12,6 C 14,5 km/h (3 Bft)
06.05.2022 11:14 14,7 C 18,9 C 61 % 1027,3 hPa 0,0 l/m 7,3 km/h (2 Bft) N-NW 346 2 min 3,7 UV-I 598 W/m 7,3 C 14,2 C 12,9 km/h (3 Bft)
06.05.2022 11:16 15,2 C 20,6 C 60 % 1027,2 hPa 0,0 l/m 11,3 km/h (2 Bft) N 360 2 min 3,8 UV-I 729 W/m 7,5 C 12,8 C 17,7 km/h (3 Bft)
06.05.2022 11:18 15,3 C 21,7 C 59 % 1027,3 hPa 0,0 l/m 8,5 km/h (2 Bft) N-NO 15 2 min 3,1 UV-I 717 W/m 7,3 C 14,2 C 16,1 km/h (3 Bft)
06.05.2022 11:20 15,2 C 20,0 C 59 % 1027,3 hPa 0,0 l/m 9,7 km/h (2 Bft) N 9 0 min 2,1 UV-I 260 W/m 7,2 C 13,5 C 14,5 km/h (3 Bft)
06.05.2022 11:22 14,7 C 18,3 C 59 % 1027,3 hPa 0,0 l/m 8,8 km/h (2 Bft) N-NO 22 0 min 2,0 UV-I 137 W/m 6,8 C 13,4 C 14,5 km/h (3 Bft)
06.05.2022 11:24 14,4 C 17,2 C 59 % 1027,3 hPa 0,0 l/m 8,3 km/h (2 Bft) N 9 0 min 2,1 UV-I 172 W/m 6,5 C 13,3 C 12,9 km/h (3 Bft)
06.05.2022 11:26 14,4 C 17,2 C 61 % 1027,3 hPa 0,0 l/m 7,2 km/h (2 Bft) N-NW 342 0 min 2,2 UV-I 165 W/m 7,0 C 13,9 C 12,9 km/h (3 Bft)
06.05.2022 11:28 14,4 C 17,2 C 60 % 1027,3 hPa 0,0 l/m 8,8 km/h (2 Bft) N 350 0 min 2,2 UV-I 164 W/m 6,7 C 13,0 C 16,1 km/h (3 Bft)
06.05.2022 11:30 14,4 C 16,7 C 58 % 1027,3 hPa 0,0 l/m 9,5 km/h (2 Bft) N-NO 13 0 min 2,6 UV-I 181 W/m 6,2 C 12,7 C 16,1 km/h (3 Bft)
06.05.2022 11:32 14,4 C 18,3 C 62 % 1027,3 hPa 0,0 l/m 8,0 km/h (2 Bft) N-NO 19 0 min 3,2 UV-I 195 W/m 7,2 C 13,5 C 14,5 km/h (3 Bft)
06.05.2022 11:34 14,8 C 21,1 C 62 % 1027,3 hPa 0,0 l/m 9,0 km/h (2 Bft) N-NO 29 2 min 4,3 UV-I 756 W/m 7,6 C 13,4 C 12,9 km/h (3 Bft)
06.05.2022 11:36 15,3 C 21,7 C 61 % 1027,2 hPa 0,0 l/m 5,3 km/h (1 Bft) O-NO 59 2 min 4,4 UV-I 782 W/m 7,8 C 15,3 C 8,0 km/h (2 Bft)
06.05.2022 11:38 16,0 C 23,3 C 61 % 1027,3 hPa 0,0 l/m 8,8 km/h (2 Bft) N-NW 346 2 min 4,2 UV-I 777 W/m 8,5 C 14,8 C 14,5 km/h (3 Bft)
06.05.2022 11:40 16,3 C 23,9 C 57 % 1027,3 hPa 0,0 l/m 5,3 km/h (1 Bft) N 5 2 min 4,3 UV-I 616 W/m 7,8 C 16,3 C 11,3 km/h (2 Bft)
06.05.2022 11:42 16,1 C 24,4 C 56 % 1027,3 hPa 0,0 l/m 8,5 km/h (2 Bft) N 5 2 min 4,6 UV-I 689 W/m 7,3 C 15,0 C 16,1 km/h (3 Bft)
06.05.2022 11:44 16,1 C 24,4 C 59 % 1027,3 hPa 0,0 l/m 10,6 km/h (2 Bft) N-NW 336 2 min 4,6 UV-I 810 W/m 8,1 C 14,1 C 17,7 km/h (3 Bft)
06.05.2022 11:46 16,3 C 25,0 C 59 % 1027,3 hPa 0,0 l/m 10,1 km/h (2 Bft) N-NO 13 2 min 4,7 UV-I 814 W/m 8,3 C 14,5 C 17,7 km/h (3 Bft)
06.05.2022 11:48 16,3 C 26,1 C 57 % 1027,3 hPa 0,0 l/m 12,7 km/h (3 Bft) N-NO 28 2 min 4,7 UV-I 811 W/m 7,8 C 13,5 C 19,3 km/h (3 Bft)
06.05.2022 11:50 16,3 C 26,1 C 57 % 1027,2 hPa 0,0 l/m 8,6 km/h (2 Bft) N 5 2 min 4,8 UV-I 824 W/m 7,8 C 15,2 C 14,5 km/h (3 Bft)
06.05.2022 11:52 16,6 C 25,6 C 59 % 1027,3 hPa 0,0 l/m 8,0 km/h (2 Bft) N-NO 33 2 min 4,8 UV-I 832 W/m 8,6 C 15,8 C 14,5 km/h (3 Bft)
06.05.2022 11:54 16,6 C 25,6 C 58 % 1027,2 hPa 0,0 l/m 7,0 km/h (2 Bft) N-NO 31 2 min 4,8 UV-I 831 W/m 8,3 C 16,3 C 12,9 km/h (3 Bft)
06.05.2022 11:56 16,9 C 26,7 C 57 % 1027,2 hPa 0,0 l/m 8,2 km/h (2 Bft) NW 325 2 min 4,9 UV-I 844 W/m 8,3 C 16,0 C 14,5 km/h (3 Bft)
06.05.2022 11:58 17,1 C 26,7 C 57 % 1027,2 hPa 0,0 l/m 13,0 km/h (3 Bft) N-NO 22 2 min 5,0 UV-I 865 W/m 8,5 C 14,4 C 17,7 km/h (3 Bft)
06.05.2022 12:00 17,0 C 26,7 C 54 % 1027,1 hPa 0,0 l/m 7,7 km/h (2 Bft) N-NO 17 2 min 4,9 UV-I 859 W/m 7,6 C 16,3 C 14,5 km/h (3 Bft)
06.05.2022 12:02 17,1 C 26,7 C 55 % 1027,2 hPa 0,0 l/m 11,1 km/h (2 Bft) N-NO 30 2 min 4,9 UV-I 851 W/m 8,0 C 15,0 C 17,7 km/h (3 Bft)
06.05.2022 12:04 16,9 C 26,1 C 53 % 1027,1 hPa 0,0 l/m 13,1 km/h (3 Bft) N 350 2 min 5,0 UV-I 862 W/m 7,3 C 14,1 C 19,3 km/h (3 Bft)
06.05.2022 12:06 16,9 C 25,0 C 54 % 1027,1 hPa 0,0 l/m 12,1 km/h (2 Bft) NO 55 2 min 5,0 UV-I 873 W/m 7,5 C 14,4 C 19,3 km/h (3 Bft)
06.05.2022 12:08 16,9 C 25,0 C 55 % 1027,1 hPa 0,0 l/m 13,8 km/h (3 Bft) NO 39 2 min 4,9 UV-I 868 W/m 7,8 C 13,9 C 19,3 km/h (3 Bft)
06.05.2022 12:10 16,8 C 25,0 C 54 % 1027,1 hPa 0,0 l/m 6,7 km/h (2 Bft) N-NO 28 2 min 5,0 UV-I 891 W/m 7,4 C 16,7 C 12,9 km/h (3 Bft)
06.05.2022 12:12 16,9 C 26,1 C 54 % 1027,1 hPa 0,0 l/m 8,2 km/h (2 Bft) O-NO 78 2 min 5,2 UV-I 896 W/m 7,5 C 16,0 C 12,9 km/h (3 Bft)
06.05.2022 12:14 16,7 C 25,6 C 53 % 1027,1 hPa 0,0 l/m 7,4 km/h (2 Bft) O-NO 63 2 min 5,3 UV-I 883 W/m 7,1 C 16,2 C 11,3 km/h (2 Bft)
06.05.2022 12:16 16,6 C 25,0 C 52 % 1027,1 hPa 0,0 l/m 5,8 km/h (2 Bft) N 10 2 min 5,2 UV-I 873 W/m 6,7 C 16,6 C 12,9 km/h (3 Bft)
06.05.2022 12:18 16,7 C 25,6 C 54 % 1027,1 hPa 0,0 l/m 5,5 km/h (1 Bft) N 5 2 min 5,0 UV-I 849 W/m 7,3 C 16,7 C 11,3 km/h (2 Bft)
06.05.2022 12:20 16,8 C 25,0 C 51 % 1027,1 hPa 0,0 l/m 7,9 km/h (2 Bft) N 5 2 min 4,6 UV-I 858 W/m 6,6 C 16,0 C 16,1 km/h (3 Bft)
06.05.2022 12:22 16,8 C 25,6 C 54 % 1027,2 hPa 0,0 l/m 12,5 km/h (3 Bft) N 360 2 min 5,1 UV-I 882 W/m 7,4 C 14,2 C 16,1 km/h (3 Bft)
06.05.2022 12:24 17,0 C 25,6 C 54 % 1027,2 hPa 0,0 l/m 11,7 km/h (2 Bft) O-NO 57 2 min 5,0 UV-I 883 W/m 7,6 C 14,7 C 16,1 km/h (3 Bft)
06.05.2022 12:26 16,9 C 26,1 C 55 % 1027,2 hPa 0,0 l/m 7,8 km/h (2 Bft) N 9 2 min 5,1 UV-I 869 W/m 7,8 C 16,2 C 14,5 km/h (3 Bft)
06.05.2022 12:28 17,0 C 27,2 C 55 % 1027,1 hPa 0,0 l/m 14,0 km/h (3 Bft) O-NO 64 2 min 5,0 UV-I 855 W/m 7,9 C 13,9 C 22,5 km/h (4 Bft)
06.05.2022 12:30 16,9 C 25,6 C 55 % 1027,2 hPa 0,0 l/m 17,7 km/h (3 Bft) NO 44 2 min 5,1 UV-I 862 W/m 7,8 C 12,8 C 22,5 km/h (4 Bft)
06.05.2022 12:32 16,7 C 26,1 C 52 % 1027,1 hPa 0,0 l/m 10,7 km/h (2 Bft) N 5 2 min 5,4 UV-I 894 W/m 6,8 C 14,7 C 16,1 km/h (3 Bft)
06.05.2022 12:34 17,0 C 27,2 C 57 % 1027,1 hPa 0,0 l/m 9,0 km/h (2 Bft) N 10 2 min 5,6 UV-I 932 W/m 8,4 C 15,7 C 14,5 km/h (3 Bft)
06.05.2022 12:36 17,1 C 27,2 C 54 % 1027,1 hPa 0,0 l/m 7,7 km/h (2 Bft) O-NO 65 2 min 5,7 UV-I 962 W/m 7,7 C 16,5 C 12,9 km/h (3 Bft)
06.05.2022 12:38 17,3 C 27,2 C 53 % 1027,1 hPa 0,0 l/m 7,7 km/h (2 Bft) O 83 2 min 5,6 UV-I 970 W/m 7,6 C 16,7 C 14,5 km/h (3 Bft)
06.05.2022 12:40 17,1 C 26,7 C 52 % 1027,0 hPa 0,0 l/m 12,5 km/h (3 Bft) O 92 2 min 5,5 UV-I 956 W/m 7,2 C 14,5 C 17,7 km/h (3 Bft)
06.05.2022 12:42 17,2 C 25,6 C 54 % 1027,0 hPa 0,0 l/m 10,4 km/h (2 Bft) NO 37 2 min 5,4 UV-I 965 W/m 7,8 C 15,4 C 19,3 km/h (3 Bft)
06.05.2022 12:44 17,5 C 26,7 C 53 % 1027,0 hPa 0,0 l/m 12,4 km/h (3 Bft) O-NO 76 2 min 5,5 UV-I 976 W/m 7,8 C 15,0 C 20,9 km/h (4 Bft)
06.05.2022 12:46 17,4 C 26,1 C 53 % 1027,0 hPa 0,0 l/m 16,8 km/h (3 Bft) O-NO 69 2 min 5,7 UV-I 1007 W/m 7,7 C 13,6 C 22,5 km/h (4 Bft)
06.05.2022 12:48 17,3 C 25,6 C 52 % 1027,1 hPa 0,0 l/m 15,0 km/h (3 Bft) NO 47 2 min 5,7 UV-I 1004 W/m 7,3 C 14,0 C 20,9 km/h (4 Bft)
06.05.2022 12:50 17,3 C 25,6 C 50 % 1027,1 hPa 0,0 l/m 11,8 km/h (2 Bft) O-NO 63 2 min 5,7 UV-I 1012 W/m 6,8 C 15,0 C 19,3 km/h (3 Bft)
06.05.2022 12:52 17,3 C 26,7 C 52 % 1027,0 hPa 0,0 l/m 10,8 km/h (2 Bft) O-SO 102 2 min 5,6 UV-I 1006 W/m 7,3 C 15,4 C 16,1 km/h (3 Bft)
06.05.2022 12:54 17,3 C 26,7 C 50 % 1027,1 hPa 0,0 l/m 11,5 km/h (2 Bft) NO 52 2 min 5,6 UV-I 1029 W/m 6,8 C 15,1 C 19,3 km/h (3 Bft)
06.05.2022 12:56 17,2 C 26,1 C 53 % 1027,0 hPa 0,0 l/m 9,9 km/h (2 Bft) NO 49 2 min 3,9 UV-I 698 W/m 7,5 C 15,6 C 16,1 km/h (3 Bft)
06.05.2022 12:58 16,9 C 25,0 C 50 % 1027,0 hPa 0,0 l/m 6,1 km/h (2 Bft) NO 42 2 min 4,9 UV-I 650 W/m 6,4 C 16,9 C 12,9 km/h (3 Bft)
06.05.2022 13:00 16,9 C 25,6 C 52 % 1027,1 hPa 0,0 l/m 4,7 km/h (1 Bft) N 350 2 min 4,4 UV-I 780 W/m 7,0 C 16,9 C 6,4 km/h (2 Bft)
06.05.2022 13:02 16,8 C 23,9 C 55 % 1027,1 hPa 0,0 l/m 9,9 km/h (2 Bft) N-NW 347 0 min 2,6 UV-I 299 W/m 7,7 C 15,1 C 16,1 km/h (3 Bft)
06.05.2022 13:04 16,6 C 22,8 C 52 % 1027,1 hPa 0,0 l/m 7,6 km/h (2 Bft) N-NO 23 0 min 2,5 UV-I 259 W/m 6,7 C 16,0 C 11,3 km/h (2 Bft)
06.05.2022 13:06 16,3 C 21,7 C 51 % 1027,0 hPa 0,0 l/m 5,6 km/h (1 Bft) N-NO 26 0 min 2,5 UV-I 254 W/m 6,1 C 16,3 C 9,7 km/h (2 Bft)
06.05.2022 13:08 16,0 C 20,6 C 52 % 1027,0 hPa 0,0 l/m 6,6 km/h (2 Bft) NO 50 0 min 2,7 UV-I 256 W/m 6,2 C 15,9 C 11,3 km/h (2 Bft)
06.05.2022 13:10 16,1 C 21,1 C 55 % 1027,0 hPa 0,0 l/m 9,1 km/h (2 Bft) O-NO 60 0 min 4,3 UV-I 264 W/m 7,1 C 14,7 C 17,7 km/h (3 Bft)
06.05.2022 13:12 16,4 C 23,9 C 53 % 1026,9 hPa 0,0 l/m 10,5 km/h (2 Bft) N-NO 30 2 min 5,6 UV-I 814 W/m 6,8 C 14,5 C 16,1 km/h (3 Bft)
06.05.2022 13:14 16,7 C 26,1 C 51 % 1026,8 hPa 0,0 l/m 10,2 km/h (2 Bft) NO 44 2 min 5,5 UV-I 908 W/m 6,5 C 14,9 C 16,1 km/h (3 Bft)
06.05.2022 13:16 17,0 C 26,7 C 52 % 1026,9 hPa 0,0 l/m 10,9 km/h (2 Bft) O-NO 65 2 min 5,5 UV-I 895 W/m 7,1 C 15,0 C 17,7 km/h (3 Bft)
06.05.2022 13:18 17,0 C 25,0 C 50 % 1026,9 hPa 0,0 l/m 13,7 km/h (3 Bft) O-NO 64 2 min 5,5 UV-I 889 W/m 6,5 C 14,0 C 17,7 km/h (3 Bft)
06.05.2022 13:20 17,1 C 25,6 C 51 % 1026,9 hPa 0,0 l/m 12,6 km/h (3 Bft) O-NO 70 2 min 5,5 UV-I 884 W/m 6,9 C 14,5 C 19,3 km/h (3 Bft)
06.05.2022 13:22 17,2 C 25,6 C 51 % 1026,9 hPa 0,0 l/m 9,2 km/h (2 Bft) NO 42 2 min 5,5 UV-I 893 W/m 7,0 C 15,9 C 16,1 km/h (3 Bft)
06.05.2022 13:24 17,2 C 26,7 C 51 % 1026,9 hPa 0,0 l/m 7,0 km/h (2 Bft) O-NO 76 2 min 5,6 UV-I 914 W/m 7,0 C 16,9 C 12,9 km/h (3 Bft)
06.05.2022 13:26 17,2 C 26,1 C 51 % 1026,8 hPa 0,0 l/m 11,3 km/h (2 Bft) O-NO 72 2 min 5,7 UV-I 938 W/m 7,0 C 15,1 C 17,7 km/h (3 Bft)
06.05.2022 13:28 17,2 C 25,6 C 51 % 1026,8 hPa 0,0 l/m 11,3 km/h (2 Bft) O-NO 63 2 min 5,8 UV-I 960 W/m 7,0 C 15,1 C 16,1 km/h (3 Bft)
06.05.2022 13:30 17,4 C 27,2 C 50 % 1026,9 hPa 0,0 l/m 12,0 km/h (2 Bft) O-NO 64 2 min 5,8 UV-I 962 W/m 6,9 C 15,0 C 19,3 km/h (3 Bft)
06.05.2022 13:32 17,3 C 27,2 C 51 % 1026,7 hPa 0,0 l/m 13,3 km/h (3 Bft) O-NO 63 2 min 5,8 UV-I 957 W/m 7,1 C 14,5 C 19,3 km/h (3 Bft)
06.05.2022 13:34 17,2 C 26,1 C 47 % 1026,8 hPa 0,0 l/m 9,7 km/h (2 Bft) NO 47 2 min 5,3 UV-I 967 W/m 5,8 C 15,7 C 16,1 km/h (3 Bft)
06.05.2022 13:36 17,5 C 27,2 C 52 % 1026,7 hPa 0,0 l/m 5,9 km/h (2 Bft) O 86 2 min 5,8 UV-I 974 W/m 7,5 C 17,5 C 9,7 km/h (2 Bft)
06.05.2022 13:38 17,7 C 27,2 C 51 % 1026,8 hPa 0,0 l/m 6,8 km/h (2 Bft) N-NO 12 2 min 5,9 UV-I 975 W/m 7,4 C 17,5 C 14,5 km/h (3 Bft)
06.05.2022 13:40 17,8 C 27,8 C 53 % 1026,7 hPa 0,0 l/m 10,4 km/h (2 Bft) N-NW 344 2 min 5,9 UV-I 963 W/m 8,1 C 16,1 C 19,3 km/h (3 Bft)
06.05.2022 13:42 18,1 C 27,8 C 50 % 1026,6 hPa 0,0 l/m 18,3 km/h (3 Bft) NO 43 2 min 5,9 UV-I 976 W/m 7,5 C 14,1 C 25,7 km/h (4 Bft)
06.05.2022 13:44 17,8 C 27,2 C 48 % 1026,6 hPa 0,0 l/m 9,1 km/h (2 Bft) NO 45 2 min 5,8 UV-I 1003 W/m 6,6 C 16,6 C 14,5 km/h (3 Bft)
06.05.2022 13:46 17,7 C 27,2 C 47 % 1026,6 hPa 0,0 l/m 12,8 km/h (3 Bft) N-NO 27 2 min 4,2 UV-I 1014 W/m 6,2 C 15,1 C 19,3 km/h (3 Bft)
06.05.2022 13:48 17,4 C 26,7 C 49 % 1026,7 hPa 0,0 l/m 11,8 km/h (2 Bft) N-NO 24 2 min 5,2 UV-I 987 W/m 6,6 C 15,1 C 16,1 km/h (3 Bft)
06.05.2022 13:50 17,4 C 27,8 C 48 % 1026,7 hPa 0,0 l/m 9,0 km/h (2 Bft) N-NO 13 2 min 5,4 UV-I 935 W/m 6,3 C 16,2 C 14,5 km/h (3 Bft)
06.05.2022 13:52 17,4 C 27,8 C 50 % 1026,6 hPa 0,0 l/m 9,6 km/h (2 Bft) N 355 2 min 5,8 UV-I 940 W/m 6,9 C 15,9 C 17,7 km/h (3 Bft)
06.05.2022 13:54 17,4 C 28,9 C 48 % 1026,7 hPa 0,0 l/m 8,6 km/h (2 Bft) N 350 2 min 5,8 UV-I 959 W/m 6,3 C 16,4 C 14,5 km/h (3 Bft)
06.05.2022 13:56 17,4 C 29,4 C 48 % 1026,6 hPa 0,0 l/m 6,8 km/h (2 Bft) N-NO 19 2 min 6,0 UV-I 982 W/m 6,3 C 17,2 C 11,3 km/h (2 Bft)
06.05.2022 13:58 17,3 C 29,4 C 48 % 1026,6 hPa 0,0 l/m 3,9 km/h (1 Bft) N-NO 19 2 min 5,9 UV-I 980 W/m 6,2 C 17,3 C 8,0 km/h (2 Bft)
06.05.2022 14:00 17,4 C 27,8 C 52 % 1026,6 hPa 0,0 l/m 6,5 km/h (2 Bft) O 93 2 min 5,7 UV-I 933 W/m 7,4 C 17,4 C 11,3 km/h (2 Bft)
06.05.2022 14:02 17,6 C 27,8 C 49 % 1026,5 hPa 0,0 l/m 7,2 km/h (2 Bft) O 91 2 min 5,6 UV-I 912 W/m 6,8 C 17,2 C 12,9 km/h (3 Bft)
06.05.2022 14:04 17,4 C 26,7 C 47 % 1026,5 hPa 0,0 l/m 3,3 km/h (1 Bft) SO 128 2 min 5,4 UV-I 907 W/m 6,0 C 17,4 C 6,4 km/h (2 Bft)
06.05.2022 14:06 17,2 C 25,6 C 51 % 1026,5 hPa 0,0 l/m 4,9 km/h (1 Bft) N-NO 29 2 min 5,6 UV-I 934 W/m 7,0 C 17,2 C 14,5 km/h (3 Bft)
06.05.2022 14:08 17,5 C 25,6 C 51 % 1026,5 hPa 0,0 l/m 14,8 km/h (3 Bft) N-NW 335 2 min 4,8 UV-I 960 W/m 7,3 C 14,3 C 20,9 km/h (4 Bft)
06.05.2022 14:10 17,6 C 26,7 C 50 % 1026,5 hPa 0,0 l/m 12,4 km/h (3 Bft) N 349 2 min 5,1 UV-I 926 W/m 7,1 C 15,1 C 19,3 km/h (3 Bft)
06.05.2022 14:12 17,7 C 26,7 C 48 % 1026,5 hPa 0,0 l/m 12,6 km/h (3 Bft) N-NO 22 2 min 5,2 UV-I 812 W/m 6,6 C 15,2 C 22,5 km/h (4 Bft)
06.05.2022 14:14 17,6 C 27,8 C 49 % 1026,5 hPa 0,0 l/m 18,7 km/h (3 Bft) N-NO 20 2 min 5,7 UV-I 807 W/m 6,8 C 13,4 C 25,7 km/h (4 Bft)
06.05.2022 14:16 17,6 C 28,3 C 50 % 1026,4 hPa 0,0 l/m 12,9 km/h (3 Bft) NO 42 2 min 5,1 UV-I 833 W/m 7,1 C 15,0 C 19,3 km/h (3 Bft)
06.05.2022 14:18 17,3 C 27,2 C 48 % 1026,5 hPa 0,0 l/m 11,8 km/h (2 Bft) N-NO 32 2 min 4,6 UV-I 877 W/m 6,2 C 15,0 C 19,3 km/h (3 Bft)
06.05.2022 14:20 17,4 C 28,3 C 48 % 1026,3 hPa 0,0 l/m 7,4 km/h (2 Bft) O-NO 77 2 min 5,5 UV-I 880 W/m 6,3 C 16,9 C 12,9 km/h (3 Bft)
06.05.2022 14:22 17,7 C 27,8 C 46 % 1026,5 hPa 0,0 l/m 10,1 km/h (2 Bft) O-NO 67 2 min 5,5 UV-I 897 W/m 5,9 C 16,1 C 14,5 km/h (3 Bft)
06.05.2022 14:24 17,5 C 27,8 C 46 % 1026,5 hPa 0,0 l/m 7,6 km/h (2 Bft) O-NO 67 2 min 5,5 UV-I 900 W/m 5,8 C 16,9 C 11,3 km/h (2 Bft)
06.05.2022 14:26 17,6 C 28,3 C 47 % 1026,5 hPa 0,0 l/m 7,6 km/h (2 Bft) O-NO 76 2 min 5,6 UV-I 899 W/m 6,2 C 17,0 C 14,5 km/h (3 Bft)
06.05.2022 14:28 17,3 C 28,3 C 46 % 1026,5 hPa 0,0 l/m 6,5 km/h (2 Bft) O 98 2 min 5,6 UV-I 894 W/m 5,6 C 17,3 C 12,9 km/h (3 Bft)
06.05.2022 14:30 17,2 C 28,3 C 51 % 1026,4 hPa 0,0 l/m 3,6 km/h (1 Bft) O 86 2 min 5,5 UV-I 901 W/m 7,0 C 17,2 C 6,4 km/h (2 Bft)
06.05.2022 14:32 17,6 C 28,3 C 50 % 1026,4 hPa 0,0 l/m 6,7 km/h (2 Bft) N-NO 17 2 min 5,3 UV-I 870 W/m 7,1 C 17,5 C 12,9 km/h (3 Bft)
06.05.2022 14:34 18,3 C 29,4 C 53 % 1026,4 hPa 0,0 l/m 7,8 km/h (2 Bft) N-NW 331 2 min 5,3 UV-I 871 W/m 8,6 C 17,7 C 17,7 km/h (3 Bft)
06.05.2022 14:36 18,5 C 29,4 C 47 % 1026,4 hPa 0,0 l/m 5,6 km/h (1 Bft) NW 313 2 min 5,5 UV-I 923 W/m 7,0 C 18,5 C 12,9 km/h (3 Bft)
06.05.2022 14:38 18,2 C 28,3 C 48 % 1026,4 hPa 0,0 l/m 2,6 km/h (1 Bft) N-NO 17 2 min 5,6 UV-I 970 W/m 7,0 C 18,2 C 11,3 km/h (2 Bft)
06.05.2022 14:40 18,0 C 27,8 C 44 % 1026,4 hPa 0,0 l/m 6,6 km/h (2 Bft) N-NW 344 2 min 4,2 UV-I 707 W/m 5,6 C 17,9 C 12,9 km/h (3 Bft)
06.05.2022 14:42 18,2 C 26,1 C 49 % 1026,4 hPa 0,0 l/m 6,9 km/h (2 Bft) N 355 2 min 5,1 UV-I 656 W/m 7,3 C 18,0 C 9,7 km/h (2 Bft)
06.05.2022 14:44 18,1 C 27,2 C 49 % 1026,5 hPa 0,0 l/m 9,0 km/h (2 Bft) N 11 2 min 4,0 UV-I 882 W/m 7,2 C 16,9 C 12,9 km/h (3 Bft)
06.05.2022 14:46 17,9 C 26,7 C 48 % 1026,4 hPa 0,0 l/m 11,4 km/h (2 Bft) N-NO 23 2 min 4,6 UV-I 874 W/m 6,7 C 15,8 C 16,1 km/h (3 Bft)
06.05.2022 14:48 17,9 C 27,8 C 48 % 1026,3 hPa 0,0 l/m 7,6 km/h (2 Bft) N-NO 26 2 min 5,0 UV-I 910 W/m 6,7 C 17,3 C 12,9 km/h (3 Bft)
06.05.2022 14:50 17,7 C 27,2 C 49 % 1026,3 hPa 0,0 l/m 6,5 km/h (2 Bft) N-NO 23 2 min 4,5 UV-I 574 W/m 6,9 C 17,7 C 9,7 km/h (2 Bft)
06.05.2022 14:52 17,7 C 28,9 C 46 % 1026,3 hPa 0,0 l/m 6,2 km/h (2 Bft) N-NO 24 2 min 5,4 UV-I 841 W/m 5,9 C 17,7 C 9,7 km/h (2 Bft)
06.05.2022 14:54 17,9 C 30,6 C 48 % 1026,4 hPa 0,0 l/m 6,1 km/h (2 Bft) N-NO 30 2 min 5,3 UV-I 887 W/m 6,7 C 17,9 C 9,7 km/h (2 Bft)
06.05.2022 14:56 17,8 C 30,0 C 46 % 1026,3 hPa 0,0 l/m 9,3 km/h (2 Bft) NO 43 2 min 5,2 UV-I 895 W/m 6,0 C 16,5 C 14,5 km/h (3 Bft)
06.05.2022 14:58 17,8 C 29,4 C 47 % 1026,2 hPa 0,0 l/m 4,9 km/h (1 Bft) O-NO 59 2 min 5,3 UV-I 908 W/m 6,3 C 17,8 C 8,0 km/h (2 Bft)
06.05.2022 15:00 18,0 C 30,0 C 45 % 1026,3 hPa 0,0 l/m 6,4 km/h (2 Bft) N 350 2 min 5,4 UV-I 916 W/m 5,9 C 18,0 C 9,7 km/h (2 Bft)
06.05.2022 15:02 18,1 C 30,6 C 44 % 1026,3 hPa 0,0 l/m 7,8 km/h (2 Bft) N-NW 346 2 min 5,5 UV-I 939 W/m 5,7 C 17,4 C 12,9 km/h (3 Bft)
06.05.2022 15:04 17,9 C 29,4 C 42 % 1026,3 hPa 0,0 l/m 2,8 km/h (1 Bft) N-NW 330 2 min 5,5 UV-I 947 W/m 4,8 C 17,9 C 4,8 km/h (1 Bft)
06.05.2022 15:06 17,8 C 30,0 C 44 % 1026,2 hPa 0,0 l/m 5,1 km/h (1 Bft) N-NO 29 2 min 5,4 UV-I 944 W/m 5,4 C 17,8 C 9,7 km/h (2 Bft)
06.05.2022 15:08 18,4 C 30,0 C 53 % 1026,3 hPa 0,0 l/m 9,4 km/h (2 Bft) N-NO 19 2 min 4,9 UV-I 905 W/m 8,6 C 17,1 C 14,5 km/h (3 Bft)
06.05.2022 15:10 18,1 C 27,8 C 50 % 1026,2 hPa 0,0 l/m 8,4 km/h (2 Bft) N-NW 347 2 min 3,3 UV-I 584 W/m 7,5 C 17,2 C 12,9 km/h (3 Bft)
06.05.2022 15:12 17,8 C 26,1 C 48 % 1026,3 hPa 0,0 l/m 12,5 km/h (3 Bft) N-NW 340 0 min 3,2 UV-I 269 W/m 6,6 C 15,3 C 16,1 km/h (3 Bft)
06.05.2022 15:14 17,4 C 23,9 C 45 % 1026,3 hPa 0,0 l/m 13,1 km/h (3 Bft) N-NW 340 0 min 2,8 UV-I 222 W/m 5,3 C 14,7 C 16,1 km/h (3 Bft)
06.05.2022 15:16 17,0 C 22,2 C 47 % 1026,3 hPa 0,0 l/m 8,3 km/h (2 Bft) NW 311 0 min 3,2 UV-I 212 W/m 5,6 C 16,1 C 12,9 km/h (3 Bft)
06.05.2022 15:18 17,3 C 25,0 C 50 % 1026,2 hPa 0,0 l/m 4,6 km/h (1 Bft) NW 306 2 min 4,8 UV-I 605 W/m 6,8 C 17,3 C 8,0 km/h (2 Bft)
06.05.2022 15:20 17,8 C 26,7 C 48 % 1026,1 hPa 0,0 l/m 7,1 km/h (2 Bft) NW 309 2 min 4,9 UV-I 821 W/m 6,6 C 17,5 C 16,1 km/h (3 Bft)
06.05.2022 15:22 17,9 C 27,2 C 45 % 1026,2 hPa 0,0 l/m 4,3 km/h (1 Bft) N-NW 344 2 min 4,8 UV-I 808 W/m 5,8 C 17,9 C 11,3 km/h (2 Bft)
06.05.2022 15:24 18,3 C 28,3 C 49 % 1026,2 hPa 0,0 l/m 6,8 km/h (2 Bft) N-NO 17 2 min 4,9 UV-I 821 W/m 7,4 C 18,1 C 16,1 km/h (3 Bft)
06.05.2022 15:26 18,4 C 29,4 C 45 % 1026,2 hPa 0,0 l/m 6,6 km/h (2 Bft) NW 321 2 min 4,9 UV-I 836 W/m 6,3 C 18,3 C 9,7 km/h (2 Bft)
06.05.2022 15:28 18,3 C 28,9 C 45 % 1026,2 hPa 0,0 l/m 7,2 km/h (2 Bft) N 350 2 min 4,5 UV-I 831 W/m 6,2 C 17,9 C 12,9 km/h (3 Bft)
06.05.2022 15:30 17,8 C 28,3 C 43 % 1026,1 hPa 0,0 l/m 4,9 km/h (1 Bft) N-NW 333 2 min 4,3 UV-I 728 W/m 5,1 C 17,8 C 17,7 km/h (3 Bft)
06.05.2022 15:32 18,0 C 27,8 C 48 % 1026,2 hPa 0,0 l/m 14,6 km/h (3 Bft) N 355 2 min 4,7 UV-I 776 W/m 6,8 C 14,9 C 22,5 km/h (4 Bft)
06.05.2022 15:34 18,2 C 28,9 C 48 % 1026,2 hPa 0,0 l/m 13,0 km/h (3 Bft) N-NW 344 2 min 4,4 UV-I 849 W/m 7,0 C 15,6 C 16,1 km/h (3 Bft)
06.05.2022 15:36 17,9 C 26,7 C 50 % 1026,1 hPa 0,0 l/m 9,6 km/h (2 Bft) N 360 2 min 2,8 UV-I 448 W/m 7,3 C 16,5 C 14,5 km/h (3 Bft)
06.05.2022 15:38 17,7 C 24,4 C 49 % 1026,2 hPa 0,0 l/m 10,3 km/h (2 Bft) N-NO 17 0 min 2,7 UV-I 229 W/m 6,9 C 16,0 C 16,1 km/h (3 Bft)
06.05.2022 15:40 17,3 C 23,3 C 47 % 1026,3 hPa 0,0 l/m 7,1 km/h (2 Bft) N 5 0 min 2,6 UV-I 223 W/m 5,9 C 17,0 C 12,9 km/h (3 Bft)
06.05.2022 15:42 17,1 C 23,3 C 48 % 1026,2 hPa 0,0 l/m 4,1 km/h (1 Bft) N-NW 332 0 min 3,3 UV-I 296 W/m 6,0 C 17,1 C 6,4 km/h (2 Bft)
06.05.2022 15:44 17,2 C 25,0 C 48 % 1026,3 hPa 0,0 l/m 3,6 km/h (1 Bft) N-NO 18 2 min 4,4 UV-I 722 W/m 6,1 C 17,2 C 8,0 km/h (2 Bft)
06.05.2022 15:46 17,6 C 27,2 C 49 % 1026,2 hPa 0,0 l/m 7,8 km/h (2 Bft) O-NO 61 2 min 4,3 UV-I 771 W/m 6,8 C 16,9 C 16,1 km/h (3 Bft)
06.05.2022 15:48 17,7 C 27,2 C 47 % 1026,2 hPa 0,0 l/m 5,7 km/h (1 Bft) O-NO 60 2 min 4,3 UV-I 766 W/m 6,2 C 17,7 C 9,7 km/h (2 Bft)
06.05.2022 15:50 17,9 C 27,8 C 49 % 1026,1 hPa 0,0 l/m 5,1 km/h (1 Bft) N-NO 24 2 min 4,3 UV-I 756 W/m 7,0 C 17,9 C 12,9 km/h (3 Bft)
06.05.2022 15:52 18,2 C 28,9 C 46 % 1026,2 hPa 0,0 l/m 6,4 km/h (2 Bft) N-NW 348 2 min 4,3 UV-I 742 W/m 6,4 C 18,2 C 14,5 km/h (3 Bft)
06.05.2022 15:54 18,4 C 28,9 C 47 % 1026,1 hPa 0,0 l/m 6,4 km/h (2 Bft) N-NW 346 2 min 4,3 UV-I 755 W/m 6,9 C 18,4 C 12,9 km/h (3 Bft)
06.05.2022 15:56 18,4 C 28,9 C 45 % 1026,2 hPa 0,0 l/m 5,8 km/h (2 Bft) N-NO 27 2 min 4,4 UV-I 778 W/m 6,3 C 18,4 C 8,0 km/h (2 Bft)
06.05.2022 15:58 18,6 C 29,4 C 48 % 1026,1 hPa 0,0 l/m 6,7 km/h (2 Bft) NW 311 2 min 4,4 UV-I 787 W/m 7,4 C 18,5 C 12,9 km/h (3 Bft)
06.05.2022 16:00 18,4 C 28,9 C 45 % 1026,2 hPa 0,0 l/m 9,0 km/h (2 Bft) N 355 2 min 4,4 UV-I 787 W/m 6,3 C 17,3 C 14,5 km/h (3 Bft)
06.05.2022 16:02 18,3 C 28,9 C 47 % 1026,1 hPa 0,0 l/m 12,1 km/h (2 Bft) NO 44 2 min 4,3 UV-I 781 W/m 6,8 C 16,0 C 19,3 km/h (3 Bft)
06.05.2022 16:04 18,4 C 29,4 C 48 % 1026,0 hPa 0,0 l/m 9,4 km/h (2 Bft) N-NO 17 2 min 4,2 UV-I 770 W/m 7,2 C 17,1 C 16,1 km/h (3 Bft)
06.05.2022 16:06 18,6 C 30,0 C 48 % 1026,1 hPa 0,0 l/m 13,4 km/h (3 Bft) N 5 2 min 4,2 UV-I 759 W/m 7,4 C 16,0 C 17,7 km/h (3 Bft)
06.05.2022 16:08 18,6 C 30,6 C 46 % 1026,0 hPa 0,0 l/m 12,7 km/h (3 Bft) NO 40 2 min 4,1 UV-I 734 W/m 6,8 C 16,2 C 17,7 km/h (3 Bft)
06.05.2022 16:10 18,3 C 30,6 C 45 % 1026,1 hPa 0,0 l/m 11,7 km/h (2 Bft) NO 44 2 min 4,0 UV-I 731 W/m 6,2 C 16,2 C 17,7 km/h (3 Bft)
06.05.2022 16:12 18,3 C 30,6 C 49 % 1025,8 hPa 0,0 l/m 9,1 km/h (2 Bft) N-NW 342 2 min 4,0 UV-I 724 W/m 7,4 C 17,1 C 14,5 km/h (3 Bft)
06.05.2022 16:14 18,4 C 30,0 C 45 % 1026,0 hPa 0,0 l/m 9,9 km/h (2 Bft) NW 316 2 min 3,9 UV-I 711 W/m 6,3 C 16,9 C 22,5 km/h (4 Bft)
06.05.2022 16:16 18,3 C 29,4 C 45 % 1026,0 hPa 0,0 l/m 8,9 km/h (2 Bft) NW 323 2 min 3,9 UV-I 702 W/m 6,2 C 17,2 C 14,5 km/h (3 Bft)
06.05.2022 16:18 18,4 C 29,4 C 47 % 1026,0 hPa 0,0 l/m 9,9 km/h (2 Bft) N 355 2 min 3,8 UV-I 692 W/m 6,9 C 16,9 C 14,5 km/h (3 Bft)
06.05.2022 16:20 18,2 C 29,4 C 46 % 1025,9 hPa 0,0 l/m 9,8 km/h (2 Bft) N-NW 342 2 min 3,8 UV-I 686 W/m 6,4 C 16,7 C 14,5 km/h (3 Bft)
06.05.2022 16:22 18,1 C 30,0 C 44 % 1025,9 hPa 0,0 l/m 6,6 km/h (2 Bft) N 360 2 min 3,8 UV-I 685 W/m 5,7 C 18,0 C 16,1 km/h (3 Bft)
06.05.2022 16:24 18,0 C 30,0 C 45 % 1025,9 hPa 0,0 l/m 6,4 km/h (2 Bft) N-NW 343 2 min 3,8 UV-I 681 W/m 5,9 C 18,0 C 9,7 km/h (2 Bft)
06.05.2022 16:26 18,1 C 30,0 C 49 % 1025,9 hPa 0,0 l/m 4,3 km/h (1 Bft) N-NW 346 2 min 3,7 UV-I 673 W/m 7,2 C 18,1 C 6,4 km/h (2 Bft)
06.05.2022 16:28 18,0 C 30,6 C 47 % 1025,9 hPa 0,0 l/m 2,6 km/h (1 Bft) N-NW 346 2 min 3,6 UV-I 658 W/m 6,5 C 18,0 C 4,8 km/h (1 Bft)
06.05.2022 16:30 18,2 C 30,0 C 49 % 1025,9 hPa 0,0 l/m 7,6 km/h (2 Bft) N 360 2 min 3,6 UV-I 655 W/m 7,3 C 17,6 C 16,1 km/h (3 Bft)
06.05.2022 16:32 18,3 C 30,0 C 47 % 1025,9 hPa 0,0 l/m 11,0 km/h (2 Bft) N-NO 13 2 min 3,6 UV-I 646 W/m 6,8 C 16,4 C 16,1 km/h (3 Bft)
06.05.2022 16:34 18,2 C 30,0 C 45 % 1025,9 hPa 0,0 l/m 8,1 km/h (2 Bft) N 350 2 min 3,5 UV-I 647 W/m 6,1 C 17,4 C 14,5 km/h (3 Bft)
06.05.2022 16:36 18,1 C 30,0 C 43 % 1025,9 hPa 0,0 l/m 3,7 km/h (1 Bft) SW 226 2 min 3,5 UV-I 649 W/m 5,3 C 18,1 C 6,4 km/h (2 Bft)
06.05.2022 16:38 17,9 C 28,3 C 47 % 1026,0 hPa 0,0 l/m 5,7 km/h (1 Bft) N-NW 337 2 min 3,5 UV-I 642 W/m 6,4 C 17,9 C 17,7 km/h (3 Bft)
06.05.2022 16:40 18,0 C 28,3 C 45 % 1025,9 hPa 0,0 l/m 4,8 km/h (1 Bft) NW 317 2 min 3,5 UV-I 653 W/m 5,9 C 18,0 C 9,7 km/h (2 Bft)
06.05.2022 16:42 18,0 C 28,3 C 47 % 1025,9 hPa 0,0 l/m 4,9 km/h (1 Bft) N-NW 331 2 min 3,4 UV-I 652 W/m 6,5 C 18,0 C 16,1 km/h (3 Bft)
06.05.2022 16:44 18,1 C 28,9 C 45 % 1025,9 hPa 0,0 l/m 12,8 km/h (3 Bft) N-NW 340 2 min 3,3 UV-I 639 W/m 6,0 C 15,6 C 17,7 km/h (3 Bft)
06.05.2022 16:46 18,1 C 29,4 C 46 % 1025,9 hPa 0,0 l/m 6,9 km/h (2 Bft) N-NW 345 2 min 3,3 UV-I 633 W/m 6,3 C 17,9 C 9,7 km/h (2 Bft)
06.05.2022 16:48 18,1 C 29,4 C 46 % 1025,8 hPa 0,0 l/m 5,4 km/h (1 Bft) N 360 2 min 3,3 UV-I 637 W/m 6,3 C 18,1 C 8,0 km/h (2 Bft)
06.05.2022 16:50 17,9 C 28,9 C 45 % 1025,7 hPa 0,0 l/m 3,0 km/h (1 Bft) N 360 2 min 3,3 UV-I 648 W/m 5,8 C 17,9 C 4,8 km/h (1 Bft)
06.05.2022 16:52 17,9 C 28,3 C 47 % 1025,8 hPa 0,0 l/m 8,4 km/h (2 Bft) N 10 2 min 3,3 UV-I 648 W/m 6,4 C 17,0 C 14,5 km/h (3 Bft)
06.05.2022 16:54 18,2 C 29,4 C 49 % 1025,8 hPa 0,0 l/m 13,5 km/h (3 Bft) N-NW 343 2 min 3,3 UV-I 646 W/m 7,3 C 15,5 C 20,9 km/h (4 Bft)
06.05.2022 16:56 18,2 C 29,4 C 47 % 1025,8 hPa 0,0 l/m 9,9 km/h (2 Bft) N-NO 15 2 min 3,1 UV-I 631 W/m 6,7 C 16,7 C 14,5 km/h (3 Bft)
06.05.2022 16:58 18,3 C 28,9 C 49 % 1025,8 hPa 0,0 l/m 13,5 km/h (3 Bft) N 350 2 min 3,0 UV-I 609 W/m 7,4 C 15,6 C 20,9 km/h (4 Bft)
06.05.2022 17:00 18,1 C 28,3 C 46 % 1025,8 hPa 0,0 l/m 11,9 km/h (2 Bft) N-NW 340 2 min 2,9 UV-I 602 W/m 6,3 C 15,9 C 14,5 km/h (3 Bft)
06.05.2022 17:02 17,9 C 27,8 C 46 % 1025,8 hPa 0,0 l/m 15,0 km/h (3 Bft) N 5 2 min 2,9 UV-I 589 W/m 6,1 C 14,7 C 19,3 km/h (3 Bft)
06.05.2022 17:04 17,8 C 27,8 C 47 % 1025,9 hPa 0,0 l/m 7,9 km/h (2 Bft) N-NW 345 2 min 2,8 UV-I 569 W/m 6,3 C 17,1 C 14,5 km/h (3 Bft)
06.05.2022 17:06 17,9 C 28,3 C 49 % 1025,9 hPa 0,0 l/m 7,8 km/h (2 Bft) N 360 2 min 2,7 UV-I 566 W/m 7,0 C 17,2 C 12,9 km/h (3 Bft)
06.05.2022 17:08 17,8 C 28,3 C 47 % 1025,8 hPa 0,0 l/m 9,1 km/h (2 Bft) N-NO 16 2 min 2,6 UV-I 551 W/m 6,3 C 16,6 C 14,5 km/h (3 Bft)
06.05.2022 17:10 17,8 C 27,2 C 50 % 1025,9 hPa 0,0 l/m 9,3 km/h (2 Bft) N 349 2 min 2,2 UV-I 561 W/m 7,2 C 16,5 C 14,5 km/h (3 Bft)
06.05.2022 17:12 17,6 C 25,6 C 51 % 1025,7 hPa 0,0 l/m 6,4 km/h (2 Bft) N 355 0 min 1,9 UV-I 226 W/m 7,3 C 17,6 C 11,3 km/h (2 Bft)
06.05.2022 17:14 17,4 C 25,6 C 49 % 1025,8 hPa 0,0 l/m 5,5 km/h (1 Bft) N-NW 348 2 min 2,5 UV-I 360 W/m 6,6 C 17,4 C 8,0 km/h (2 Bft)
06.05.2022 17:16 17,5 C 26,1 C 49 % 1025,8 hPa 0,0 l/m 5,7 km/h (1 Bft) N 5 2 min 2,5 UV-I 513 W/m 6,7 C 17,5 C 8,0 km/h (2 Bft)
06.05.2022 17:18 17,8 C 27,2 C 49 % 1025,8 hPa 0,0 l/m 4,1 km/h (1 Bft) N 355 2 min 2,6 UV-I 544 W/m 6,9 C 17,8 C 16,1 km/h (3 Bft)
06.05.2022 17:20 17,8 C 27,2 C 46 % 1025,8 hPa 0,0 l/m 13,3 km/h (3 Bft) N-NW 347 2 min 2,6 UV-I 544 W/m 6,0 C 15,1 C 19,3 km/h (3 Bft)
06.05.2022 17:22 17,9 C 27,8 C 47 % 1025,8 hPa 0,0 l/m 11,1 km/h (2 Bft) N-NW 344 2 min 2,5 UV-I 545 W/m 6,4 C 15,9 C 14,5 km/h (3 Bft)
06.05.2022 17:24 17,9 C 27,8 C 48 % 1025,8 hPa 0,0 l/m 8,7 km/h (2 Bft) N 5 2 min 2,5 UV-I 547 W/m 6,7 C 16,8 C 12,9 km/h (3 Bft)
06.05.2022 17:26 18,1 C 28,3 C 48 % 1025,7 hPa 0,0 l/m 10,1 km/h (2 Bft) N 355 2 min 2,4 UV-I 529 W/m 6,9 C 16,5 C 17,7 km/h (3 Bft)
06.05.2022 17:28 18,1 C 28,3 C 48 % 1025,7 hPa 0,0 l/m 8,5 km/h (2 Bft) N 11 2 min 2,2 UV-I 512 W/m 6,9 C 17,1 C 14,5 km/h (3 Bft)
06.05.2022 17:30 17,9 C 27,8 C 49 % 1025,7 hPa 0,0 l/m 11,9 km/h (2 Bft) N-NW 337 2 min 2,2 UV-I 517 W/m 7,0 C 15,6 C 16,1 km/h (3 Bft)
06.05.2022 17:32 17,9 C 27,8 C 48 % 1025,7 hPa 0,0 l/m 11,8 km/h (2 Bft) N-NW 336 2 min 2,3 UV-I 539 W/m 6,7 C 15,7 C 17,7 km/h (3 Bft)
06.05.2022 17:34 17,9 C 27,8 C 48 % 1025,8 hPa 0,0 l/m 8,1 km/h (2 Bft) N 351 2 min 2,3 UV-I 547 W/m 6,7 C 17,1 C 12,9 km/h (3 Bft)
06.05.2022 17:36 17,9 C 28,3 C 47 % 1025,8 hPa 0,0 l/m 6,8 km/h (2 Bft) N 5 2 min 2,3 UV-I 549 W/m 6,4 C 17,7 C 12,9 km/h (3 Bft)
06.05.2022 17:38 17,9 C 28,3 C 47 % 1025,8 hPa 0,0 l/m 10,0 km/h (2 Bft) N-NO 27 2 min 2,2 UV-I 537 W/m 6,4 C 16,3 C 16,1 km/h (3 Bft)
06.05.2022 17:40 18,1 C 28,9 C 50 % 1025,8 hPa 0,0 l/m 9,7 km/h (2 Bft) N 350 2 min 2,1 UV-I 525 W/m 7,5 C 16,7 C 14,5 km/h (3 Bft)
06.05.2022 17:42 17,8 C 25,6 C 49 % 1025,8 hPa 0,0 l/m 12,6 km/h (3 Bft) N 355 2 min 1,5 UV-I 346 W/m 6,9 C 15,3 C 19,3 km/h (3 Bft)
06.05.2022 17:44 17,4 C 22,8 C 49 % 1025,8 hPa 0,0 l/m 13,7 km/h (3 Bft) N 355 0 min 1,3 UV-I 125 W/m 6,6 C 14,5 C 17,7 km/h (3 Bft)
06.05.2022 17:46 17,1 C 20,6 C 52 % 1025,8 hPa 0,0 l/m 9,9 km/h (2 Bft) N 360 0 min 1,3 UV-I 117 W/m 7,2 C 15,5 C 16,1 km/h (3 Bft)
06.05.2022 17:48 16,8 C 21,7 C 52 % 1025,9 hPa 0,0 l/m 12,0 km/h (2 Bft) N 355 0 min 1,6 UV-I 246 W/m 6,9 C 14,3 C 16,1 km/h (3 Bft)
06.05.2022 17:50 16,9 C 22,8 C 52 % 1025,9 hPa 0,0 l/m 13,8 km/h (3 Bft) N 350 2 min 1,8 UV-I 426 W/m 7,0 C 13,9 C 19,3 km/h (3 Bft)
06.05.2022 17:52 17,1 C 23,9 C 51 % 1025,8 hPa 0,0 l/m 13,0 km/h (3 Bft) N 5 2 min 1,8 UV-I 430 W/m 6,9 C 14,4 C 17,7 km/h (3 Bft)
06.05.2022 17:54 17,2 C 23,9 C 50 % 1025,8 hPa 0,0 l/m 14,1 km/h (3 Bft) N 5 2 min 1,7 UV-I 429 W/m 6,7 C 14,1 C 17,7 km/h (3 Bft)
06.05.2022 17:56 17,3 C 23,9 C 52 % 1025,9 hPa 0,0 l/m 12,3 km/h (3 Bft) N-NW 346 2 min 1,8 UV-I 408 W/m 7,3 C 14,8 C 16,1 km/h (3 Bft)
06.05.2022 17:58 17,3 C 25,0 C 50 % 1025,8 hPa 0,0 l/m 9,5 km/h (2 Bft) N-NW 344 2 min 1,8 UV-I 425 W/m 6,8 C 15,9 C 14,5 km/h (3 Bft)
06.05.2022 18:00 17,4 C 25,6 C 51 % 1025,8 hPa 0,0 l/m 6,2 km/h (2 Bft) N-NO 22 2 min 1,8 UV-I 417 W/m 7,2 C 17,4 C 11,3 km/h (2 Bft)
06.05.2022 18:02 17,3 C 25,6 C 50 % 1025,7 hPa 0,0 l/m 7,8 km/h (2 Bft) N 5 2 min 1,7 UV-I 410 W/m 6,8 C 16,6 C 11,3 km/h (2 Bft)
06.05.2022 18:04 17,4 C 25,0 C 53 % 1025,8 hPa 0,0 l/m 3,3 km/h (1 Bft) N-NW 342 2 min 1,6 UV-I 392 W/m 7,7 C 17,4 C 9,7 km/h (2 Bft)
06.05.2022 18:06 17,4 C 25,0 C 51 % 1025,7 hPa 0,0 l/m 5,4 km/h (1 Bft) N-NO 22 2 min 1,6 UV-I 366 W/m 7,2 C 17,4 C 11,3 km/h (2 Bft)
06.05.2022 18:08 17,4 C 25,0 C 51 % 1025,8 hPa 0,0 l/m 7,0 km/h (2 Bft) N-NO 22 2 min 1,6 UV-I 407 W/m 7,2 C 17,1 C 9,7 km/h (2 Bft)
06.05.2022 18:10 17,5 C 25,0 C 49 % 1025,8 hPa 0,0 l/m 13,8 km/h (3 Bft) N 5 2 min 1,6 UV-I 413 W/m 6,7 C 14,6 C 19,3 km/h (3 Bft)
06.05.2022 18:12 17,4 C 25,0 C 51 % 1025,7 hPa 0,0 l/m 12,4 km/h (3 Bft) N-NO 18 2 min 1,6 UV-I 407 W/m 7,2 C 14,9 C 17,7 km/h (3 Bft)
06.05.2022 18:14 17,3 C 25,0 C 53 % 1025,8 hPa 0,0 l/m 10,2 km/h (2 Bft) N-NO 28 2 min 1,5 UV-I 389 W/m 7,6 C 15,6 C 16,1 km/h (3 Bft)
06.05.2022 18:16 17,3 C 24,4 C 53 % 1025,7 hPa 0,0 l/m 14,7 km/h (3 Bft) N-NW 333 2 min 1,5 UV-I 368 W/m 7,6 C 14,1 C 19,3 km/h (3 Bft)
06.05.2022 18:18 17,2 C 24,4 C 52 % 1025,8 hPa 0,0 l/m 9,7 km/h (2 Bft) N 355 2 min 1,4 UV-I 351 W/m 7,3 C 15,7 C 14,5 km/h (3 Bft)
06.05.2022 18:20 17,1 C 25,0 C 52 % 1025,8 hPa 0,0 l/m 9,7 km/h (2 Bft) N 9 0 min 1,4 UV-I 329 W/m 7,2 C 15,6 C 16,1 km/h (3 Bft)
06.05.2022 18:22 17,1 C 24,4 C 52 % 1025,7 hPa 0,0 l/m 10,3 km/h (2 Bft) N-NO 22 0 min 1,4 UV-I 332 W/m 7,2 C 15,3 C 16,1 km/h (3 Bft)
06.05.2022 18:24 17,0 C 23,9 C 52 % 1025,7 hPa 0,0 l/m 10,0 km/h (2 Bft) N 350 0 min 1,3 UV-I 321 W/m 7,1 C 15,3 C 14,5 km/h (3 Bft)
06.05.2022 18:26 16,9 C 23,9 C 51 % 1025,7 hPa 0,0 l/m 12,9 km/h (3 Bft) N 355 0 min 1,3 UV-I 301 W/m 6,7 C 14,2 C 17,7 km/h (3 Bft)
06.05.2022 18:28 16,8 C 22,8 C 51 % 1025,8 hPa 0,0 l/m 11,8 km/h (2 Bft) N-NO 17 0 min 1,2 UV-I 272 W/m 6,6 C 14,4 C 14,5 km/h (3 Bft)
06.05.2022 18:30 16,8 C 23,3 C 54 % 1025,7 hPa 0,0 l/m 6,7 km/h (2 Bft) N 5 0 min 1,2 UV-I 281 W/m 7,4 C 16,7 C 11,3 km/h (2 Bft)
06.05.2022 18:32 16,7 C 23,3 C 54 % 1025,7 hPa 0,0 l/m 5,6 km/h (1 Bft) N-NO 13 0 min 1,2 UV-I 289 W/m 7,3 C 16,7 C 11,3 km/h (2 Bft)
06.05.2022 18:34 16,8 C 23,3 C 54 % 1025,7 hPa 0,0 l/m 5,9 km/h (2 Bft) N 5 0 min 1,2 UV-I 290 W/m 7,4 C 16,8 C 8,0 km/h (2 Bft)
06.05.2022 18:36 16,7 C 23,3 C 53 % 1025,7 hPa 0,0 l/m 6,9 km/h (2 Bft) N-NO 13 0 min 1,1 UV-I 251 W/m 7,1 C 16,4 C 9,7 km/h (2 Bft)
06.05.2022 18:38 16,7 C 22,2 C 55 % 1025,7 hPa 0,0 l/m 5,4 km/h (1 Bft) N 11 0 min 1,0 UV-I 235 W/m 7,6 C 16,7 C 9,7 km/h (2 Bft)
06.05.2022 18:40 16,6 C 21,7 C 56 % 1025,9 hPa 0,0 l/m 6,8 km/h (2 Bft) N 355 0 min 0,9 UV-I 147 W/m 7,8 C 16,4 C 12,9 km/h (3 Bft)
06.05.2022 18:42 16,4 C 21,1 C 54 % 1025,8 hPa 0,0 l/m 13,2 km/h (3 Bft) N 355 0 min 1,0 UV-I 213 W/m 7,1 C 13,5 C 17,7 km/h (3 Bft)
06.05.2022 18:44 16,4 C 20,0 C 53 % 1025,7 hPa 0,0 l/m 10,7 km/h (2 Bft) N 355 0 min 0,9 UV-I 180 W/m 6,8 C 14,4 C 14,5 km/h (3 Bft)
06.05.2022 18:46 16,3 C 18,9 C 54 % 1025,8 hPa 0,0 l/m 8,6 km/h (2 Bft) N 5 0 min 0,8 UV-I 122 W/m 7,0 C 15,2 C 14,5 km/h (3 Bft)
06.05.2022 18:48 16,1 C 17,8 C 55 % 1025,7 hPa 0,0 l/m 5,8 km/h (2 Bft) N 360 0 min 0,9 UV-I 140 W/m 7,1 C 16,1 C 8,0 km/h (2 Bft)
06.05.2022 18:50 16,0 C 17,2 C 54 % 1025,7 hPa 0,0 l/m 9,3 km/h (2 Bft) N 355 0 min 0,8 UV-I 143 W/m 6,7 C 14,5 C 14,5 km/h (3 Bft)
06.05.2022 18:52 15,9 C 17,2 C 55 % 1025,7 hPa 0,0 l/m 7,5 km/h (2 Bft) N 355 0 min 0,9 UV-I 190 W/m 6,9 C 15,3 C 12,9 km/h (3 Bft)
06.05.2022 18:54 15,9 C 16,7 C 55 % 1025,8 hPa 0,0 l/m 9,0 km/h (2 Bft) N 349 0 min 0,8 UV-I 148 W/m 6,9 C 14,6 C 14,5 km/h (3 Bft)
06.05.2022 18:56 15,8 C 16,7 C 55 % 1025,7 hPa 0,0 l/m 8,6 km/h (2 Bft) N 5 0 min 0,8 UV-I 155 W/m 6,8 C 14,6 C 12,9 km/h (3 Bft)
06.05.2022 18:58 15,8 C 16,7 C 55 % 1025,6 hPa 0,0 l/m 7,6 km/h (2 Bft) N 11 0 min 0,8 UV-I 225 W/m 6,8 C 15,1 C 12,9 km/h (3 Bft)
06.05.2022 19:00 15,9 C 16,7 C 56 % 1025,6 hPa 0,0 l/m 7,0 km/h (2 Bft) N 11 0 min 0,8 UV-I 224 W/m 7,1 C 15,6 C 11,3 km/h (2 Bft)
06.05.2022 19:02 15,9 C 17,2 C 55 % 1025,7 hPa 0,0 l/m 6,5 km/h (2 Bft) N-NO 13 0 min 0,8 UV-I 220 W/m 6,9 C 15,9 C 11,3 km/h (2 Bft)
06.05.2022 19:04 15,9 C 17,2 C 57 % 1025,6 hPa 0,0 l/m 9,3 km/h (2 Bft) N 9 0 min 0,8 UV-I 214 W/m 7,4 C 14,4 C 14,5 km/h (3 Bft)
06.05.2022 19:06 15,9 C 17,2 C 56 % 1025,7 hPa 0,0 l/m 10,5 km/h (2 Bft) N 5 0 min 0,8 UV-I 207 W/m 7,1 C 13,9 C 17,7 km/h (3 Bft)
06.05.2022 19:08 15,9 C 17,8 C 55 % 1025,7 hPa 0,0 l/m 9,6 km/h (2 Bft) N-NO 22 0 min 0,7 UV-I 204 W/m 6,9 C 14,3 C 14,5 km/h (3 Bft)
06.05.2022 19:10 15,9 C 18,3 C 55 % 1025,7 hPa 0,0 l/m 8,4 km/h (2 Bft) N-NO 12 0 min 0,7 UV-I 204 W/m 6,9 C 14,8 C 12,9 km/h (3 Bft)
06.05.2022 19:12 15,9 C 18,3 C 56 % 1025,7 hPa 0,0 l/m 7,2 km/h (2 Bft) N-NO 18 0 min 0,7 UV-I 200 W/m 7,1 C 15,5 C 12,9 km/h (3 Bft)
06.05.2022 19:14 15,8 C 18,3 C 57 % 1025,7 hPa 0,0 l/m 7,4 km/h (2 Bft) N-NO 17 0 min 0,7 UV-I 199 W/m 7,3 C 15,3 C 11,3 km/h (2 Bft)
06.05.2022 19:16 15,8 C 18,9 C 57 % 1025,8 hPa 0,0 l/m 7,0 km/h (2 Bft) N 5 0 min 0,7 UV-I 195 W/m 7,3 C 15,5 C 12,9 km/h (3 Bft)
06.05.2022 19:18 15,8 C 18,9 C 55 % 1025,7 hPa 0,0 l/m 7,6 km/h (2 Bft) N-NO 32 0 min 0,6 UV-I 185 W/m 6,8 C 15,1 C 16,1 km/h (3 Bft)
06.05.2022 19:20 15,8 C 18,9 C 56 % 1025,7 hPa 0,0 l/m 6,5 km/h (2 Bft) N-NO 29 0 min 0,6 UV-I 178 W/m 7,0 C 15,8 C 9,7 km/h (2 Bft)
06.05.2022 19:22 15,8 C 18,9 C 55 % 1025,7 hPa 0,0 l/m 7,7 km/h (2 Bft) N-NO 17 0 min 0,6 UV-I 178 W/m 6,8 C 15,1 C 12,9 km/h (3 Bft)
06.05.2022 19:24 15,8 C 18,3 C 56 % 1025,7 hPa 0,0 l/m 9,2 km/h (2 Bft) N-NO 30 0 min 0,6 UV-I 174 W/m 7,0 C 14,4 C 12,9 km/h (3 Bft)
06.05.2022 19:26 15,8 C 18,3 C 55 % 1025,8 hPa 0,0 l/m 8,8 km/h (2 Bft) N-NO 30 0 min 0,6 UV-I 167 W/m 6,8 C 14,5 C 12,9 km/h (3 Bft)
06.05.2022 19:28 15,8 C 18,3 C 57 % 1025,8 hPa 0,0 l/m 6,9 km/h (2 Bft) N-NO 31 0 min 0,6 UV-I 161 W/m 7,3 C 15,5 C 9,7 km/h (2 Bft)
06.05.2022 19:30 15,7 C 18,3 C 57 % 1025,7 hPa 0,0 l/m 7,1 km/h (2 Bft) N-NO 30 0 min 0,5 UV-I 151 W/m 7,2 C 15,3 C 12,9 km/h (3 Bft)
06.05.2022 19:32 15,7 C 17,8 C 56 % 1025,7 hPa 0,0 l/m 9,7 km/h (2 Bft) O-NO 61 0 min 0,5 UV-I 142 W/m 6,9 C 14,0 C 16,1 km/h (3 Bft)
06.05.2022 19:34 15,7 C 17,2 C 56 % 1025,7 hPa 0,0 l/m 11,9 km/h (2 Bft) NO 36 0 min 0,5 UV-I 134 W/m 6,9 C 13,1 C 16,1 km/h (3 Bft)
06.05.2022 19:36 15,6 C 16,7 C 56 % 1025,7 hPa 0,0 l/m 10,7 km/h (2 Bft) NO 43 0 min 0,5 UV-I 130 W/m 6,9 C 13,5 C 17,7 km/h (3 Bft)
06.05.2022 19:38 15,7 C 16,1 C 55 % 1025,7 hPa 0,0 l/m 9,4 km/h (2 Bft) NO 45 0 min 0,4 UV-I 126 W/m 6,7 C 14,2 C 16,1 km/h (3 Bft)
06.05.2022 19:40 15,7 C 16,1 C 56 % 1025,8 hPa 0,0 l/m 8,8 km/h (2 Bft) N-NO 20 0 min 0,0 UV-I 123 W/m 6,9 C 14,4 C 12,9 km/h (3 Bft)
06.05.2022 19:42 15,6 C 15,6 C 56 % 1025,7 hPa 0,0 l/m 6,1 km/h (2 Bft) O-NO 57 0 min 0,0 UV-I 121 W/m 6,9 C 15,6 C 9,7 km/h (2 Bft)
06.05.2022 19:44 15,4 C 15,0 C 56 % 1025,7 hPa 0,0 l/m 5,8 km/h (2 Bft) N-NO 33 0 min 0,0 UV-I 118 W/m 6,7 C 15,4 C 9,7 km/h (2 Bft)
06.05.2022 19:46 15,4 C 14,4 C 57 % 1025,7 hPa 0,0 l/m 6,3 km/h (2 Bft) N-NO 25 0 min 0,0 UV-I 113 W/m 6,9 C 15,4 C 9,7 km/h (2 Bft)
06.05.2022 19:48 15,2 C 13,9 C 59 % 1025,8 hPa 0,0 l/m 5,5 km/h (1 Bft) N-NO 20 0 min 0,0 UV-I 107 W/m 7,2 C 15,2 C 8,0 km/h (2 Bft)
06.05.2022 19:50 15,1 C 13,9 C 58 % 1025,7 hPa 0,0 l/m 7,1 km/h (2 Bft) N-NO 24 0 min 0,0 UV-I 102 W/m 6,9 C 14,7 C 11,3 km/h (2 Bft)
06.05.2022 19:52 15,0 C 13,3 C 59 % 1025,7 hPa 0,0 l/m 7,8 km/h (2 Bft) N-NO 25 0 min 0,0 UV-I 96 W/m 7,1 C 14,2 C 9,7 km/h (2 Bft)
06.05.2022 19:54 14,8 C 13,3 C 60 % 1025,7 hPa 0,0 l/m 7,7 km/h (2 Bft) NO 36 0 min 0,0 UV-I 91 W/m 7,1 C 14,1 C 12,9 km/h (3 Bft)
06.05.2022 19:56 14,8 C 12,8 C 60 % 1025,7 hPa 0,0 l/m 7,6 km/h (2 Bft) N-NO 28 0 min 0,0 UV-I 87 W/m 7,1 C 14,1 C 11,3 km/h (2 Bft)
06.05.2022 19:58 14,8 C 12,8 C 60 % 1025,7 hPa 0,0 l/m 7,6 km/h (2 Bft) N-NO 27 0 min 0,0 UV-I 82 W/m 7,1 C 14,1 C 11,3 km/h (2 Bft)
06.05.2022 20:00 14,7 C 12,8 C 60 % 1025,7 hPa 0,0 l/m 6,6 km/h (2 Bft) N-NO 26 0 min 0,0 UV-I 76 W/m 7,0 C 14,6 C 9,7 km/h (2 Bft)
06.05.2022 20:02 14,7 C 12,8 C 60 % 1025,7 hPa 0,0 l/m 5,1 km/h (1 Bft) N-NO 26 0 min 0,0 UV-I 71 W/m 7,0 C 14,7 C 6,4 km/h (2 Bft)
06.05.2022 20:04 14,6 C 12,2 C 60 % 1025,7 hPa 0,0 l/m 5,6 km/h (1 Bft) N-NO 15 0 min 0,0 UV-I 64 W/m 6,9 C 14,6 C 8,0 km/h (2 Bft)
06.05.2022 20:06 14,5 C 12,2 C 60 % 1025,8 hPa 0,0 l/m 5,4 km/h (1 Bft) N-NO 15 0 min 0,0 UV-I 50 W/m 6,8 C 14,5 C 6,4 km/h (2 Bft)
06.05.2022 20:08 14,4 C 11,7 C 60 % 1025,8 hPa 0,0 l/m 5,5 km/h (1 Bft) N-NO 19 0 min 0,0 UV-I 44 W/m 6,7 C 14,4 C 6,4 km/h (2 Bft)
06.05.2022 20:10 14,3 C 11,7 C 61 % 1025,8 hPa 0,0 l/m 4,5 km/h (1 Bft) N-NO 19 0 min 0,0 UV-I 38 W/m 6,9 C 14,3 C 6,4 km/h (2 Bft)
06.05.2022 20:12 14,2 C 11,7 C 61 % 1025,8 hPa 0,0 l/m 5,6 km/h (1 Bft) N-NO 18 0 min 0,0 UV-I 34 W/m 6,8 C 14,2 C 6,4 km/h (2 Bft)
06.05.2022 20:14 14,2 C 11,7 C 61 % 1025,8 hPa 0,0 l/m 4,7 km/h (1 Bft) N-NO 18 0 min 0,0 UV-I 30 W/m 6,8 C 14,2 C 6,4 km/h (2 Bft)
06.05.2022 20:16 14,2 C 11,1 C 61 % 1025,7 hPa 0,0 l/m 5,4 km/h (1 Bft) N-NO 14 0 min 0,0 UV-I 30 W/m 6,8 C 14,2 C 8,0 km/h (2 Bft)
06.05.2022 20:18 14,1 C 11,1 C 61 % 1025,8 hPa 0,0 l/m 6,8 km/h (2 Bft) N-NO 15 0 min 0,0 UV-I 29 W/m 6,7 C 13,9 C 8,0 km/h (2 Bft)
06.05.2022 20:20 14,1 C 11,1 C 61 % 1025,7 hPa 0,0 l/m 6,1 km/h (2 Bft) N 9 0 min 0,0 UV-I 27 W/m 6,7 C 14,1 C 8,0 km/h (2 Bft)
06.05.2022 20:22 14,1 C 11,1 C 61 % 1025,7 hPa 0,0 l/m 5,0 km/h (1 Bft) N 10 0 min 0,0 UV-I 24 W/m 6,7 C 14,1 C 6,4 km/h (2 Bft)
06.05.2022 20:24 14,1 C 11,1 C 61 % 1025,8 hPa 0,0 l/m 5,6 km/h (1 Bft) N 9 0 min 0,0 UV-I 23 W/m 6,7 C 14,1 C 6,4 km/h (2 Bft)
06.05.2022 20:26 14,1 C 11,1 C 61 % 1025,8 hPa 0,0 l/m 5,8 km/h (2 Bft) N 5 0 min 0,0 UV-I 22 W/m 6,7 C 14,1 C 8,0 km/h (2 Bft)
06.05.2022 20:28 14,1 C 11,1 C 61 % 1025,8 hPa 0,0 l/m 6,3 km/h (2 Bft) N 5 0 min 0,0 UV-I 21 W/m 6,7 C 14,1 C 8,0 km/h (2 Bft)
06.05.2022 20:30 14,0 C 11,1 C 61 % 1025,8 hPa 0,0 l/m 7,3 km/h (2 Bft) N 9 0 min 0,0 UV-I 20 W/m 6,6 C 13,5 C 8,0 km/h (2 Bft)
06.05.2022 20:32 13,9 C 11,1 C 62 % 1025,8 hPa 0,0 l/m 7,5 km/h (2 Bft) N 9 0 min 0,0 UV-I 19 W/m 6,7 C 13,2 C 11,3 km/h (2 Bft)
06.05.2022 20:34 13,9 C 11,1 C 61 % 1025,8 hPa 0,0 l/m 6,2 km/h (2 Bft) N 5 0 min 0,0 UV-I 18 W/m 6,5 C 13,9 C 8,0 km/h (2 Bft)
06.05.2022 20:36 13,9 C 11,1 C 62 % 1025,8 hPa 0,0 l/m 6,0 km/h (2 Bft) N 5 0 min 0,0 UV-I 18 W/m 6,7 C 13,9 C 8,0 km/h (2 Bft)
06.05.2022 20:38 13,9 C 10,6 C 62 % 1025,8 hPa 0,0 l/m 5,9 km/h (2 Bft) N 5 0 min 0,0 UV-I 16 W/m 6,7 C 13,9 C 8,0 km/h (2 Bft)
06.05.2022 20:40 13,8 C 10,6 C 62 % 1025,9 hPa 0,0 l/m 5,2 km/h (1 Bft) N 5 0 min 0,0 UV-I 14 W/m 6,6 C 13,8 C 8,0 km/h (2 Bft)
06.05.2022 20:42 13,7 C 10,6 C 63 % 1025,9 hPa 0,0 l/m 4,5 km/h (1 Bft) N 5 0 min 0,0 UV-I 12 W/m 6,8 C 13,7 C 6,4 km/h (2 Bft)
06.05.2022 20:44 13,6 C 10,6 C 63 % 1025,7 hPa 0,0 l/m 4,7 km/h (1 Bft) N 5 0 min 0,0 UV-I 11 W/m 6,7 C 13,6 C 6,4 km/h (2 Bft)
06.05.2022 20:46 13,4 C 10,6 C 63 % 1025,8 hPa 0,0 l/m 4,8 km/h (1 Bft) N 5 0 min 0,0 UV-I 9 W/m 6,5 C 13,4 C 6,4 km/h (2 Bft)
06.05.2022 20:48 13,4 C 10,0 C 63 % 1025,8 hPa 0,0 l/m 5,1 km/h (1 Bft) N 5 0 min 0,0 UV-I 7 W/m 6,5 C 13,4 C 6,4 km/h (2 Bft)
06.05.2022 20:50 13,4 C 10,0 C 63 % 1025,8 hPa 0,0 l/m 4,2 km/h (1 Bft) N 5 0 min 0,0 UV-I 7 W/m 6,5 C 13,4 C 6,4 km/h (2 Bft)
06.05.2022 20:52 13,4 C 10,0 C 64 % 1025,7 hPa 0,0 l/m 4,8 km/h (1 Bft) N 5 0 min 0,0 UV-I 5 W/m 6,7 C 13,4 C 6,4 km/h (2 Bft)
06.05.2022 20:54 13,4 C 9,4 C 64 % 1025,7 hPa 0,0 l/m 4,3 km/h (1 Bft) N 5 0 min 0,0 UV-I 5 W/m 6,7 C 13,4 C 6,4 km/h (2 Bft)
06.05.2022 20:56 13,3 C 9,4 C 64 % 1025,8 hPa 0,0 l/m 3,5 km/h (1 Bft) N 5 0 min 0,0 UV-I 0 W/m 6,6 C 13,3 C 4,8 km/h (1 Bft)
06.05.2022 20:58 13,3 C 9,4 C 64 % 1025,9 hPa 0,0 l/m 3,3 km/h (1 Bft) N 5 0 min 0,0 UV-I 0 W/m 6,6 C 13,3 C 4,8 km/h (1 Bft)
06.05.2022 21:00 13,2 C 9,4 C 64 % 1025,9 hPa 0,0 l/m 3,0 km/h (1 Bft) N 5 0 min 0,0 UV-I 0 W/m 6,5 C 13,2 C 4,8 km/h (1 Bft)
06.05.2022 21:02 13,0 C 9,4 C 65 % 1025,9 hPa 0,0 l/m 2,0 km/h (1 Bft) N 5 0 min 0,0 UV-I 0 W/m 6,6 C 13,0 C 3,2 km/h (1 Bft)
06.05.2022 21:04 12,6 C 9,4 C 66 % 1026,0 hPa 0,0 l/m 1,7 km/h (1 Bft) N 5 0 min 0,0 UV-I 0 W/m 6,4 C 12,6 C 3,2 km/h (1 Bft)
06.05.2022 21:06 12,3 C 8,9 C 67 % 1026,0 hPa 0,0 l/m 2,5 km/h (1 Bft) N 5 0 min 0,0 UV-I 0 W/m 6,4 C 12,3 C 4,8 km/h (1 Bft)
06.05.2022 21:08 12,1 C 8,9 C 68 % 1026,0 hPa 0,0 l/m 3,3 km/h (1 Bft) N 5 0 min 0,0 UV-I 0 W/m 6,4 C 12,1 C 4,8 km/h (1 Bft)
06.05.2022 21:10 11,9 C 8,9 C 68 % 1026,0 hPa 0,0 l/m 2,4 km/h (1 Bft) N 5 0 min 0,0 UV-I 0 W/m 6,2 C 11,9 C 4,8 km/h (1 Bft)
06.05.2022 21:12 11,9 C 8,9 C 68 % 1026,0 hPa 0,0 l/m 3,0 km/h (1 Bft) N 5 0 min 0,0 UV-I 0 W/m 6,2 C 11,9 C 4,8 km/h (1 Bft)
06.05.2022 21:14 11,9 C 8,9 C 68 % 1026,1 hPa 0,0 l/m 3,2 km/h (1 Bft) N 5 0 min 0,0 UV-I 0 W/m 6,2 C 11,9 C 4,8 km/h (1 Bft)
06.05.2022 21:16 11,9 C 8,3 C 68 % 1026,1 hPa 0,0 l/m 3,4 km/h (1 Bft) N 5 0 min 0,0 UV-I 0 W/m 6,2 C 11,9 C 4,8 km/h (1 Bft)
06.05.2022 21:18 11,9 C 8,3 C 68 % 1026,1 hPa 0,0 l/m 2,1 km/h (1 Bft) N 5 0 min 0,0 UV-I 0 W/m 6,2 C 11,9 C 3,2 km/h (1 Bft)
06.05.2022 21:20 11,8 C 8,3 C 69 % 1026,1 hPa 0,0 l/m 1,1 km/h (1 Bft) N 5 0 min 0,0 UV-I 0 W/m 6,3 C 11,8 C 4,8 km/h (1 Bft)
06.05.2022 21:22 11,4 C 7,8 C 69 % 1026,1 hPa 0,0 l/m 0,0 km/h (0 Bft) N 5 0 min 0,0 UV-I 0 W/m 5,9 C 11,4 C 1,6 km/h (1 Bft)
06.05.2022 21:24 11,1 C 7,8 C 71 % 1026,1 hPa 0,0 l/m 0,0 km/h (0 Bft) N 5 0 min 0,0 UV-I 0 W/m 6,0 C 11,1 C 0,0 km/h (0 Bft)
06.05.2022 21:26 10,7 C 7,8 C 72 % 1026,2 hPa 0,0 l/m 0,0 km/h (0 Bft) N 5 0 min 0,0 UV-I 0 W/m 5,9 C 10,7 C 0,0 km/h (0 Bft)
06.05.2022 21:28 10,7 C 7,8 C 73 % 1026,2 hPa 0,0 l/m 0,9 km/h (0 Bft) N 5 0 min 0,0 UV-I 0 W/m 6,1 C 10,7 C 3,2 km/h (1 Bft)
06.05.2022 21:30 10,7 C 7,8 C 73 % 1026,2 hPa 0,0 l/m 2,6 km/h (1 Bft) N 5 0 min 0,0 UV-I 0 W/m 6,1 C 10,7 C 3,2 km/h (1 Bft)
06.05.2022 21:32 10,6 C 7,8 C 73 % 1026,3 hPa 0,0 l/m 2,3 km/h (1 Bft) N 5 0 min 0,0 UV-I 0 W/m 6,0 C 10,6 C 3,2 km/h (1 Bft)
06.05.2022 21:34 10,5 C 7,8 C 73 % 1026,2 hPa 0,0 l/m 2,3 km/h (1 Bft) N 5 0 min 0,0 UV-I 0 W/m 5,9 C 10,5 C 3,2 km/h (1 Bft)
06.05.2022 21:36 10,4 C 7,2 C 73 % 1026,2 hPa 0,0 l/m 2,6 km/h (1 Bft) N 5 0 min 0,0 UV-I 0 W/m 5,8 C 10,4 C 3,2 km/h (1 Bft)
06.05.2022 21:38 10,2 C 7,2 C 73 % 1026,3 hPa 0,0 l/m 1,1 km/h (1 Bft) N 5 0 min 0,0 UV-I 0 W/m 5,6 C 10,2 C 3,2 km/h (1 Bft)
06.05.2022 21:40 10,1 C 7,2 C 74 % 1026,3 hPa 0,0 l/m 2,9 km/h (1 Bft) N 5 0 min 0,0 UV-I 0 W/m 5,7 C 10,1 C 4,8 km/h (1 Bft)
06.05.2022 21:42 9,9 C 6,7 C 75 % 1026,3 hPa 0,0 l/m 2,5 km/h (1 Bft) N 5 0 min 0,0 UV-I 0 W/m 5,7 C 9,9 C 4,8 km/h (1 Bft)
06.05.2022 21:44 9,9 C 6,7 C 75 % 1026,3 hPa 0,0 l/m 0,4 km/h (0 Bft) N 5 0 min 0,0 UV-I 0 W/m 5,7 C 9,9 C 3,2 km/h (1 Bft)
06.05.2022 21:46 9,9 C 6,7 C 75 % 1026,4 hPa 0,0 l/m 0,1 km/h (0 Bft) N 5 0 min 0,0 UV-I 0 W/m 5,7 C 9,9 C 1,6 km/h (1 Bft)
06.05.2022 21:48 10,1 C 6,1 C 75 % 1026,4 hPa 0,0 l/m 0,1 km/h (0 Bft) N 5 0 min 0,0 UV-I 0 W/m 5,9 C 10,1 C 1,6 km/h (1 Bft)
06.05.2022 21:50 10,2 C 6,1 C 75 % 1026,4 hPa 0,0 l/m 0,0 km/h (0 Bft) N 5 0 min 0,0 UV-I 0 W/m 6,0 C 10,2 C 0,0 km/h (0 Bft)
06.05.2022 21:52 10,1 C 6,1 C 75 % 1026,4 hPa 0,0 l/m 0,0 km/h (0 Bft) N 5 0 min 0,0 UV-I 0 W/m 5,9 C 10,1 C 0,0 km/h (0 Bft)
06.05.2022 21:54 10,1 C 6,1 C 75 % 1026,3 hPa 0,0 l/m 0,4 km/h (0 Bft) N 5 0 min 0,0 UV-I 0 W/m 5,9 C 10,1 C 1,6 km/h (1 Bft)
06.05.2022 21:56 10,0 C 6,7 C 75 % 1026,3 hPa 0,0 l/m 0,4 km/h (0 Bft) N 5 0 min 0,0 UV-I 0 W/m 5,8 C 10,0 C 3,2 km/h (1 Bft)
06.05.2022 21:58 9,9 C 6,7 C 75 % 1026,3 hPa 0,0 l/m 0,5 km/h (0 Bft) N 5 0 min 0,0 UV-I 0 W/m 5,7 C 9,9 C 1,6 km/h (1 Bft)
06.05.2022 22:00 9,9 C 6,7 C 75 % 1026,4 hPa 0,0 l/m 0,1 km/h (0 Bft) N 5 0 min 0,0 UV-I 0 W/m 5,7 C 9,9 C 1,6 km/h (1 Bft)
06.05.2022 22:02 9,9 C 6,1 C 75 % 1026,3 hPa 0,0 l/m 0,0 km/h (0 Bft) N 5 0 min 0,0 UV-I 0 W/m 5,7 C 9,9 C 0,0 km/h (0 Bft)
06.05.2022 22:04 9,9 C 6,1 C 76 % 1026,4 hPa 0,0 l/m 0,0 km/h (0 Bft) N 5 0 min 0,0 UV-I 0 W/m 5,9 C 9,9 C 0,0 km/h (0 Bft)
06.05.2022 22:06 9,9 C 6,1 C 76 % 1026,3 hPa 0,0 l/m 0,0 km/h (0 Bft) N 5 0 min 0,0 UV-I 0 W/m 5,9 C 9,9 C 0,0 km/h (0 Bft)
06.05.2022 22:08 9,9 C 6,1 C 76 % 1026,4 hPa 0,0 l/m 0,0 km/h (0 Bft) N 5 0 min 0,0 UV-I 0 W/m 5,9 C 9,9 C 0,0 km/h (0 Bft)
06.05.2022 22:10 9,6 C 6,1 C 75 % 1026,3 hPa 0,0 l/m 0,0 km/h (0 Bft) N 5 0 min 0,0 UV-I 0 W/m 5,4 C 9,6 C 0,0 km/h (0 Bft)
06.05.2022 22:12 9,1 C 5,6 C 76 % 1026,3 hPa 0,0 l/m 0,0 km/h (0 Bft) N 5 0 min 0,0 UV-I 0 W/m 5,1 C 9,1 C 0,0 km/h (0 Bft)
06.05.2022 22:14 8,8 C 5,6 C 78 % 1026,3 hPa 0,0 l/m 0,0 km/h (0 Bft) N 5 0 min 0,0 UV-I 0 W/m 5,2 C 8,8 C 0,0 km/h (0 Bft)
06.05.2022 22:16 8,6 C 5,6 C 78 % 1026,3 hPa 0,0 l/m 0,0 km/h (0 Bft) N 5 0 min 0,0 UV-I 0 W/m 5,0 C 8,6 C 0,0 km/h (0 Bft)
06.05.2022 22:18 8,4 C 5,6 C 78 % 1026,4 hPa 0,0 l/m 0,0 km/h (0 Bft) N 5 0 min 0,0 UV-I 0 W/m 4,8 C 8,4 C 0,0 km/h (0 Bft)
06.05.2022 22:20 8,3 C 5,0 C 79 % 1026,3 hPa 0,0 l/m 0,1 km/h (0 Bft) N 5 0 min 0,0 UV-I 0 W/m 4,9 C 8,3 C 1,6 km/h (1 Bft)
06.05.2022 22:22 8,2 C 5,0 C 79 % 1026,3 hPa 0,0 l/m 0,0 km/h (0 Bft) N 5 0 min 0,0 UV-I 0 W/m 4,8 C 8,2 C 0,0 km/h (0 Bft)
06.05.2022 22:24 8,0 C 5,0 C 80 % 1026,3 hPa 0,0 l/m 0,0 km/h (0 Bft) N 5 0 min 0,0 UV-I 0 W/m 4,8 C 8,0 C 0,0 km/h (0 Bft)
06.05.2022 22:26 8,0 C 5,0 C 80 % 1026,3 hPa 0,0 l/m 0,0 km/h (0 Bft) N 5 0 min 0,0 UV-I 0 W/m 4,8 C 8,0 C 0,0 km/h (0 Bft)
06.05.2022 22:28 8,1 C 5,0 C 80 % 1026,2 hPa 0,0 l/m 0,0 km/h (0 Bft) N 5 0 min 0,0 UV-I 0 W/m 4,9 C 8,1 C 0,0 km/h (0 Bft)
06.05.2022 22:30 8,1 C 5,6 C 80 % 1026,3 hPa 0,0 l/m 0,0 km/h (0 Bft) N 5 0 min 0,0 UV-I 0 W/m 4,9 C 8,1 C 0,0 km/h (0 Bft)
06.05.2022 22:32 8,2 C 5,6 C 80 % 1026,3 hPa 0,0 l/m 0,1 km/h (0 Bft) N 5 0 min 0,0 UV-I 0 W/m 5,0 C 8,2 C 1,6 km/h (1 Bft)
06.05.2022 22:34 8,3 C 5,6 C 80 % 1026,3 hPa 0,0 l/m 1,3 km/h (1 Bft) N 5 0 min 0,0 UV-I 0 W/m 5,1 C 8,3 C 1,6 km/h (1 Bft)
06.05.2022 22:36 8,4 C 5,0 C 80 % 1026,3 hPa 0,0 l/m 1,0 km/h (0 Bft) N 5 0 min 0,0 UV-I 0 W/m 5,2 C 8,4 C 1,6 km/h (1 Bft)
06.05.2022 22:38 8,6 C 5,0 C 80 % 1026,4 hPa 0,0 l/m 0,2 km/h (0 Bft) N 5 0 min 0,0 UV-I 0 W/m 5,3 C 8,6 C 1,6 km/h (1 Bft)
06.05.2022 22:40 8,4 C 5,0 C 79 % 1026,4 hPa 0,0 l/m 0,0 km/h (0 Bft) N 5 0 min 0,0 UV-I 0 W/m 5,0 C 8,4 C 0,0 km/h (0 Bft)
06.05.2022 22:42 8,1 C 5,0 C 79 % 1026,4 hPa 0,0 l/m 0,0 km/h (0 Bft) N 5 0 min 0,0 UV-I 0 W/m 4,7 C 8,1 C 0,0 km/h (0 Bft)
06.05.2022 22:44 7,8 C 5,0 C 79 % 1026,4 hPa 0,0 l/m 0,0 km/h (0 Bft) N 5 0 min 0,0 UV-I 0 W/m 4,4 C 7,8 C 0,0 km/h (0 Bft)
06.05.2022 22:46 7,7 C 5,0 C 81 % 1026,3 hPa 0,0 l/m 0,0 km/h (0 Bft) N 5 0 min 0,0 UV-I 0 W/m 4,7 C 7,7 C 0,0 km/h (0 Bft)
06.05.2022 22:48 7,8 C 5,0 C 81 % 1026,3 hPa 0,0 l/m 0,0 km/h (0 Bft) N 5 0 min 0,0 UV-I 0 W/m 4,7 C 7,8 C 0,0 km/h (0 Bft)
06.05.2022 22:50 7,7 C 5,0 C 81 % 1026,3 hPa 0,0 l/m 0,0 km/h (0 Bft) N 5 0 min 0,0 UV-I 0 W/m 4,7 C 7,7 C 0,0 km/h (0 Bft)
06.05.2022 22:52 7,6 C 5,0 C 81 % 1026,3 hPa 0,0 l/m 0,0 km/h (0 Bft) N 5 0 min 0,0 UV-I 0 W/m 4,6 C 7,6 C 0,0 km/h (0 Bft)
06.05.2022 22:54 7,4 C 4,4 C 82 % 1026,3 hPa 0,0 l/m 0,0 km/h (0 Bft) N 5 0 min 0,0 UV-I 0 W/m 4,5 C 7,4 C 0,0 km/h (0 Bft)
06.05.2022 22:56 7,6 C 4,4 C 82 % 1026,3 hPa 0,0 l/m 0,0 km/h (0 Bft) N 5 0 min 0,0 UV-I 0 W/m 4,7 C 7,6 C 0,0 km/h (0 Bft)
06.05.2022 22:58 7,6 C 3,9 C 82 % 1026,3 hPa 0,0 l/m 0,0 km/h (0 Bft) N 5 0 min 0,0 UV-I 0 W/m 4,7 C 7,6 C 1,6 km/h (1 Bft)
06.05.2022 23:00 7,3 C 3,9 C 81 % 1026,3 hPa 0,0 l/m 0,0 km/h (0 Bft) N 5 0 min 0,0 UV-I 0 W/m 4,3 C 7,3 C 0,0 km/h (0 Bft)
06.05.2022 23:02 7,0 C 3,9 C 81 % 1026,3 hPa 0,0 l/m 0,0 km/h (0 Bft) N 5 0 min 0,0 UV-I 0 W/m 4,0 C 7,0 C 0,0 km/h (0 Bft)
06.05.2022 23:04 6,9 C 4,4 C 82 % 1026,2 hPa 0,0 l/m 0,0 km/h (0 Bft) N 5 0 min 0,0 UV-I 0 W/m 4,0 C 6,9 C 0,0 km/h (0 Bft)
06.05.2022 23:06 7,2 C 4,4 C 83 % 1026,3 hPa 0,0 l/m 0,5 km/h (0 Bft) N 5 0 min 0,0 UV-I 0 W/m 4,5 C 7,2 C 1,6 km/h (1 Bft)
06.05.2022 23:08 7,3 C 4,4 C 83 % 1026,2 hPa 0,0 l/m 1,3 km/h (1 Bft) N 5 0 min 0,0 UV-I 0 W/m 4,6 C 7,3 C 1,6 km/h (1 Bft)
06.05.2022 23:10 7,4 C 4,4 C 83 % 1026,3 hPa 0,0 l/m 0,3 km/h (0 Bft) N 5 0 min 0,0 UV-I 0 W/m 4,7 C 7,4 C 1,6 km/h (1 Bft)
06.05.2022 23:12 7,4 C 4,4 C 82 % 1026,3 hPa 0,0 l/m 0,0 km/h (0 Bft) N 5 0 min 0,0 UV-I 0 W/m 4,5 C 7,4 C 1,6 km/h (1 Bft)
06.05.2022 23:14 7,5 C 4,4 C 82 % 1026,2 hPa 0,0 l/m 0,0 km/h (0 Bft) N 5 0 min 0,0 UV-I 0 W/m 4,6 C 7,5 C 0,0 km/h (0 Bft)
06.05.2022 23:16 7,5 C 4,4 C 82 % 1026,2 hPa 0,0 l/m 0,2 km/h (0 Bft) N 5 0 min 0,0 UV-I 0 W/m 4,6 C 7,5 C 1,6 km/h (1 Bft)
06.05.2022 23:18 7,4 C 4,4 C 82 % 1026,1 hPa 0,0 l/m 0,0 km/h (0 Bft) N 5 0 min 0,0 UV-I 0 W/m 4,5 C 7,4 C 1,6 km/h (1 Bft)
06.05.2022 23:20 7,3 C 3,9 C 82 % 1026,1 hPa 0,0 l/m 0,1 km/h (0 Bft) N 5 0 min 0,0 UV-I 0 W/m 4,4 C 7,3 C 1,6 km/h (1 Bft)
06.05.2022 23:22 7,1 C 3,9 C 82 % 1026,1 hPa 0,0 l/m 0,0 km/h (0 Bft) N 5 0 min 0,0 UV-I 0 W/m 4,2 C 7,1 C 0,0 km/h (0 Bft)
06.05.2022 23:24 6,6 C 3,9 C 81 % 1026,1 hPa 0,0 l/m 0,0 km/h (0 Bft) N 5 0 min 0,0 UV-I 0 W/m 3,6 C 6,6 C 0,0 km/h (0 Bft)
06.05.2022 23:26 6,4 C 3,9 C 83 % 1026,2 hPa 0,0 l/m 0,0 km/h (0 Bft) N 5 0 min 0,0 UV-I 0 W/m 3,7 C 6,4 C 0,0 km/h (0 Bft)
06.05.2022 23:28 6,4 C 4,4 C 83 % 1026,2 hPa 0,0 l/m 0,0 km/h (0 Bft) N 5 0 min 0,0 UV-I 0 W/m 3,7 C 6,4 C 0,0 km/h (0 Bft)
06.05.2022 23:30 6,3 C 3,9 C 83 % 1026,1 hPa 0,0 l/m 0,0 km/h (0 Bft) N 5 0 min 0,0 UV-I 0 W/m 3,6 C 6,3 C 0,0 km/h (0 Bft)
06.05.2022 23:32 6,4 C 4,4 C 84 % 1026,1 hPa 0,0 l/m 0,0 km/h (0 Bft) N 5 0 min 0,0 UV-I 0 W/m 3,9 C 6,4 C 0,0 km/h (0 Bft)
06.05.2022 23:34 6,4 C 4,4 C 84 % 1026,1 hPa 0,0 l/m 0,7 km/h (0 Bft) N 5 0 min 0,0 UV-I 0 W/m 3,9 C 6,4 C 1,6 km/h (1 Bft)
06.05.2022 23:36 6,5 C 4,4 C 84 % 1026,1 hPa 0,0 l/m 2,0 km/h (1 Bft) N 5 0 min 0,0 UV-I 0 W/m 4,0 C 6,5 C 3,2 km/h (1 Bft)
06.05.2022 23:38 6,6 C 4,4 C 84 % 1026,1 hPa 0,0 l/m 3,5 km/h (1 Bft) N 5 0 min 0,0 UV-I 0 W/m 4,1 C 6,6 C 4,8 km/h (1 Bft)
06.05.2022 23:40 6,6 C 4,4 C 84 % 1026,0 hPa 0,0 l/m 4,2 km/h (1 Bft) N-NW 348 0 min 0,0 UV-I 0 W/m 4,1 C 6,6 C 6,4 km/h (2 Bft)
06.05.2022 23:42 6,7 C 5,0 C 84 % 1026,2 hPa 0,0 l/m 4,4 km/h (1 Bft) N-NW 343 0 min 0,0 UV-I 0 W/m 4,2 C 6,7 C 6,4 km/h (2 Bft)
06.05.2022 23:44 6,8 C 5,0 C 84 % 1026,1 hPa 0,0 l/m 3,7 km/h (1 Bft) N-NW 339 0 min 0,0 UV-I 0 W/m 4,3 C 6,8 C 6,4 km/h (2 Bft)
06.05.2022 23:46 6,9 C 4,4 C 84 % 1026,1 hPa 0,0 l/m 2,4 km/h (1 Bft) N-NW 339 0 min 0,0 UV-I 0 W/m 4,4 C 6,9 C 4,8 km/h (1 Bft)
06.05.2022 23:48 6,8 C 4,4 C 84 % 1026,2 hPa 0,0 l/m 0,3 km/h (0 Bft) N-NW 339 0 min 0,0 UV-I 0 W/m 4,3 C 6,8 C 1,6 km/h (1 Bft)
06.05.2022 23:50 6,3 C 3,9 C 82 % 1026,1 hPa 0,0 l/m 0,0 km/h (0 Bft) N-NW 339 0 min 0,0 UV-I 0 W/m 3,5 C 6,3 C 0,0 km/h (0 Bft)
06.05.2022 23:52 5,9 C 3,9 C 82 % 1026,1 hPa 0,0 l/m 0,0 km/h (0 Bft) N-NW 339 0 min 0,0 UV-I 0 W/m 3,1 C 5,9 C 0,0 km/h (0 Bft)
06.05.2022 23:54 5,8 C 3,3 C 83 % 1026,0 hPa 0,0 l/m 0,0 km/h (0 Bft) N-NW 339 0 min 0,0 UV-I 0 W/m 3,1 C 5,8 C 0,0 km/h (0 Bft)
06.05.2022 23:56 5,7 C 3,3 C 84 % 1026,1 hPa 0,0 l/m 0,0 km/h (0 Bft) N-NW 339 0 min 0,0 UV-I 0 W/m 3,2 C 5,7 C 0,0 km/h (0 Bft)
06.05.2022 23:58 5,6 C 3,3 C 84 % 1026,1 hPa 0,0 l/m 0,0 km/h (0 Bft) N-NW 339 0 min 0,0 UV-I 0 W/m 3,1 C 5,6 C 0,0 km/h (0 Bft)
06.05.2022 23:59 5,6 C 3,3 C 84 % 1026,1 hPa 0,0 l/m 0,0 km/h (0 Bft) N-NW 337 0 min 0,0 UV-I 0 W/m 3,1 C 5,6 C 1,6 km/h (1 Bft)
_ Min-Zeit 06:18 05:37 15:04 18:58 - 00:00 - - - - - 06:18 06:18 00:00
Minimum _ 1,4 C -0,6 C 42 % 1025,6 hPa - 0,0 km/h (0 Bft) - - - - - 0,2 C 1,4 C 0,0 km/h (0 Bft)
_ Max-Zeit 16:08 14:54 04:44 08:20 00:00 14:14 - - 09:00 13:56 12:54 15:08 14:36 13:42
Maximum _ 18,7 C 30,6 C 93 % 1027,5 hPa 0,0 l/m 18,7 km/h
N-NO (3 Bft)
- - 2 min 6,0 UV-I 1029 W/m 8,6 C 18,5 C 25,7 km/h
N-NW (4 Bft)
Durchschnitt _ 10,7 C 12,7 C 71 % 1026,6 hPa #0,0 l/m 4,4 km/h (1 Bft) N - #8:20 h 3,1 UV-I 452 W/m 5,1 C 10,2 C 7,0 km/h (2 Bft)